<?xml version="1.0" encoding="utf-8"?>
<gpx xmlns:xsi="http://www.w3.org/2001/XMLSchema-instance" xmlns:xsd="http://www.w3.org/2001/XMLSchema" version="1.1" creator="Shapelink.com" xmlns="http://www.topografix.com/GPX/1/1" xmlns:gpxtpx="http://www.garmin.com/xmlschemas/TrackPointExtension/v1">
  <metadata>
    <name>Löpning 6.67 km, 2018-02-19</name>
    <desc></desc>
    <author><name>Bengt-Åke Forslund</name></author> 
    <time>2018-02-19T18:05:44Z</time>
  </metadata>
  <trk>
    <name>Löpning 6.67 km, 2018-02-19</name>
    <trkseg>
      <trkpt lat="62.637226070862" lon="17.966177017118">
        <ele>44.6</ele>
        <time>2018-02-19T18:05:44Z</time>
      </trkpt>
      <trkpt lat="62.637228920708" lon="17.966131084306">
        <ele>44.2</ele>
        <time>2018-02-19T18:05:55Z</time>
      </trkpt>
      <trkpt lat="62.637223807749" lon="17.966127060994">
        <ele>44.4</ele>
        <time>2018-02-19T18:05:56Z</time>
      </trkpt>
      <trkpt lat="62.637220957903" lon="17.96611733799">
        <ele>44.4</ele>
        <time>2018-02-19T18:05:57Z</time>
      </trkpt>
      <trkpt lat="62.637242331748" lon="17.966134353247">
        <ele>44.6</ele>
        <time>2018-02-19T18:05:58Z</time>
      </trkpt>
      <trkpt lat="62.637231519097" lon="17.966118008542">
        <ele>44.6</ele>
        <time>2018-02-19T18:05:59Z</time>
      </trkpt>
      <trkpt lat="62.637229507441" lon="17.966099065448">
        <ele>44.6</ele>
        <time>2018-02-19T18:06:00Z</time>
      </trkpt>
      <trkpt lat="62.637229004527" lon="17.966083391295">
        <ele>44.4</ele>
        <time>2018-02-19T18:06:01Z</time>
      </trkpt>
      <trkpt lat="62.637232022011" lon="17.966062268907">
        <ele>44.2</ele>
        <time>2018-02-19T18:06:02Z</time>
      </trkpt>
      <trkpt lat="62.637236548237" lon="17.966045169831">
        <ele>44</ele>
        <time>2018-02-19T18:06:03Z</time>
      </trkpt>
      <trkpt lat="62.637234201305" lon="17.966032261705">
        <ele>44</ele>
        <time>2018-02-19T18:06:04Z</time>
      </trkpt>
      <trkpt lat="62.637231100002" lon="17.966009546756">
        <ele>43.8</ele>
        <time>2018-02-19T18:06:05Z</time>
      </trkpt>
      <trkpt lat="62.637225148853" lon="17.965988759644">
        <ele>43.8</ele>
        <time>2018-02-19T18:06:06Z</time>
      </trkpt>
      <trkpt lat="62.637218359514" lon="17.965953807121">
        <ele>43.6</ele>
        <time>2018-02-19T18:06:07Z</time>
      </trkpt>
      <trkpt lat="62.637214252383" lon="17.965922291177">
        <ele>43.6</ele>
        <time>2018-02-19T18:06:08Z</time>
      </trkpt>
      <trkpt lat="62.637210229071" lon="17.965896977839">
        <ele>43.6</ele>
        <time>2018-02-19T18:06:09Z</time>
      </trkpt>
      <trkpt lat="62.63720696013" lon="17.965860181298">
        <ele>43.6</ele>
        <time>2018-02-19T18:06:10Z</time>
      </trkpt>
      <trkpt lat="62.637201847171" lon="17.965830174096">
        <ele>43.6</ele>
        <time>2018-02-19T18:06:11Z</time>
      </trkpt>
      <trkpt lat="62.63719438728" lon="17.965796814134">
        <ele>43.6</ele>
        <time>2018-02-19T18:06:12Z</time>
      </trkpt>
      <trkpt lat="62.637186759751" lon="17.965769992054">
        <ele>43.6</ele>
        <time>2018-02-19T18:06:13Z</time>
      </trkpt>
      <trkpt lat="62.637174522177" lon="17.965733279332">
        <ele>43.6</ele>
        <time>2018-02-19T18:06:14Z</time>
      </trkpt>
      <trkpt lat="62.637156584911" lon="17.965683826122">
        <ele>43.8</ele>
        <time>2018-02-19T18:06:15Z</time>
      </trkpt>
      <trkpt lat="62.637146442812" lon="17.965643844459">
        <ele>43.8</ele>
        <time>2018-02-19T18:06:16Z</time>
      </trkpt>
      <trkpt lat="62.637131439211" lon="17.965601934959">
        <ele>43.8</ele>
        <time>2018-02-19T18:06:17Z</time>
      </trkpt>
      <trkpt lat="62.63711559742" lon="17.965556672699">
        <ele>44</ele>
        <time>2018-02-19T18:06:18Z</time>
      </trkpt>
      <trkpt lat="62.637103611303" lon="17.965519792339">
        <ele>43.8</ele>
        <time>2018-02-19T18:06:19Z</time>
      </trkpt>
      <trkpt lat="62.637088104788" lon="17.965467237826">
        <ele>43.6</ele>
        <time>2018-02-19T18:06:20Z</time>
      </trkpt>
      <trkpt lat="62.637078214146" lon="17.965430273647">
        <ele>43.8</ele>
        <time>2018-02-19T18:06:21Z</time>
      </trkpt>
      <trkpt lat="62.637066228029" lon="17.965388280328">
        <ele>43.8</ele>
        <time>2018-02-19T18:06:22Z</time>
      </trkpt>
      <trkpt lat="62.637054493369" lon="17.965349807407">
        <ele>43.6</ele>
        <time>2018-02-19T18:06:23Z</time>
      </trkpt>
      <trkpt lat="62.637047117297" lon="17.965321644223">
        <ele>43.6</ele>
        <time>2018-02-19T18:06:24Z</time>
      </trkpt>
      <trkpt lat="62.637030018221" lon="17.965269844081">
        <ele>43.6</ele>
        <time>2018-02-19T18:06:25Z</time>
      </trkpt>
      <trkpt lat="62.63701920557" lon="17.96523220935">
        <ele>43.6</ele>
        <time>2018-02-19T18:06:26Z</time>
      </trkpt>
      <trkpt lat="62.637007973824" lon="17.965192143868">
        <ele>43.6</ele>
        <time>2018-02-19T18:06:27Z</time>
      </trkpt>
      <trkpt lat="62.636995820069" lon="17.965149396178">
        <ele>43.8</ele>
        <time>2018-02-19T18:06:28Z</time>
      </trkpt>
      <trkpt lat="62.636989449825" lon="17.965116203854">
        <ele>43.6</ele>
        <time>2018-02-19T18:06:29Z</time>
      </trkpt>
      <trkpt lat="62.636970003817" lon="17.965066666825">
        <ele>43.6</ele>
        <time>2018-02-19T18:06:30Z</time>
      </trkpt>
      <trkpt lat="62.636951815094" lon="17.965030624655">
        <ele>43.6</ele>
        <time>2018-02-19T18:06:31Z</time>
      </trkpt>
      <trkpt lat="62.636936643855" lon="17.964988715155">
        <ele>43.8</ele>
        <time>2018-02-19T18:06:32Z</time>
      </trkpt>
      <trkpt lat="62.636920802064" lon="17.964946638017">
        <ele>43.8</ele>
        <time>2018-02-19T18:06:33Z</time>
      </trkpt>
      <trkpt lat="62.636907391024" lon="17.964906740173">
        <ele>43.8</ele>
        <time>2018-02-19T18:06:34Z</time>
      </trkpt>
      <trkpt lat="62.636887861197" lon="17.964862232284">
        <ele>43.8</ele>
        <time>2018-02-19T18:06:35Z</time>
      </trkpt>
      <trkpt lat="62.636870762121" lon="17.964823004992">
        <ele>43.8</ele>
        <time>2018-02-19T18:06:36Z</time>
      </trkpt>
      <trkpt lat="62.63685240576" lon="17.964784699709">
        <ele>43.6</ele>
        <time>2018-02-19T18:06:37Z</time>
      </trkpt>
      <trkpt lat="62.636833211209" lon="17.964744634227">
        <ele>43.8</ele>
        <time>2018-02-19T18:06:38Z</time>
      </trkpt>
      <trkpt lat="62.636815022486" lon="17.964717309233">
        <ele>43.8</ele>
        <time>2018-02-19T18:06:39Z</time>
      </trkpt>
      <trkpt lat="62.636792223718" lon="17.964679255407">
        <ele>43.8</ele>
        <time>2018-02-19T18:06:40Z</time>
      </trkpt>
      <trkpt lat="62.63677445409" lon="17.964646482178">
        <ele>43.8</ele>
        <time>2018-02-19T18:06:41Z</time>
      </trkpt>
      <trkpt lat="62.636755259539" lon="17.964606332877">
        <ele>44</ele>
        <time>2018-02-19T18:06:42Z</time>
      </trkpt>
      <trkpt lat="62.636738747196" lon="17.964565513024">
        <ele>43.8</ele>
        <time>2018-02-19T18:06:43Z</time>
      </trkpt>
      <trkpt lat="62.636723659776" lon="17.964531398691">
        <ele>43.8</ele>
        <time>2018-02-19T18:06:44Z</time>
      </trkpt>
      <trkpt lat="62.636707566528" lon="17.964486639345">
        <ele>43.8</ele>
        <time>2018-02-19T18:06:45Z</time>
      </trkpt>
      <trkpt lat="62.636693904031" lon="17.964448250243">
        <ele>43.8</ele>
        <time>2018-02-19T18:06:46Z</time>
      </trkpt>
      <trkpt lat="62.636678732792" lon="17.964402904164">
        <ele>43.8</ele>
        <time>2018-02-19T18:06:47Z</time>
      </trkpt>
      <trkpt lat="62.636665405571" lon="17.964359402103">
        <ele>43.8</ele>
        <time>2018-02-19T18:06:48Z</time>
      </trkpt>
      <trkpt lat="62.636651156341" lon="17.964319755716">
        <ele>43.8</ele>
        <time>2018-02-19T18:06:49Z</time>
      </trkpt>
      <trkpt lat="62.636633554351" lon="17.964268793764">
        <ele>43.6</ele>
        <time>2018-02-19T18:06:50Z</time>
      </trkpt>
      <trkpt lat="62.63661938894" lon="17.964221771305">
        <ele>43.8</ele>
        <time>2018-02-19T18:06:51Z</time>
      </trkpt>
      <trkpt lat="62.636605055891" lon="17.964176592864">
        <ele>43.8</ele>
        <time>2018-02-19T18:06:52Z</time>
      </trkpt>
      <trkpt lat="62.636590974299" lon="17.964131246785">
        <ele>43.8</ele>
        <time>2018-02-19T18:06:53Z</time>
      </trkpt>
      <trkpt lat="62.636578569087" lon="17.964094450244">
        <ele>43.8</ele>
        <time>2018-02-19T18:06:54Z</time>
      </trkpt>
      <trkpt lat="62.636562308201" lon="17.964040386989">
        <ele>43.8</ele>
        <time>2018-02-19T18:06:55Z</time>
      </trkpt>
      <trkpt lat="62.636548394247" lon="17.963995543824">
        <ele>43.8</ele>
        <time>2018-02-19T18:06:56Z</time>
      </trkpt>
      <trkpt lat="62.63653473175" lon="17.963949946288">
        <ele>43.8</ele>
        <time>2018-02-19T18:06:57Z</time>
      </trkpt>
      <trkpt lat="62.636518303226" lon="17.96389948725">
        <ele>43.8</ele>
        <time>2018-02-19T18:06:58Z</time>
      </trkpt>
      <trkpt lat="62.636504892186" lon="17.963862858347">
        <ele>43.6</ele>
        <time>2018-02-19T18:06:59Z</time>
      </trkpt>
      <trkpt lat="62.636490475318" lon="17.963814075689">
        <ele>43.6</ele>
        <time>2018-02-19T18:07:00Z</time>
      </trkpt>
      <trkpt lat="62.636477567192" lon="17.963775267492">
        <ele>43.6</ele>
        <time>2018-02-19T18:07:01Z</time>
      </trkpt>
      <trkpt lat="62.636459378469" lon="17.963744254462">
        <ele>43.6</ele>
        <time>2018-02-19T18:07:02Z</time>
      </trkpt>
      <trkpt lat="62.636437836986" lon="17.963727825938">
        <ele>43.4</ele>
        <time>2018-02-19T18:07:03Z</time>
      </trkpt>
      <trkpt lat="62.636419815901" lon="17.963730340508">
        <ele>43.4</ele>
        <time>2018-02-19T18:07:04Z</time>
      </trkpt>
      <trkpt lat="62.636404477024" lon="17.963745008833">
        <ele>43.4</ele>
        <time>2018-02-19T18:07:05Z</time>
      </trkpt>
      <trkpt lat="62.636377822582" lon="17.963783314116">
        <ele>43.4</ele>
        <time>2018-02-19T18:07:06Z</time>
      </trkpt>
      <trkpt lat="62.636357622203" lon="17.963810722929">
        <ele>43.6</ele>
        <time>2018-02-19T18:07:07Z</time>
      </trkpt>
      <trkpt lat="62.636336164539" lon="17.963838969932">
        <ele>43.4</ele>
        <time>2018-02-19T18:07:08Z</time>
      </trkpt>
      <trkpt lat="62.636319903653" lon="17.963863025985">
        <ele>43.4</ele>
        <time>2018-02-19T18:07:09Z</time>
      </trkpt>
      <trkpt lat="62.636297104885" lon="17.963888674599">
        <ele>43.4</ele>
        <time>2018-02-19T18:07:10Z</time>
      </trkpt>
      <trkpt lat="62.636279167619" lon="17.963914155575">
        <ele>43.6</ele>
        <time>2018-02-19T18:07:11Z</time>
      </trkpt>
      <trkpt lat="62.636258548145" lon="17.963944833329">
        <ele>43.6</ele>
        <time>2018-02-19T18:07:12Z</time>
      </trkpt>
      <trkpt lat="62.636236922843" lon="17.963972158323">
        <ele>43.6</ele>
        <time>2018-02-19T18:07:13Z</time>
      </trkpt>
      <trkpt lat="62.6362204105" lon="17.963998561308">
        <ele>43.8</ele>
        <time>2018-02-19T18:07:14Z</time>
      </trkpt>
      <trkpt lat="62.63619777937" lon="17.964023874646">
        <ele>44</ele>
        <time>2018-02-19T18:07:15Z</time>
      </trkpt>
      <trkpt lat="62.636178249543" lon="17.964046254319">
        <ele>43.8</ele>
        <time>2018-02-19T18:07:16Z</time>
      </trkpt>
      <trkpt lat="62.636157881526" lon="17.964077937901">
        <ele>44</ele>
        <time>2018-02-19T18:07:17Z</time>
      </trkpt>
      <trkpt lat="62.636135166577" lon="17.964109705302">
        <ele>44</ele>
        <time>2018-02-19T18:07:18Z</time>
      </trkpt>
      <trkpt lat="62.636117480768" lon="17.964134096631">
        <ele>43.8</ele>
        <time>2018-02-19T18:07:19Z</time>
      </trkpt>
      <trkpt lat="62.636094598181" lon="17.964165025842">
        <ele>44</ele>
        <time>2018-02-19T18:07:20Z</time>
      </trkpt>
      <trkpt lat="62.636071464137" lon="17.964192267017">
        <ele>44</ele>
        <time>2018-02-19T18:07:21Z</time>
      </trkpt>
      <trkpt lat="62.636050760844" lon="17.964218670002">
        <ele>44</ele>
        <time>2018-02-19T18:07:22Z</time>
      </trkpt>
      <trkpt lat="62.636029386999" lon="17.964244905349">
        <ele>44</ele>
        <time>2018-02-19T18:07:23Z</time>
      </trkpt>
      <trkpt lat="62.636009018982" lon="17.964264267538">
        <ele>44</ele>
        <time>2018-02-19T18:07:24Z</time>
      </trkpt>
      <trkpt lat="62.635983705644" lon="17.964288491229">
        <ele>44</ele>
        <time>2018-02-19T18:07:25Z</time>
      </trkpt>
      <trkpt lat="62.635961661247" lon="17.96430768578">
        <ele>44</ele>
        <time>2018-02-19T18:07:26Z</time>
      </trkpt>
      <trkpt lat="62.635940790316" lon="17.964325958322">
        <ele>44.2</ele>
        <time>2018-02-19T18:07:27Z</time>
      </trkpt>
      <trkpt lat="62.635917404815" lon="17.964344901416">
        <ele>44</ele>
        <time>2018-02-19T18:07:28Z</time>
      </trkpt>
      <trkpt lat="62.635897204436" lon="17.964363425415">
        <ele>44.2</ele>
        <time>2018-02-19T18:07:29Z</time>
      </trkpt>
      <trkpt lat="62.635871220546" lon="17.964391420961">
        <ele>44.4</ele>
        <time>2018-02-19T18:07:30Z</time>
      </trkpt>
      <trkpt lat="62.635850433434" lon="17.964408184761">
        <ele>44.4</ele>
        <time>2018-02-19T18:07:31Z</time>
      </trkpt>
      <trkpt lat="62.635827215571" lon="17.964429558606">
        <ele>44.6</ele>
        <time>2018-02-19T18:07:32Z</time>
      </trkpt>
      <trkpt lat="62.635804249165" lon="17.964447998786">
        <ele>44.6</ele>
        <time>2018-02-19T18:07:33Z</time>
      </trkpt>
      <trkpt lat="62.635784719338" lon="17.964462918568">
        <ele>44.6</ele>
        <time>2018-02-19T18:07:34Z</time>
      </trkpt>
      <trkpt lat="62.635761417656" lon="17.964482783671">
        <ele>44.4</ele>
        <time>2018-02-19T18:07:35Z</time>
      </trkpt>
      <trkpt lat="62.635737780698" lon="17.96449963129">
        <ele>44.6</ele>
        <time>2018-02-19T18:07:36Z</time>
      </trkpt>
      <trkpt lat="62.635716490672" lon="17.964516898004">
        <ele>44.8</ele>
        <time>2018-02-19T18:07:37Z</time>
      </trkpt>
      <trkpt lat="62.635690171506" lon="17.964535002908">
        <ele>44.8</ele>
        <time>2018-02-19T18:07:38Z</time>
      </trkpt>
      <trkpt lat="62.635670893136" lon="17.964553107812">
        <ele>44.8</ele>
        <time>2018-02-19T18:07:39Z</time>
      </trkpt>
      <trkpt lat="62.635645076884" lon="17.964576493313">
        <ele>45</ele>
        <time>2018-02-19T18:07:40Z</time>
      </trkpt>
      <trkpt lat="62.635624541229" lon="17.964590826362">
        <ele>45.2</ele>
        <time>2018-02-19T18:07:41Z</time>
      </trkpt>
      <trkpt lat="62.635604843764" lon="17.964607841619">
        <ele>45.2</ele>
        <time>2018-02-19T18:07:42Z</time>
      </trkpt>
      <trkpt lat="62.635581625901" lon="17.96461949246">
        <ele>45.2</ele>
        <time>2018-02-19T18:07:43Z</time>
      </trkpt>
      <trkpt lat="62.635560084418" lon="17.964633154957">
        <ele>45.2</ele>
        <time>2018-02-19T18:07:44Z</time>
      </trkpt>
      <trkpt lat="62.635539381125" lon="17.964649332024">
        <ele>45.4</ele>
        <time>2018-02-19T18:07:45Z</time>
      </trkpt>
      <trkpt lat="62.635518258737" lon="17.96466307834">
        <ele>45.4</ele>
        <time>2018-02-19T18:07:46Z</time>
      </trkpt>
      <trkpt lat="62.63549789072" lon="17.964673388077">
        <ele>45.4</ele>
        <time>2018-02-19T18:07:47Z</time>
      </trkpt>
      <trkpt lat="62.635477690341" lon="17.964687804945">
        <ele>45.4</ele>
        <time>2018-02-19T18:07:48Z</time>
      </trkpt>
      <trkpt lat="62.635456651772" lon="17.964699036691">
        <ele>45.4</ele>
        <time>2018-02-19T18:07:49Z</time>
      </trkpt>
      <trkpt lat="62.635434942651" lon="17.96471504612">
        <ele>45.6</ele>
        <time>2018-02-19T18:07:50Z</time>
      </trkpt>
      <trkpt lat="62.635412311521" lon="17.96472929535">
        <ele>45.4</ele>
        <time>2018-02-19T18:07:51Z</time>
      </trkpt>
      <trkpt lat="62.635387501097" lon="17.964744718046">
        <ele>45.6</ele>
        <time>2018-02-19T18:07:52Z</time>
      </trkpt>
      <trkpt lat="62.635368306546" lon="17.964755111602">
        <ele>45.6</ele>
        <time>2018-02-19T18:07:53Z</time>
      </trkpt>
      <trkpt lat="62.635348441443" lon="17.96475947019">
        <ele>45.6</ele>
        <time>2018-02-19T18:07:54Z</time>
      </trkpt>
      <trkpt lat="62.635325726494" lon="17.964761817122">
        <ele>45.6</ele>
        <time>2018-02-19T18:07:55Z</time>
      </trkpt>
      <trkpt lat="62.635302424812" lon="17.964762487674">
        <ele>45.8</ele>
        <time>2018-02-19T18:07:56Z</time>
      </trkpt>
      <trkpt lat="62.635278033483" lon="17.964767684452">
        <ele>45.8</ele>
        <time>2018-02-19T18:07:57Z</time>
      </trkpt>
      <trkpt lat="62.635256156724" lon="17.96478042494">
        <ele>45.8</ele>
        <time>2018-02-19T18:07:58Z</time>
      </trkpt>
      <trkpt lat="62.635235621069" lon="17.96478713046">
        <ele>45.8</ele>
        <time>2018-02-19T18:07:59Z</time>
      </trkpt>
      <trkpt lat="62.635210978283" lon="17.964792913971">
        <ele>46</ele>
        <time>2018-02-19T18:08:00Z</time>
      </trkpt>
      <trkpt lat="62.635189604438" lon="17.964799368034">
        <ele>46</ele>
        <time>2018-02-19T18:08:01Z</time>
      </trkpt>
      <trkpt lat="62.635163285272" lon="17.964803307527">
        <ele>46</ele>
        <time>2018-02-19T18:08:02Z</time>
      </trkpt>
      <trkpt lat="62.635138977762" lon="17.964810013047">
        <ele>45.8</ele>
        <time>2018-02-19T18:08:03Z</time>
      </trkpt>
      <trkpt lat="62.635115089347" lon="17.964816886205">
        <ele>46</ele>
        <time>2018-02-19T18:08:04Z</time>
      </trkpt>
      <trkpt lat="62.635090027466" lon="17.964825016648">
        <ele>46</ele>
        <time>2018-02-19T18:08:05Z</time>
      </trkpt>
      <trkpt lat="62.635072844571" lon="17.964832895634">
        <ele>46</ele>
        <time>2018-02-19T18:08:06Z</time>
      </trkpt>
      <trkpt lat="62.635045854853" lon="17.96484161281">
        <ele>46.2</ele>
        <time>2018-02-19T18:08:07Z</time>
      </trkpt>
      <trkpt lat="62.635023726637" lon="17.964851419633">
        <ele>46</ele>
        <time>2018-02-19T18:08:08Z</time>
      </trkpt>
      <trkpt lat="62.635003274801" lon="17.964854437117">
        <ele>46.2</ele>
        <time>2018-02-19T18:08:09Z</time>
      </trkpt>
      <trkpt lat="62.634977710006" lon="17.964862735198">
        <ele>46.2</ele>
        <time>2018-02-19T18:08:10Z</time>
      </trkpt>
      <trkpt lat="62.634954492143" lon="17.964866423234">
        <ele>46.2</ele>
        <time>2018-02-19T18:08:11Z</time>
      </trkpt>
      <trkpt lat="62.634930184633" lon="17.964874134582">
        <ele>46.2</ele>
        <time>2018-02-19T18:08:12Z</time>
      </trkpt>
      <trkpt lat="62.634904955114" lon="17.964880672464">
        <ele>46.4</ele>
        <time>2018-02-19T18:08:13Z</time>
      </trkpt>
      <trkpt lat="62.634882323984" lon="17.964885617785">
        <ele>46.6</ele>
        <time>2018-02-19T18:08:14Z</time>
      </trkpt>
      <trkpt lat="62.634857765017" lon="17.964890311649">
        <ele>46.6</ele>
        <time>2018-02-19T18:08:15Z</time>
      </trkpt>
      <trkpt lat="62.634833541326" lon="17.964892239486">
        <ele>46.6</ele>
        <time>2018-02-19T18:08:16Z</time>
      </trkpt>
      <trkpt lat="62.634808395626" lon="17.964898693549">
        <ele>46.6</ele>
        <time>2018-02-19T18:08:17Z</time>
      </trkpt>
      <trkpt lat="62.634783417564" lon="17.964902884499">
        <ele>46.8</ele>
        <time>2018-02-19T18:08:18Z</time>
      </trkpt>
      <trkpt lat="62.634760954072" lon="17.964903555051">
        <ele>46.8</ele>
        <time>2018-02-19T18:08:19Z</time>
      </trkpt>
      <trkpt lat="62.634734886363" lon="17.964908081277">
        <ele>46.6</ele>
        <time>2018-02-19T18:08:20Z</time>
      </trkpt>
      <trkpt lat="62.634709489206" lon="17.964910009114">
        <ele>46.8</ele>
        <time>2018-02-19T18:08:21Z</time>
      </trkpt>
      <trkpt lat="62.634686019886" lon="17.96491285896">
        <ele>46.8</ele>
        <time>2018-02-19T18:08:22Z</time>
      </trkpt>
      <trkpt lat="62.634662047652" lon="17.964913278055">
        <ele>47</ele>
        <time>2018-02-19T18:08:23Z</time>
      </trkpt>
      <trkpt lat="62.634639165065" lon="17.964914954435">
        <ele>47</ele>
        <time>2018-02-19T18:08:24Z</time>
      </trkpt>
      <trkpt lat="62.634612594442" lon="17.964915708806">
        <ele>47</ele>
        <time>2018-02-19T18:08:25Z</time>
      </trkpt>
      <trkpt lat="62.634587700199" lon="17.96491034439">
        <ele>47</ele>
        <time>2018-02-19T18:08:26Z</time>
      </trkpt>
      <trkpt lat="62.634564733793" lon="17.964910763485">
        <ele>47</ele>
        <time>2018-02-19T18:08:27Z</time>
      </trkpt>
      <trkpt lat="62.634540510102" lon="17.964909925295">
        <ele>47.2</ele>
        <time>2018-02-19T18:08:28Z</time>
      </trkpt>
      <trkpt lat="62.634517711334" lon="17.964912439865">
        <ele>47.2</ele>
        <time>2018-02-19T18:08:29Z</time>
      </trkpt>
      <trkpt lat="62.634490889254" lon="17.964915122073">
        <ele>47.4</ele>
        <time>2018-02-19T18:08:30Z</time>
      </trkpt>
      <trkpt lat="62.634466246468" lon="17.964912523684">
        <ele>47.6</ele>
        <time>2018-02-19T18:08:31Z</time>
      </trkpt>
      <trkpt lat="62.634439172931" lon="17.96491369715">
        <ele>47.6</ele>
        <time>2018-02-19T18:08:32Z</time>
      </trkpt>
      <trkpt lat="62.634412602308" lon="17.964910847304">
        <ele>47.6</ele>
        <time>2018-02-19T18:08:33Z</time>
      </trkpt>
      <trkpt lat="62.634389300626" lon="17.964910009114">
        <ele>47.6</ele>
        <time>2018-02-19T18:08:34Z</time>
      </trkpt>
      <trkpt lat="62.63436381965" lon="17.964910595847">
        <ele>47.6</ele>
        <time>2018-02-19T18:08:35Z</time>
      </trkpt>
      <trkpt lat="62.634336746113" lon="17.964910512028">
        <ele>47.6</ele>
        <time>2018-02-19T18:08:36Z</time>
      </trkpt>
      <trkpt lat="62.634313276793" lon="17.964914200064">
        <ele>47.6</ele>
        <time>2018-02-19T18:08:37Z</time>
      </trkpt>
      <trkpt lat="62.634284694514" lon="17.964912439865">
        <ele>47.8</ele>
        <time>2018-02-19T18:08:38Z</time>
      </trkpt>
      <trkpt lat="62.634263069212" lon="17.964912775141">
        <ele>47.8</ele>
        <time>2018-02-19T18:08:39Z</time>
      </trkpt>
      <trkpt lat="62.634233984019" lon="17.964913278055">
        <ele>48</ele>
        <time>2018-02-19T18:08:40Z</time>
      </trkpt>
      <trkpt lat="62.634211185251" lon="17.964913780969">
        <ele>47.8</ele>
        <time>2018-02-19T18:08:41Z</time>
      </trkpt>
      <trkpt lat="62.634186039551" lon="17.964915624987">
        <ele>47.8</ele>
        <time>2018-02-19T18:08:42Z</time>
      </trkpt>
      <trkpt lat="62.634160307118" lon="17.964916295539">
        <ele>47.8</ele>
        <time>2018-02-19T18:08:43Z</time>
      </trkpt>
      <trkpt lat="62.634136837798" lon="17.96491956448">
        <ele>48</ele>
        <time>2018-02-19T18:08:44Z</time>
      </trkpt>
      <trkpt lat="62.634109680442" lon="17.964921073222">
        <ele>48.2</ele>
        <time>2018-02-19T18:08:45Z</time>
      </trkpt>
      <trkpt lat="62.634085875846" lon="17.964921911412">
        <ele>48</ele>
        <time>2018-02-19T18:08:46Z</time>
      </trkpt>
      <trkpt lat="62.634060562508" lon="17.964923336335">
        <ele>48</ele>
        <time>2018-02-19T18:08:47Z</time>
      </trkpt>
      <trkpt lat="62.634032650781" lon="17.964922833421">
        <ele>48.2</ele>
        <time>2018-02-19T18:08:48Z</time>
      </trkpt>
      <trkpt lat="62.634010354927" lon="17.964925683267">
        <ele>48.2</ele>
        <time>2018-02-19T18:08:49Z</time>
      </trkpt>
      <trkpt lat="62.633983868123" lon="17.964927862561">
        <ele>48.2</ele>
        <time>2018-02-19T18:08:50Z</time>
      </trkpt>
      <trkpt lat="62.633958219509" lon="17.964930041855">
        <ele>48.2</ele>
        <time>2018-02-19T18:08:51Z</time>
      </trkpt>
      <trkpt lat="62.633932906171" lon="17.96493046095">
        <ele>48.4</ele>
        <time>2018-02-19T18:08:52Z</time>
      </trkpt>
      <trkpt lat="62.633906670824" lon="17.964924928896">
        <ele>48.4</ele>
        <time>2018-02-19T18:08:53Z</time>
      </trkpt>
      <trkpt lat="62.633884877884" lon="17.964929119846">
        <ele>48.4</ele>
        <time>2018-02-19T18:08:54Z</time>
      </trkpt>
      <trkpt lat="62.633857217614" lon="17.964944793999">
        <ele>48.4</ele>
        <time>2018-02-19T18:08:55Z</time>
      </trkpt>
      <trkpt lat="62.633839447986" lon="17.964972454269">
        <ele>48.6</ele>
        <time>2018-02-19T18:08:56Z</time>
      </trkpt>
      <trkpt lat="62.633829808801" lon="17.965015788692">
        <ele>48.6</ele>
        <time>2018-02-19T18:08:57Z</time>
      </trkpt>
      <trkpt lat="62.63382737805" lon="17.965058871658">
        <ele>48.6</ele>
        <time>2018-02-19T18:08:58Z</time>
      </trkpt>
      <trkpt lat="62.633826623679" lon="17.965096925484">
        <ele>48.6</ele>
        <time>2018-02-19T18:08:59Z</time>
      </trkpt>
      <trkpt lat="62.63382486348" lon="17.965149312359">
        <ele>48.8</ele>
        <time>2018-02-19T18:09:00Z</time>
      </trkpt>
      <trkpt lat="62.633824109109" lon="17.965189294022">
        <ele>48.8</ele>
        <time>2018-02-19T18:09:01Z</time>
      </trkpt>
      <trkpt lat="62.633823773833" lon="17.965245368933">
        <ele>49</ele>
        <time>2018-02-19T18:09:02Z</time>
      </trkpt>
      <trkpt lat="62.633822181272" lon="17.965290379736">
        <ele>49.2</ele>
        <time>2018-02-19T18:09:03Z</time>
      </trkpt>
      <trkpt lat="62.633823103281" lon="17.965334133254">
        <ele>49.2</ele>
        <time>2018-02-19T18:09:04Z</time>
      </trkpt>
      <trkpt lat="62.633824612023" lon="17.965383418826">
        <ele>49.4</ele>
        <time>2018-02-19T18:09:05Z</time>
      </trkpt>
      <trkpt lat="62.633828719154" lon="17.965430776561">
        <ele>50</ele>
        <time>2018-02-19T18:09:06Z</time>
      </trkpt>
      <trkpt lat="62.633831401362" lon="17.965481487056">
        <ele>50.2</ele>
        <time>2018-02-19T18:09:07Z</time>
      </trkpt>
      <trkpt lat="62.63383492176" lon="17.965529682981">
        <ele>50.4</ele>
        <time>2018-02-19T18:09:08Z</time>
      </trkpt>
      <trkpt lat="62.633836849597" lon="17.965575364336">
        <ele>50.6</ele>
        <time>2018-02-19T18:09:09Z</time>
      </trkpt>
      <trkpt lat="62.633838945072" lon="17.96562699684">
        <ele>51</ele>
        <time>2018-02-19T18:09:10Z</time>
      </trkpt>
      <trkpt lat="62.6338399509" lon="17.965674941308">
        <ele>51.2</ele>
        <time>2018-02-19T18:09:11Z</time>
      </trkpt>
      <trkpt lat="62.633839531805" lon="17.965729926572">
        <ele>51.4</ele>
        <time>2018-02-19T18:09:12Z</time>
      </trkpt>
      <trkpt lat="62.633841962556" lon="17.965776529936">
        <ele>51.4</ele>
        <time>2018-02-19T18:09:13Z</time>
      </trkpt>
      <trkpt lat="62.633842214013" lon="17.965826066965">
        <ele>51.6</ele>
        <time>2018-02-19T18:09:14Z</time>
      </trkpt>
      <trkpt lat="62.633842297832" lon="17.965878118564">
        <ele>51.6</ele>
        <time>2018-02-19T18:09:15Z</time>
      </trkpt>
      <trkpt lat="62.633841375823" lon="17.965930505439">
        <ele>51.8</ele>
        <time>2018-02-19T18:09:16Z</time>
      </trkpt>
      <trkpt lat="62.633838525977" lon="17.96598406578">
        <ele>52</ele>
        <time>2018-02-19T18:09:17Z</time>
      </trkpt>
      <trkpt lat="62.633831736638" lon="17.966037626121">
        <ele>52</ele>
        <time>2018-02-19T18:09:18Z</time>
      </trkpt>
      <trkpt lat="62.63382067253" lon="17.966082050191">
        <ele>52.2</ele>
        <time>2018-02-19T18:09:19Z</time>
      </trkpt>
      <trkpt lat="62.633805333653" lon="17.96612320532">
        <ele>52.2</ele>
        <time>2018-02-19T18:09:20Z</time>
      </trkpt>
      <trkpt lat="62.633787480206" lon="17.966163354621">
        <ele>52.4</ele>
        <time>2018-02-19T18:09:21Z</time>
      </trkpt>
      <trkpt lat="62.633772308967" lon="17.966195541117">
        <ele>52.6</ele>
        <time>2018-02-19T18:09:22Z</time>
      </trkpt>
      <trkpt lat="62.633755628986" lon="17.966225632138">
        <ele>52.8</ele>
        <time>2018-02-19T18:09:23Z</time>
      </trkpt>
      <trkpt lat="62.633736937349" lon="17.966252621856">
        <ele>52.8</ele>
        <time>2018-02-19T18:09:24Z</time>
      </trkpt>
      <trkpt lat="62.63371506059" lon="17.966277935194">
        <ele>53.2</ele>
        <time>2018-02-19T18:09:25Z</time>
      </trkpt>
      <trkpt lat="62.63369075308" lon="17.966293860804">
        <ele>53.6</ele>
        <time>2018-02-19T18:09:26Z</time>
      </trkpt>
      <trkpt lat="62.633668289588" lon="17.96630173979">
        <ele>53.6</ele>
        <time>2018-02-19T18:09:27Z</time>
      </trkpt>
      <trkpt lat="62.63364465263" lon="17.96631263626">
        <ele>53.8</ele>
        <time>2018-02-19T18:09:28Z</time>
      </trkpt>
      <trkpt lat="62.633622692052" lon="17.966317413943">
        <ele>54</ele>
        <time>2018-02-19T18:09:29Z</time>
      </trkpt>
      <trkpt lat="62.633598468361" lon="17.966319593237">
        <ele>54.2</ele>
        <time>2018-02-19T18:09:30Z</time>
      </trkpt>
      <trkpt lat="62.633574663765" lon="17.966321269617">
        <ele>54</ele>
        <time>2018-02-19T18:09:31Z</time>
      </trkpt>
      <trkpt lat="62.633549769522" lon="17.966324622377">
        <ele>54.2</ele>
        <time>2018-02-19T18:09:32Z</time>
      </trkpt>
      <trkpt lat="62.633525797288" lon="17.966326969309">
        <ele>54.4</ele>
        <time>2018-02-19T18:09:33Z</time>
      </trkpt>
      <trkpt lat="62.633501992692" lon="17.966328058956">
        <ele>54.2</ele>
        <time>2018-02-19T18:09:34Z</time>
      </trkpt>
      <trkpt lat="62.633477936639" lon="17.966332082268">
        <ele>54</ele>
        <time>2018-02-19T18:09:35Z</time>
      </trkpt>
      <trkpt lat="62.63345019255" lon="17.966335099752">
        <ele>54.2</ele>
        <time>2018-02-19T18:09:36Z</time>
      </trkpt>
      <trkpt lat="62.633424124841" lon="17.966336776132">
        <ele>54.2</ele>
        <time>2018-02-19T18:09:37Z</time>
      </trkpt>
      <trkpt lat="62.633401074616" lon="17.966337614322">
        <ele>54.2</ele>
        <time>2018-02-19T18:09:38Z</time>
      </trkpt>
      <trkpt lat="62.633376264192" lon="17.966340715625">
        <ele>54</ele>
        <time>2018-02-19T18:09:39Z</time>
      </trkpt>
      <trkpt lat="62.633349274474" lon="17.966340967082">
        <ele>53.8</ele>
        <time>2018-02-19T18:09:40Z</time>
      </trkpt>
      <trkpt lat="62.633325469878" lon="17.966339374521">
        <ele>54</ele>
        <time>2018-02-19T18:09:41Z</time>
      </trkpt>
      <trkpt lat="62.633299737445" lon="17.966336608494">
        <ele>53.8</ele>
        <time>2018-02-19T18:09:42Z</time>
      </trkpt>
      <trkpt lat="62.633272831546" lon="17.966335015933">
        <ele>53.8</ele>
        <time>2018-02-19T18:09:43Z</time>
      </trkpt>
      <trkpt lat="62.63324651238" lon="17.966338787788">
        <ele>53.6</ele>
        <time>2018-02-19T18:09:44Z</time>
      </trkpt>
      <trkpt lat="62.633219271205" lon="17.966342475824">
        <ele>53.6</ele>
        <time>2018-02-19T18:09:45Z</time>
      </trkpt>
      <trkpt lat="62.633195047514" lon="17.966340967082">
        <ele>53.6</ele>
        <time>2018-02-19T18:09:46Z</time>
      </trkpt>
      <trkpt lat="62.633166549054" lon="17.966336440856">
        <ele>53.4</ele>
        <time>2018-02-19T18:09:47Z</time>
      </trkpt>
      <trkpt lat="62.633142325363" lon="17.966335351209">
        <ele>53.6</ele>
        <time>2018-02-19T18:09:48Z</time>
      </trkpt>
      <trkpt lat="62.633116760568" lon="17.966335937942">
        <ele>53.4</ele>
        <time>2018-02-19T18:09:49Z</time>
      </trkpt>
      <trkpt lat="62.633088262108" lon="17.966339625978">
        <ele>53.4</ele>
        <time>2018-02-19T18:09:50Z</time>
      </trkpt>
      <trkpt lat="62.633062278218" lon="17.966349851896">
        <ele>53.4</ele>
        <time>2018-02-19T18:09:51Z</time>
      </trkpt>
      <trkpt lat="62.633037467794" lon="17.96635454576">
        <ele>53.2</ele>
        <time>2018-02-19T18:09:52Z</time>
      </trkpt>
      <trkpt lat="62.633014836664" lon="17.966355132493">
        <ele>53</ele>
        <time>2018-02-19T18:09:53Z</time>
      </trkpt>
      <trkpt lat="62.632988433679" lon="17.966353204656">
        <ele>53</ele>
        <time>2018-02-19T18:09:54Z</time>
      </trkpt>
      <trkpt lat="62.632959683762" lon="17.96635370757">
        <ele>53.2</ele>
        <time>2018-02-19T18:09:55Z</time>
      </trkpt>
      <trkpt lat="62.63293302932" lon="17.966356305959">
        <ele>53.2</ele>
        <time>2018-02-19T18:09:56Z</time>
      </trkpt>
      <trkpt lat="62.632904698498" lon="17.966357479425">
        <ele>53</ele>
        <time>2018-02-19T18:09:57Z</time>
      </trkpt>
      <trkpt lat="62.632879888074" lon="17.966362592384">
        <ele>53</ele>
        <time>2018-02-19T18:09:58Z</time>
      </trkpt>
      <trkpt lat="62.632856334935" lon="17.966363682031">
        <ele>53</ele>
        <time>2018-02-19T18:09:59Z</time>
      </trkpt>
      <trkpt lat="62.632827333561" lon="17.966363598212">
        <ele>53</ele>
        <time>2018-02-19T18:10:00Z</time>
      </trkpt>
      <trkpt lat="62.632804031879" lon="17.966361921832">
        <ele>53</ele>
        <time>2018-02-19T18:10:01Z</time>
      </trkpt>
      <trkpt lat="62.63277461141" lon="17.96636208947">
        <ele>52.8</ele>
        <time>2018-02-19T18:10:02Z</time>
      </trkpt>
      <trkpt lat="62.632749717167" lon="17.966363682031">
        <ele>52.6</ele>
        <time>2018-02-19T18:10:03Z</time>
      </trkpt>
      <trkpt lat="62.632724655286" lon="17.966362592384">
        <ele>52.6</ele>
        <time>2018-02-19T18:10:04Z</time>
      </trkpt>
      <trkpt lat="62.632699425767" lon="17.966352282647">
        <ele>52.6</ele>
        <time>2018-02-19T18:10:05Z</time>
      </trkpt>
      <trkpt lat="62.632672519868" lon="17.966348175516">
        <ele>52.4</ele>
        <time>2018-02-19T18:10:06Z</time>
      </trkpt>
      <trkpt lat="62.632646619797" lon="17.966335770304">
        <ele>52.4</ele>
        <time>2018-02-19T18:10:07Z</time>
      </trkpt>
      <trkpt lat="62.632621809373" lon="17.966332836639">
        <ele>52.4</ele>
        <time>2018-02-19T18:10:08Z</time>
      </trkpt>
      <trkpt lat="62.632595657845" lon="17.966326634033">
        <ele>52.2</ele>
        <time>2018-02-19T18:10:09Z</time>
      </trkpt>
      <trkpt lat="62.632566907928" lon="17.966322023988">
        <ele>52.2</ele>
        <time>2018-02-19T18:10:10Z</time>
      </trkpt>
      <trkpt lat="62.632542265142" lon="17.966319090323">
        <ele>52.2</ele>
        <time>2018-02-19T18:10:11Z</time>
      </trkpt>
      <trkpt lat="62.632513515225" lon="17.966309702595">
        <ele>52</ele>
        <time>2018-02-19T18:10:12Z</time>
      </trkpt>
      <trkpt lat="62.632487866611" lon="17.966307020387">
        <ele>51.8</ele>
        <time>2018-02-19T18:10:13Z</time>
      </trkpt>
      <trkpt lat="62.632460709255" lon="17.966303080894">
        <ele>51.8</ele>
        <time>2018-02-19T18:10:14Z</time>
      </trkpt>
      <trkpt lat="62.632432965166" lon="17.966295285727">
        <ele>51.8</ele>
        <time>2018-02-19T18:10:15Z</time>
      </trkpt>
      <trkpt lat="62.632409579665" lon="17.966291849148">
        <ele>51.8</ele>
        <time>2018-02-19T18:10:16Z</time>
      </trkpt>
      <trkpt lat="62.632379572463" lon="17.966284556895">
        <ele>51.6</ele>
        <time>2018-02-19T18:10:17Z</time>
      </trkpt>
      <trkpt lat="62.632350738727" lon="17.966282712877">
        <ele>51.4</ele>
        <time>2018-02-19T18:10:18Z</time>
      </trkpt>
      <trkpt lat="62.632323581371" lon="17.966284724533">
        <ele>51.4</ele>
        <time>2018-02-19T18:10:19Z</time>
      </trkpt>
      <trkpt lat="62.632292735979" lon="17.966286987646">
        <ele>51.4</ele>
        <time>2018-02-19T18:10:20Z</time>
      </trkpt>
      <trkpt lat="62.63226583008" lon="17.966293441709">
        <ele>51.4</ele>
        <time>2018-02-19T18:10:21Z</time>
      </trkpt>
      <trkpt lat="62.632237918353" lon="17.966316240477">
        <ele>51.2</ele>
        <time>2018-02-19T18:10:22Z</time>
      </trkpt>
      <trkpt lat="62.632220064906" lon="17.966351360638">
        <ele>51</ele>
        <time>2018-02-19T18:10:23Z</time>
      </trkpt>
      <trkpt lat="62.632205564219" lon="17.966400897667">
        <ele>51</ele>
        <time>2018-02-19T18:10:24Z</time>
      </trkpt>
      <trkpt lat="62.632194500111" lon="17.966455715293">
        <ele>51</ele>
        <time>2018-02-19T18:10:25Z</time>
      </trkpt>
      <trkpt lat="62.632186788763" lon="17.966501564286">
        <ele>50.8</ele>
        <time>2018-02-19T18:10:26Z</time>
      </trkpt>
      <trkpt lat="62.632180921433" lon="17.966555627541">
        <ele>50.6</ele>
        <time>2018-02-19T18:10:27Z</time>
      </trkpt>
      <trkpt lat="62.6321803347" lon="17.966600470706">
        <ele>50.6</ele>
        <time>2018-02-19T18:10:28Z</time>
      </trkpt>
      <trkpt lat="62.632180586157" lon="17.966647325527">
        <ele>50.6</ele>
        <time>2018-02-19T18:10:29Z</time>
      </trkpt>
      <trkpt lat="62.632174886465" lon="17.966704322447">
        <ele>50.6</ele>
        <time>2018-02-19T18:10:30Z</time>
      </trkpt>
      <trkpt lat="62.632171701343" lon="17.966746734861">
        <ele>51</ele>
        <time>2018-02-19T18:10:31Z</time>
      </trkpt>
      <trkpt lat="62.632168683859" lon="17.966800965754">
        <ele>51</ele>
        <time>2018-02-19T18:10:32Z</time>
      </trkpt>
      <trkpt lat="62.632167929488" lon="17.966845641281">
        <ele>51.2</ele>
        <time>2018-02-19T18:10:33Z</time>
      </trkpt>
      <trkpt lat="62.632162397434" lon="17.966893669568">
        <ele>51.6</ele>
        <time>2018-02-19T18:10:34Z</time>
      </trkpt>
      <trkpt lat="62.632157284475" lon="17.966943206597">
        <ele>51.8</ele>
        <time>2018-02-19T18:10:35Z</time>
      </trkpt>
      <trkpt lat="62.632154099353" lon="17.966992240712">
        <ele>51.8</ele>
        <time>2018-02-19T18:10:36Z</time>
      </trkpt>
      <trkpt lat="62.632147393833" lon="17.967044879044">
        <ele>52</ele>
        <time>2018-02-19T18:10:37Z</time>
      </trkpt>
      <trkpt lat="62.632143538159" lon="17.967090895675">
        <ele>52.2</ele>
        <time>2018-02-19T18:10:38Z</time>
      </trkpt>
      <trkpt lat="62.632138592838" lon="17.96713825341">
        <ele>52.2</ele>
        <time>2018-02-19T18:10:39Z</time>
      </trkpt>
      <trkpt lat="62.632133144603" lon="17.967189550638">
        <ele>52.2</ele>
        <time>2018-02-19T18:10:40Z</time>
      </trkpt>
      <trkpt lat="62.632127947825" lon="17.96723380707">
        <ele>52.4</ele>
        <time>2018-02-19T18:10:41Z</time>
      </trkpt>
      <trkpt lat="62.632119063011" lon="17.967281164805">
        <ele>52.6</ele>
        <time>2018-02-19T18:10:42Z</time>
      </trkpt>
      <trkpt lat="62.632110262016" lon="17.967326594703">
        <ele>52.6</ele>
        <time>2018-02-19T18:10:43Z</time>
      </trkpt>
      <trkpt lat="62.632104478505" lon="17.967357356276">
        <ele>53</ele>
        <time>2018-02-19T18:10:44Z</time>
      </trkpt>
      <trkpt lat="62.632088301438" lon="17.967400271604">
        <ele>53.2</ele>
        <time>2018-02-19T18:10:45Z</time>
      </trkpt>
      <trkpt lat="62.632079500443" lon="17.967437990154">
        <ele>53.4</ele>
        <time>2018-02-19T18:10:46Z</time>
      </trkpt>
      <trkpt lat="62.632064077747" lon="17.967475289609">
        <ele>53.6</ele>
        <time>2018-02-19T18:10:47Z</time>
      </trkpt>
      <trkpt lat="62.63205041525" lon="17.967510745046">
        <ele>54</ele>
        <time>2018-02-19T18:10:48Z</time>
      </trkpt>
      <trkpt lat="62.632038429133" lon="17.967546871035">
        <ele>54.2</ele>
        <time>2018-02-19T18:10:49Z</time>
      </trkpt>
      <trkpt lat="62.632025940102" lon="17.96759087601">
        <ele>54.4</ele>
        <time>2018-02-19T18:10:50Z</time>
      </trkpt>
      <trkpt lat="62.632015043632" lon="17.967627085818">
        <ele>54.6</ele>
        <time>2018-02-19T18:10:51Z</time>
      </trkpt>
      <trkpt lat="62.632000710583" lon="17.967666983662">
        <ele>55</ele>
        <time>2018-02-19T18:10:52Z</time>
      </trkpt>
      <trkpt lat="62.631990652303" lon="17.967702103823">
        <ele>55.2</ele>
        <time>2018-02-19T18:10:53Z</time>
      </trkpt>
      <trkpt lat="62.631977325082" lon="17.967742672219">
        <ele>55.4</ele>
        <time>2018-02-19T18:10:54Z</time>
      </trkpt>
      <trkpt lat="62.631961986205" lon="17.967786425737">
        <ele>55.8</ele>
        <time>2018-02-19T18:10:55Z</time>
      </trkpt>
      <trkpt lat="62.631950251545" lon="17.967826575038">
        <ele>55.8</ele>
        <time>2018-02-19T18:10:56Z</time>
      </trkpt>
      <trkpt lat="62.631934493573" lon="17.967867813986">
        <ele>56</ele>
        <time>2018-02-19T18:10:57Z</time>
      </trkpt>
      <trkpt lat="62.631922088361" lon="17.96790687364">
        <ele>56.2</ele>
        <time>2018-02-19T18:10:58Z</time>
      </trkpt>
      <trkpt lat="62.631909096416" lon="17.967947861131">
        <ele>56.4</ele>
        <time>2018-02-19T18:10:59Z</time>
      </trkpt>
      <trkpt lat="62.631891745883" lon="17.967995637961">
        <ele>56.6</ele>
        <time>2018-02-19T18:11:00Z</time>
      </trkpt>
      <trkpt lat="62.631880933232" lon="17.968027070086">
        <ele>56.6</ele>
        <time>2018-02-19T18:11:01Z</time>
      </trkpt>
      <trkpt lat="62.631864001794" lon="17.968069398681">
        <ele>56.6</ele>
        <time>2018-02-19T18:11:02Z</time>
      </trkpt>
      <trkpt lat="62.631851512763" lon="17.968106279041">
        <ele>56.8</ele>
        <time>2018-02-19T18:11:03Z</time>
      </trkpt>
      <trkpt lat="62.631838939913" lon="17.968147182713">
        <ele>57</ele>
        <time>2018-02-19T18:11:04Z</time>
      </trkpt>
      <trkpt lat="62.631826115606" lon="17.96818766729">
        <ele>57.2</ele>
        <time>2018-02-19T18:11:05Z</time>
      </trkpt>
      <trkpt lat="62.631816308783" lon="17.968221781623">
        <ele>57.2</ele>
        <time>2018-02-19T18:11:06Z</time>
      </trkpt>
      <trkpt lat="62.631799544983" lon="17.968267882073">
        <ele>57.2</ele>
        <time>2018-02-19T18:11:07Z</time>
      </trkpt>
      <trkpt lat="62.631786301581" lon="17.968307779917">
        <ele>57.4</ele>
        <time>2018-02-19T18:11:08Z</time>
      </trkpt>
      <trkpt lat="62.631774818378" lon="17.968340050232">
        <ele>57.6</ele>
        <time>2018-02-19T18:11:09Z</time>
      </trkpt>
      <trkpt lat="62.631762748442" lon="17.968385563949">
        <ele>58</ele>
        <time>2018-02-19T18:11:10Z</time>
      </trkpt>
      <trkpt lat="62.631753863628" lon="17.968416409341">
        <ele>58.2</ele>
        <time>2018-02-19T18:11:11Z</time>
      </trkpt>
      <trkpt lat="62.631741709873" lon="17.96846426999">
        <ele>58.4</ele>
        <time>2018-02-19T18:11:12Z</time>
      </trkpt>
      <trkpt lat="62.631729304661" lon="17.968497881409">
        <ele>58.8</ele>
        <time>2018-02-19T18:11:13Z</time>
      </trkpt>
      <trkpt lat="62.631719414019" lon="17.968537443977">
        <ele>59.2</ele>
        <time>2018-02-19T18:11:14Z</time>
      </trkpt>
      <trkpt lat="62.631707846997" lon="17.968589663214">
        <ele>59.4</ele>
        <time>2018-02-19T18:11:15Z</time>
      </trkpt>
      <trkpt lat="62.631698878364" lon="17.968628136135">
        <ele>59.6</ele>
        <time>2018-02-19T18:11:16Z</time>
      </trkpt>
      <trkpt lat="62.631688736265" lon="17.968674571861">
        <ele>59.8</ele>
        <time>2018-02-19T18:11:17Z</time>
      </trkpt>
      <trkpt lat="62.631681527831" lon="17.968721175225">
        <ele>60.2</ele>
        <time>2018-02-19T18:11:18Z</time>
      </trkpt>
      <trkpt lat="62.631677923614" lon="17.968764844924">
        <ele>60.2</ele>
        <time>2018-02-19T18:11:19Z</time>
      </trkpt>
      <trkpt lat="62.631675073768" lon="17.968820081645">
        <ele>60.4</ele>
        <time>2018-02-19T18:11:20Z</time>
      </trkpt>
      <trkpt lat="62.631673481207" lon="17.968870121588">
        <ele>60.6</ele>
        <time>2018-02-19T18:11:21Z</time>
      </trkpt>
      <trkpt lat="62.631673732664" lon="17.968921334997">
        <ele>60.8</ele>
        <time>2018-02-19T18:11:22Z</time>
      </trkpt>
      <trkpt lat="62.631675325225" lon="17.968965004696">
        <ele>61</ele>
        <time>2018-02-19T18:11:23Z</time>
      </trkpt>
      <trkpt lat="62.631679264718" lon="17.969008171481">
        <ele>61.2</ele>
        <time>2018-02-19T18:11:24Z</time>
      </trkpt>
      <trkpt lat="62.63168496441" lon="17.969060055442">
        <ele>61.2</ele>
        <time>2018-02-19T18:11:25Z</time>
      </trkpt>
      <trkpt lat="62.631692089025" lon="17.969101713485">
        <ele>61.4</ele>
        <time>2018-02-19T18:11:26Z</time>
      </trkpt>
      <trkpt lat="62.631700387106" lon="17.969148400668">
        <ele>61.6</ele>
        <time>2018-02-19T18:11:27Z</time>
      </trkpt>
      <trkpt lat="62.631709607196" lon="17.969192321824">
        <ele>61.8</ele>
        <time>2018-02-19T18:11:28Z</time>
      </trkpt>
      <trkpt lat="62.631717067087" lon="17.969228028718">
        <ele>61.8</ele>
        <time>2018-02-19T18:11:29Z</time>
      </trkpt>
      <trkpt lat="62.631727376824" lon="17.969282175792">
        <ele>62</ele>
        <time>2018-02-19T18:11:30Z</time>
      </trkpt>
      <trkpt lat="62.631736764552" lon="17.969319726704">
        <ele>62.2</ele>
        <time>2018-02-19T18:11:31Z</time>
      </trkpt>
      <trkpt lat="62.631749253583" lon="17.969360043643">
        <ele>62.4</ele>
        <time>2018-02-19T18:11:32Z</time>
      </trkpt>
      <trkpt lat="62.631761574976" lon="17.969397929831">
        <ele>62.8</ele>
        <time>2018-02-19T18:11:33Z</time>
      </trkpt>
      <trkpt lat="62.631772890541" lon="17.969429361956">
        <ele>63</ele>
        <time>2018-02-19T18:11:34Z</time>
      </trkpt>
      <trkpt lat="62.631786720676" lon="17.969464314479">
        <ele>63.4</ele>
        <time>2018-02-19T18:11:35Z</time>
      </trkpt>
      <trkpt lat="62.631799964078" lon="17.969498428812">
        <ele>63.6</ele>
        <time>2018-02-19T18:11:36Z</time>
      </trkpt>
      <trkpt lat="62.631816224964" lon="17.969528352195">
        <ele>63.8</ele>
        <time>2018-02-19T18:11:37Z</time>
      </trkpt>
      <trkpt lat="62.63183416223" lon="17.969556934474">
        <ele>64</ele>
        <time>2018-02-19T18:11:38Z</time>
      </trkpt>
      <trkpt lat="62.631850842211" lon="17.969572524808">
        <ele>64</ele>
        <time>2018-02-19T18:11:39Z</time>
      </trkpt>
      <trkpt lat="62.631874060074" lon="17.969586857857">
        <ele>64.4</ele>
        <time>2018-02-19T18:11:40Z</time>
      </trkpt>
      <trkpt lat="62.631893925177" lon="17.969601190906">
        <ele>64.4</ele>
        <time>2018-02-19T18:11:41Z</time>
      </trkpt>
      <trkpt lat="62.63191630485" lon="17.969615356317">
        <ele>64.4</ele>
        <time>2018-02-19T18:11:42Z</time>
      </trkpt>
      <trkpt lat="62.631941618188" lon="17.969623067665">
        <ele>64.6</ele>
        <time>2018-02-19T18:11:43Z</time>
      </trkpt>
      <trkpt lat="62.631963494947" lon="17.969620888371">
        <ele>64.8</ele>
        <time>2018-02-19T18:11:44Z</time>
      </trkpt>
      <trkpt lat="62.631986880448" lon="17.969617032697">
        <ele>64.8</ele>
        <time>2018-02-19T18:11:45Z</time>
      </trkpt>
      <trkpt lat="62.632010265949" lon="17.969614182851">
        <ele>65</ele>
        <time>2018-02-19T18:11:46Z</time>
      </trkpt>
      <trkpt lat="62.632027532663" lon="17.969609069892">
        <ele>65</ele>
        <time>2018-02-19T18:11:47Z</time>
      </trkpt>
      <trkpt lat="62.632056701675" lon="17.969604962761">
        <ele>65</ele>
        <time>2018-02-19T18:11:48Z</time>
      </trkpt>
      <trkpt lat="62.632078829891" lon="17.969599849802">
        <ele>65.2</ele>
        <time>2018-02-19T18:11:49Z</time>
      </trkpt>
      <trkpt lat="62.632101880116" lon="17.969592809006">
        <ele>65.4</ele>
        <time>2018-02-19T18:11:50Z</time>
      </trkpt>
      <trkpt lat="62.63212501416" lon="17.969585181477">
        <ele>65.6</ele>
        <time>2018-02-19T18:11:51Z</time>
      </trkpt>
      <trkpt lat="62.632149992222" lon="17.969579817061">
        <ele>65.4</ele>
        <time>2018-02-19T18:11:52Z</time>
      </trkpt>
      <trkpt lat="62.632171617524" lon="17.969573614455">
        <ele>65.6</ele>
        <time>2018-02-19T18:11:53Z</time>
      </trkpt>
      <trkpt lat="62.632198607242" lon="17.969567747125">
        <ele>65.6</ele>
        <time>2018-02-19T18:11:54Z</time>
      </trkpt>
      <trkpt lat="62.632225010227" lon="17.969560538691">
        <ele>65.6</ele>
        <time>2018-02-19T18:11:55Z</time>
      </trkpt>
      <trkpt lat="62.632246300253" lon="17.969549474583">
        <ele>65.8</ele>
        <time>2018-02-19T18:11:56Z</time>
      </trkpt>
      <trkpt lat="62.632270943039" lon="17.969538242837">
        <ele>65.6</ele>
        <time>2018-02-19T18:11:57Z</time>
      </trkpt>
      <trkpt lat="62.632295837282" lon="17.969529777118">
        <ele>65.6</ele>
        <time>2018-02-19T18:11:58Z</time>
      </trkpt>
      <trkpt lat="62.632316456756" lon="17.969525250892">
        <ele>65.8</ele>
        <time>2018-02-19T18:11:59Z</time>
      </trkpt>
      <trkpt lat="62.632344368483" lon="17.96952206577">
        <ele>65.6</ele>
        <time>2018-02-19T18:12:00Z</time>
      </trkpt>
      <trkpt lat="62.632365993785" lon="17.96951619844">
        <ele>65.6</ele>
        <time>2018-02-19T18:12:01Z</time>
      </trkpt>
      <trkpt lat="62.632392145313" lon="17.969513767689">
        <ele>65.6</ele>
        <time>2018-02-19T18:12:02Z</time>
      </trkpt>
      <trkpt lat="62.632417374832" lon="17.969516617535">
        <ele>65.6</ele>
        <time>2018-02-19T18:12:03Z</time>
      </trkpt>
      <trkpt lat="62.632438413401" lon="17.969519132105">
        <ele>65.6</ele>
        <time>2018-02-19T18:12:04Z</time>
      </trkpt>
      <trkpt lat="62.632461212169" lon="17.969521814313">
        <ele>65.6</ele>
        <time>2018-02-19T18:12:05Z</time>
      </trkpt>
      <trkpt lat="62.632469677888" lon="17.969518545372">
        <ele>65.6</ele>
        <time>2018-02-19T18:12:06Z</time>
      </trkpt>
      <trkpt lat="62.632517873813" lon="17.969526340539">
        <ele>65.6</ele>
        <time>2018-02-19T18:12:07Z</time>
      </trkpt>
      <trkpt lat="62.632541426952" lon="17.969534387163">
        <ele>65.6</ele>
        <time>2018-02-19T18:12:08Z</time>
      </trkpt>
      <trkpt lat="62.632563638987" lon="17.969536901733">
        <ele>65.6</ele>
        <time>2018-02-19T18:12:09Z</time>
      </trkpt>
      <trkpt lat="62.632588617049" lon="17.969541260321">
        <ele>65.6</ele>
        <time>2018-02-19T18:12:10Z</time>
      </trkpt>
      <trkpt lat="62.632611751093" lon="17.969549977497">
        <ele>65.6</ele>
        <time>2018-02-19T18:12:11Z</time>
      </trkpt>
      <trkpt lat="62.632636226241" lon="17.969557437388">
        <ele>65.6</ele>
        <time>2018-02-19T18:12:12Z</time>
      </trkpt>
      <trkpt lat="62.632659947018" lon="17.96955978432">
        <ele>65.6</ele>
        <time>2018-02-19T18:12:13Z</time>
      </trkpt>
      <trkpt lat="62.632684003071" lon="17.969560957786">
        <ele>65.6</ele>
        <time>2018-02-19T18:12:14Z</time>
      </trkpt>
      <trkpt lat="62.632708059124" lon="17.969560873967">
        <ele>65.6</ele>
        <time>2018-02-19T18:12:15Z</time>
      </trkpt>
      <trkpt lat="62.632730019702" lon="17.969561125424">
        <ele>65.6</ele>
        <time>2018-02-19T18:12:16Z</time>
      </trkpt>
      <trkpt lat="62.632753991936" lon="17.96956397527">
        <ele>65.8</ele>
        <time>2018-02-19T18:12:17Z</time>
      </trkpt>
      <trkpt lat="62.632777880351" lon="17.96956900441">
        <ele>65.8</ele>
        <time>2018-02-19T18:12:18Z</time>
      </trkpt>
      <trkpt lat="62.632799589472" lon="17.969576631939">
        <ele>65.8</ele>
        <time>2018-02-19T18:12:19Z</time>
      </trkpt>
      <trkpt lat="62.632824567534" lon="17.969583756554">
        <ele>66</ele>
        <time>2018-02-19T18:12:20Z</time>
      </trkpt>
      <trkpt lat="62.632847366302" lon="17.969588785694">
        <ele>66</ele>
        <time>2018-02-19T18:12:21Z</time>
      </trkpt>
      <trkpt lat="62.632870919441" lon="17.969589037151">
        <ele>66</ele>
        <time>2018-02-19T18:12:22Z</time>
      </trkpt>
      <trkpt lat="62.632894640218" lon="17.969588701875">
        <ele>66</ele>
        <time>2018-02-19T18:12:23Z</time>
      </trkpt>
      <trkpt lat="62.632918193357" lon="17.969590545893">
        <ele>66.2</ele>
        <time>2018-02-19T18:12:24Z</time>
      </trkpt>
      <trkpt lat="62.632945015437" lon="17.969598005784">
        <ele>66.2</ele>
        <time>2018-02-19T18:12:25Z</time>
      </trkpt>
      <trkpt lat="62.632968820033" lon="17.969604878942">
        <ele>66.2</ele>
        <time>2018-02-19T18:12:26Z</time>
      </trkpt>
      <trkpt lat="62.632992373172" lon="17.969607142055">
        <ele>66.2</ele>
        <time>2018-02-19T18:12:27Z</time>
      </trkpt>
      <trkpt lat="62.6330185247" lon="17.969615356317">
        <ele>66.4</ele>
        <time>2018-02-19T18:12:28Z</time>
      </trkpt>
      <trkpt lat="62.633039060355" lon="17.969621056009">
        <ele>66.4</ele>
        <time>2018-02-19T18:12:29Z</time>
      </trkpt>
      <trkpt lat="62.63306462515" lon="17.969630276099">
        <ele>66.4</ele>
        <time>2018-02-19T18:12:30Z</time>
      </trkpt>
      <trkpt lat="62.633086669547" lon="17.96963773599">
        <ele>66.6</ele>
        <time>2018-02-19T18:12:31Z</time>
      </trkpt>
      <trkpt lat="62.633112821075" lon="17.969643016587">
        <ele>66.6</ele>
        <time>2018-02-19T18:12:32Z</time>
      </trkpt>
      <trkpt lat="62.63313670949" lon="17.969649973564">
        <ele>66.6</ele>
        <time>2018-02-19T18:12:33Z</time>
      </trkpt>
      <trkpt lat="62.633161519914" lon="17.96965533798">
        <ele>66.6</ele>
        <time>2018-02-19T18:12:34Z</time>
      </trkpt>
      <trkpt lat="62.633184989234" lon="17.969663300785">
        <ele>66.8</ele>
        <time>2018-02-19T18:12:35Z</time>
      </trkpt>
      <trkpt lat="62.633212733323" lon="17.969676544187">
        <ele>67</ele>
        <time>2018-02-19T18:12:36Z</time>
      </trkpt>
      <trkpt lat="62.633236873195" lon="17.969691547788">
        <ele>67</ele>
        <time>2018-02-19T18:12:37Z</time>
      </trkpt>
      <trkpt lat="62.633261515981" lon="17.969707473398">
        <ele>67</ele>
        <time>2018-02-19T18:12:38Z</time>
      </trkpt>
      <trkpt lat="62.633285236758" lon="17.969729517795">
        <ele>67</ele>
        <time>2018-02-19T18:12:39Z</time>
      </trkpt>
      <trkpt lat="62.633309795725" lon="17.969751897468">
        <ele>66.8</ele>
        <time>2018-02-19T18:12:40Z</time>
      </trkpt>
      <trkpt lat="62.633326475706" lon="17.969782072308">
        <ele>67</ele>
        <time>2018-02-19T18:12:41Z</time>
      </trkpt>
      <trkpt lat="62.633341144031" lon="17.969830603509">
        <ele>67</ele>
        <time>2018-02-19T18:12:42Z</time>
      </trkpt>
      <trkpt lat="62.633354303614" lon="17.969876201045">
        <ele>67</ele>
        <time>2018-02-19T18:12:43Z</time>
      </trkpt>
      <trkpt lat="62.633366960283" lon="17.969921295667">
        <ele>67</ele>
        <time>2018-02-19T18:12:44Z</time>
      </trkpt>
      <trkpt lat="62.633376683287" lon="17.969974353094">
        <ele>67.4</ele>
        <time>2018-02-19T18:12:45Z</time>
      </trkpt>
      <trkpt lat="62.633383807902" lon="17.970017603698">
        <ele>67.4</ele>
        <time>2018-02-19T18:12:46Z</time>
      </trkpt>
      <trkpt lat="62.633392022164" lon="17.970068984745">
        <ele>67.4</ele>
        <time>2018-02-19T18:12:47Z</time>
      </trkpt>
      <trkpt lat="62.633397051304" lon="17.97012388619">
        <ele>67.4</ele>
        <time>2018-02-19T18:12:48Z</time>
      </trkpt>
      <trkpt lat="62.633402331901" lon="17.970170992468">
        <ele>67.6</ele>
        <time>2018-02-19T18:12:49Z</time>
      </trkpt>
      <trkpt lat="62.63340660667" lon="17.970227570293">
        <ele>67.8</ele>
        <time>2018-02-19T18:12:50Z</time>
      </trkpt>
      <trkpt lat="62.63340828305" lon="17.970277358779">
        <ele>67.8</ele>
        <time>2018-02-19T18:12:51Z</time>
      </trkpt>
      <trkpt lat="62.633411971086" lon="17.970328991283">
        <ele>67.8</ele>
        <time>2018-02-19T18:12:52Z</time>
      </trkpt>
      <trkpt lat="62.633414066561" lon="17.970374002086">
        <ele>68</ele>
        <time>2018-02-19T18:12:53Z</time>
      </trkpt>
      <trkpt lat="62.633417000226" lon="17.970427646246">
        <ele>68.2</ele>
        <time>2018-02-19T18:12:54Z</time>
      </trkpt>
      <trkpt lat="62.633420520624" lon="17.970484391709">
        <ele>68.4</ele>
        <time>2018-02-19T18:12:55Z</time>
      </trkpt>
      <trkpt lat="62.633424460117" lon="17.970537616774">
        <ele>68.4</ele>
        <time>2018-02-19T18:12:56Z</time>
      </trkpt>
      <trkpt lat="62.633428818705" lon="17.970590338925">
        <ele>68.4</ele>
        <time>2018-02-19T18:12:57Z</time>
      </trkpt>
      <trkpt lat="62.633431920008" lon="17.970644150723">
        <ele>68.6</ele>
        <time>2018-02-19T18:12:58Z</time>
      </trkpt>
      <trkpt lat="62.633434518397" lon="17.970686479318">
        <ele>68.8</ele>
        <time>2018-02-19T18:12:59Z</time>
      </trkpt>
      <trkpt lat="62.633437871157" lon="17.970746409903">
        <ele>68.8</ele>
        <time>2018-02-19T18:13:00Z</time>
      </trkpt>
      <trkpt lat="62.633441307736" lon="17.970798545321">
        <ele>69</ele>
        <time>2018-02-19T18:13:01Z</time>
      </trkpt>
      <trkpt lat="62.633445917781" lon="17.970853446766">
        <ele>69.2</ele>
        <time>2018-02-19T18:13:02Z</time>
      </trkpt>
      <trkpt lat="62.633448767627" lon="17.970909689315">
        <ele>69.2</ele>
        <time>2018-02-19T18:13:03Z</time>
      </trkpt>
      <trkpt lat="62.63345019255" lon="17.970959226344">
        <ele>69.4</ele>
        <time>2018-02-19T18:13:04Z</time>
      </trkpt>
      <trkpt lat="62.633452539482" lon="17.971013541056">
        <ele>69.6</ele>
        <time>2018-02-19T18:13:05Z</time>
      </trkpt>
      <trkpt lat="62.633453377672" lon="17.97107607003">
        <ele>69.6</ele>
        <time>2018-02-19T18:13:06Z</time>
      </trkpt>
      <trkpt lat="62.633456478975" lon="17.971128624543">
        <ele>69.6</ele>
        <time>2018-02-19T18:13:07Z</time>
      </trkpt>
      <trkpt lat="62.633456730432" lon="17.97118587292">
        <ele>69.6</ele>
        <time>2018-02-19T18:13:08Z</time>
      </trkpt>
      <trkpt lat="62.633457233346" lon="17.971237253967">
        <ele>69.8</ele>
        <time>2018-02-19T18:13:09Z</time>
      </trkpt>
      <trkpt lat="62.633457568622" lon="17.971296681638">
        <ele>70</ele>
        <time>2018-02-19T18:13:10Z</time>
      </trkpt>
      <trkpt lat="62.63345689807" lon="17.971351163988">
        <ele>70</ele>
        <time>2018-02-19T18:13:11Z</time>
      </trkpt>
      <trkpt lat="62.633455640785" lon="17.97140799327">
        <ele>70</ele>
        <time>2018-02-19T18:13:12Z</time>
      </trkpt>
      <trkpt lat="62.633453461491" lon="17.971466331294">
        <ele>70</ele>
        <time>2018-02-19T18:13:13Z</time>
      </trkpt>
      <trkpt lat="62.633453293853" lon="17.971517879979">
        <ele>70.2</ele>
        <time>2018-02-19T18:13:14Z</time>
      </trkpt>
      <trkpt lat="62.633454551138" lon="17.971579067849">
        <ele>70.4</ele>
        <time>2018-02-19T18:13:15Z</time>
      </trkpt>
      <trkpt lat="62.633452204206" lon="17.971634472208">
        <ele>70.4</ele>
        <time>2018-02-19T18:13:16Z</time>
      </trkpt>
      <trkpt lat="62.633450444007" lon="17.971689289834">
        <ele>70.4</ele>
        <time>2018-02-19T18:13:17Z</time>
      </trkpt>
      <trkpt lat="62.633446504514" lon="17.971750896799">
        <ele>70.6</ele>
        <time>2018-02-19T18:13:18Z</time>
      </trkpt>
      <trkpt lat="62.633441391555" lon="17.971800936742">
        <ele>70.6</ele>
        <time>2018-02-19T18:13:19Z</time>
      </trkpt>
      <trkpt lat="62.633436530053" lon="17.971858604214">
        <ele>70.8</ele>
        <time>2018-02-19T18:13:20Z</time>
      </trkpt>
      <trkpt lat="62.633430159809" lon="17.971917109876">
        <ele>71</ele>
        <time>2018-02-19T18:13:21Z</time>
      </trkpt>
      <trkpt lat="62.633425549764" lon="17.97196790419">
        <ele>71</ele>
        <time>2018-02-19T18:13:22Z</time>
      </trkpt>
      <trkpt lat="62.633420352986" lon="17.972014423735">
        <ele>71</ele>
        <time>2018-02-19T18:13:23Z</time>
      </trkpt>
      <trkpt lat="62.633410881439" lon="17.97207183975">
        <ele>71.2</ele>
        <time>2018-02-19T18:13:24Z</time>
      </trkpt>
      <trkpt lat="62.633403505367" lon="17.97212799848">
        <ele>71.6</ele>
        <time>2018-02-19T18:13:25Z</time>
      </trkpt>
      <trkpt lat="62.633395961657" lon="17.972183151382">
        <ele>71.4</ele>
        <time>2018-02-19T18:13:26Z</time>
      </trkpt>
      <trkpt lat="62.633389591413" lon="17.972234280972">
        <ele>71.6</ele>
        <time>2018-02-19T18:13:27Z</time>
      </trkpt>
      <trkpt lat="62.633383221169" lon="17.972287506037">
        <ele>71.8</ele>
        <time>2018-02-19T18:13:28Z</time>
      </trkpt>
      <trkpt lat="62.63337643183" lon="17.972333774125">
        <ele>72</ele>
        <time>2018-02-19T18:13:29Z</time>
      </trkpt>
      <trkpt lat="62.63336721174" lon="17.972389932855">
        <ele>72</ele>
        <time>2018-02-19T18:13:30Z</time>
      </trkpt>
      <trkpt lat="62.633357656374" lon="17.97244315792">
        <ele>71.8</ele>
        <time>2018-02-19T18:13:31Z</time>
      </trkpt>
      <trkpt lat="62.633348352465" lon="17.9724951257">
        <ele>72</ele>
        <time>2018-02-19T18:13:32Z</time>
      </trkpt>
      <trkpt lat="62.633339467651" lon="17.972548434584">
        <ele>72.2</ele>
        <time>2018-02-19T18:13:33Z</time>
      </trkpt>
      <trkpt lat="62.633328906457" lon="17.972596798147">
        <ele>72.2</ele>
        <time>2018-02-19T18:13:34Z</time>
      </trkpt>
      <trkpt lat="62.633318429082" lon="17.972645580805">
        <ele>72.2</ele>
        <time>2018-02-19T18:13:35Z</time>
      </trkpt>
      <trkpt lat="62.633306359146" lon="17.972705092295">
        <ele>72.2</ele>
        <time>2018-02-19T18:13:36Z</time>
      </trkpt>
      <trkpt lat="62.633296719961" lon="17.97275664098">
        <ele>72.4</ele>
        <time>2018-02-19T18:13:37Z</time>
      </trkpt>
      <trkpt lat="62.63328506912" lon="17.972806848561">
        <ele>72.4</ele>
        <time>2018-02-19T18:13:38Z</time>
      </trkpt>
      <trkpt lat="62.633272999184" lon="17.972858397246">
        <ele>72.4</ele>
        <time>2018-02-19T18:13:39Z</time>
      </trkpt>
      <trkpt lat="62.633260342515" lon="17.972913047234">
        <ele>72.6</ele>
        <time>2018-02-19T18:13:40Z</time>
      </trkpt>
      <trkpt lat="62.633248104941" lon="17.972962500444">
        <ele>72.8</ele>
        <time>2018-02-19T18:13:41Z</time>
      </trkpt>
      <trkpt lat="62.6332364541" lon="17.973017485708">
        <ele>72.6</ele>
        <time>2018-02-19T18:13:42Z</time>
      </trkpt>
      <trkpt lat="62.633225306173" lon="17.973067525651">
        <ele>73</ele>
        <time>2018-02-19T18:13:43Z</time>
      </trkpt>
      <trkpt lat="62.63321382297" lon="17.973115889214">
        <ele>73.2</ele>
        <time>2018-02-19T18:13:44Z</time>
      </trkpt>
      <trkpt lat="62.633203429414" lon="17.97317154503">
        <ele>73</ele>
        <time>2018-02-19T18:13:45Z</time>
      </trkpt>
      <trkpt lat="62.633191946211" lon="17.97322099824">
        <ele>73.2</ele>
        <time>2018-02-19T18:13:46Z</time>
      </trkpt>
      <trkpt lat="62.633180043913" lon="17.973269780898">
        <ele>73.2</ele>
        <time>2018-02-19T18:13:47Z</time>
      </trkpt>
      <trkpt lat="62.633167890158" lon="17.973326274904">
        <ele>73.6</ele>
        <time>2018-02-19T18:13:48Z</time>
      </trkpt>
      <trkpt lat="62.633155065851" lon="17.973378661779">
        <ele>73.6</ele>
        <time>2018-02-19T18:13:49Z</time>
      </trkpt>
      <trkpt lat="62.633142493001" lon="17.973433730862">
        <ele>73.4</ele>
        <time>2018-02-19T18:13:50Z</time>
      </trkpt>
      <trkpt lat="62.63313000397" lon="17.973488045574">
        <ele>73.4</ele>
        <time>2018-02-19T18:13:51Z</time>
      </trkpt>
      <trkpt lat="62.633119191319" lon="17.973539426621">
        <ele>73.6</ele>
        <time>2018-02-19T18:13:52Z</time>
      </trkpt>
      <trkpt lat="62.633109216858" lon="17.973583012501">
        <ele>73.8</ele>
        <time>2018-02-19T18:13:53Z</time>
      </trkpt>
      <trkpt lat="62.633094883809" lon="17.973637746308">
        <ele>73.8</ele>
        <time>2018-02-19T18:13:54Z</time>
      </trkpt>
      <trkpt lat="62.63308306533" lon="17.973686696604">
        <ele>73.8</ele>
        <time>2018-02-19T18:13:55Z</time>
      </trkpt>
      <trkpt lat="62.63307049248" lon="17.973740927497">
        <ele>73.8</ele>
        <time>2018-02-19T18:13:56Z</time>
      </trkpt>
      <trkpt lat="62.633056159431" lon="17.973800103711">
        <ele>74</ele>
        <time>2018-02-19T18:13:57Z</time>
      </trkpt>
      <trkpt lat="62.633047442255" lon="17.973846204161">
        <ele>74.2</ele>
        <time>2018-02-19T18:13:58Z</time>
      </trkpt>
      <trkpt lat="62.633030091722" lon="17.973912002076">
        <ele>74.4</ele>
        <time>2018-02-19T18:13:59Z</time>
      </trkpt>
      <trkpt lat="62.633021374546" lon="17.973945445857">
        <ele>74.4</ele>
        <time>2018-02-19T18:14:00Z</time>
      </trkpt>
      <trkpt lat="62.63300762823" lon="17.974012333419">
        <ele>74.4</ele>
        <time>2018-02-19T18:14:01Z</time>
      </trkpt>
      <trkpt lat="62.63299421719" lon="17.974063043914">
        <ele>74.6</ele>
        <time>2018-02-19T18:14:02Z</time>
      </trkpt>
      <trkpt lat="62.632980219417" lon="17.974114844056">
        <ele>74.8</ele>
        <time>2018-02-19T18:14:03Z</time>
      </trkpt>
      <trkpt lat="62.632965299635" lon="17.974166644198">
        <ele>74.8</ele>
        <time>2018-02-19T18:14:04Z</time>
      </trkpt>
      <trkpt lat="62.632954067889" lon="17.974213079924">
        <ele>74.8</ele>
        <time>2018-02-19T18:14:05Z</time>
      </trkpt>
      <trkpt lat="62.632939315745" lon="17.974272423776">
        <ele>75</ele>
        <time>2018-02-19T18:14:06Z</time>
      </trkpt>
      <trkpt lat="62.632924228325" lon="17.974319194778">
        <ele>75.4</ele>
        <time>2018-02-19T18:14:07Z</time>
      </trkpt>
      <trkpt lat="62.632907296887" lon="17.974364624676">
        <ele>75.2</ele>
        <time>2018-02-19T18:14:08Z</time>
      </trkpt>
      <trkpt lat="62.632888856707" lon="17.974408462013">
        <ele>75.2</ele>
        <time>2018-02-19T18:14:09Z</time>
      </trkpt>
      <trkpt lat="62.632870835622" lon="17.974454478644">
        <ele>75.2</ele>
        <time>2018-02-19T18:14:10Z</time>
      </trkpt>
      <trkpt lat="62.632846779569" lon="17.974487251873">
        <ele>75.2</ele>
        <time>2018-02-19T18:14:11Z</time>
      </trkpt>
      <trkpt lat="62.632814509254" lon="17.974506697881">
        <ele>75.4</ele>
        <time>2018-02-19T18:14:12Z</time>
      </trkpt>
      <trkpt lat="62.632787854812" lon="17.974518013446">
        <ele>75.4</ele>
        <time>2018-02-19T18:14:13Z</time>
      </trkpt>
      <trkpt lat="62.632758601981" lon="17.974519606007">
        <ele>75.2</ele>
        <time>2018-02-19T18:14:14Z</time>
      </trkpt>
      <trkpt lat="62.632731696082" lon="17.974516504704">
        <ele>75.2</ele>
        <time>2018-02-19T18:14:15Z</time>
      </trkpt>
      <trkpt lat="62.632708478219" lon="17.974503764216">
        <ele>75.4</ele>
        <time>2018-02-19T18:14:16Z</time>
      </trkpt>
      <trkpt lat="62.63268995422" lon="17.974484318208">
        <ele>75.4</ele>
        <time>2018-02-19T18:14:17Z</time>
      </trkpt>
      <trkpt lat="62.632662629226" lon="17.974455065377">
        <ele>75.4</ele>
        <time>2018-02-19T18:14:18Z</time>
      </trkpt>
      <trkpt lat="62.632640584829" lon="17.974432853342">
        <ele>75.4</ele>
        <time>2018-02-19T18:14:19Z</time>
      </trkpt>
      <trkpt lat="62.632618037518" lon="17.97440452252">
        <ele>75.4</ele>
        <time>2018-02-19T18:14:20Z</time>
      </trkpt>
      <trkpt lat="62.632597334225" lon="17.974380298829">
        <ele>75.6</ele>
        <time>2018-02-19T18:14:21Z</time>
      </trkpt>
      <trkpt lat="62.632572356163" lon="17.974352387102">
        <ele>75.6</ele>
        <time>2018-02-19T18:14:22Z</time>
      </trkpt>
      <trkpt lat="62.632552910155" lon="17.974328498687">
        <ele>75.6</ele>
        <time>2018-02-19T18:14:23Z</time>
      </trkpt>
      <trkpt lat="62.632528770283" lon="17.974301257512">
        <ele>75.8</ele>
        <time>2018-02-19T18:14:24Z</time>
      </trkpt>
      <trkpt lat="62.632503289307" lon="17.974271837043">
        <ele>75.6</ele>
        <time>2018-02-19T18:14:25Z</time>
      </trkpt>
      <trkpt lat="62.632486441688" lon="17.974239566728">
        <ele>75.8</ele>
        <time>2018-02-19T18:14:26Z</time>
      </trkpt>
      <trkpt lat="62.632463475282" lon="17.974224144032">
        <ele>75.6</ele>
        <time>2018-02-19T18:14:27Z</time>
      </trkpt>
      <trkpt lat="62.632436401745" lon="17.974198998332">
        <ele>75.6</ele>
        <time>2018-02-19T18:14:28Z</time>
      </trkpt>
      <trkpt lat="62.632418213022" lon="17.97417569665">
        <ele>75.6</ele>
        <time>2018-02-19T18:14:29Z</time>
      </trkpt>
      <trkpt lat="62.632392312951" lon="17.974155496271">
        <ele>75.6</ele>
        <time>2018-02-19T18:14:30Z</time>
      </trkpt>
      <trkpt lat="62.63236976564" lon="17.974129512381">
        <ele>75.6</ele>
        <time>2018-02-19T18:14:31Z</time>
      </trkpt>
      <trkpt lat="62.632349313804" lon="17.974105959242">
        <ele>75.6</ele>
        <time>2018-02-19T18:14:32Z</time>
      </trkpt>
      <trkpt lat="62.632325676846" lon="17.974089446899">
        <ele>75.6</ele>
        <time>2018-02-19T18:14:33Z</time>
      </trkpt>
      <trkpt lat="62.632300698784" lon="17.974063546828">
        <ele>75.6</ele>
        <time>2018-02-19T18:14:34Z</time>
      </trkpt>
      <trkpt lat="62.632276558912" lon="17.974036724748">
        <ele>75.6</ele>
        <time>2018-02-19T18:14:35Z</time>
      </trkpt>
      <trkpt lat="62.632250994117" lon="17.974007052822">
        <ele>75.6</ele>
        <time>2018-02-19T18:14:36Z</time>
      </trkpt>
      <trkpt lat="62.632228027711" lon="17.973975788335">
        <ele>75.6</ele>
        <time>2018-02-19T18:14:37Z</time>
      </trkpt>
      <trkpt lat="62.63220631859" lon="17.973964305132">
        <ele>75.6</ele>
        <time>2018-02-19T18:14:38Z</time>
      </trkpt>
      <trkpt lat="62.632180418519" lon="17.973945362038">
        <ele>75.6</ele>
        <time>2018-02-19T18:14:39Z</time>
      </trkpt>
      <trkpt lat="62.632152339154" lon="17.973920132519">
        <ele>75.4</ele>
        <time>2018-02-19T18:14:40Z</time>
      </trkpt>
      <trkpt lat="62.632128786015" lon="17.973901189425">
        <ele>75.4</ele>
        <time>2018-02-19T18:14:41Z</time>
      </trkpt>
      <trkpt lat="62.632100874288" lon="17.973869924938">
        <ele>75.6</ele>
        <time>2018-02-19T18:14:42Z</time>
      </trkpt>
      <trkpt lat="62.632078662253" lon="17.973835978243">
        <ele>75.4</ele>
        <time>2018-02-19T18:14:43Z</time>
      </trkpt>
      <trkpt lat="62.63205963534" lon="17.973810832543">
        <ele>75.4</ele>
        <time>2018-02-19T18:14:44Z</time>
      </trkpt>
      <trkpt lat="62.632032142708" lon="17.973777137305">
        <ele>75.4</ele>
        <time>2018-02-19T18:14:45Z</time>
      </trkpt>
      <trkpt lat="62.632009930673" lon="17.973751069596">
        <ele>75.4</ele>
        <time>2018-02-19T18:14:46Z</time>
      </trkpt>
      <trkpt lat="62.63198503643" lon="17.973732042683">
        <ele>75.4</ele>
        <time>2018-02-19T18:14:47Z</time>
      </trkpt>
      <trkpt lat="62.631959303997" lon="17.973699520911">
        <ele>75.4</ele>
        <time>2018-02-19T18:14:48Z</time>
      </trkpt>
      <trkpt lat="62.631938013971" lon="17.973679320532">
        <ele>75.4</ele>
        <time>2018-02-19T18:14:49Z</time>
      </trkpt>
      <trkpt lat="62.631911359529" lon="17.973648056045">
        <ele>75.4</ele>
        <time>2018-02-19T18:14:50Z</time>
      </trkpt>
      <trkpt lat="62.631884537449" lon="17.973620228137">
        <ele>75.6</ele>
        <time>2018-02-19T18:14:51Z</time>
      </trkpt>
      <trkpt lat="62.631861990138" lon="17.97359566917">
        <ele>75.6</ele>
        <time>2018-02-19T18:14:52Z</time>
      </trkpt>
      <trkpt lat="62.63184002956" lon="17.973565745787">
        <ele>75.4</ele>
        <time>2018-02-19T18:14:53Z</time>
      </trkpt>
      <trkpt lat="62.631813291299" lon="17.97353783406">
        <ele>75.6</ele>
        <time>2018-02-19T18:14:54Z</time>
      </trkpt>
      <trkpt lat="62.631787977961" lon="17.973509754695">
        <ele>75.6</ele>
        <time>2018-02-19T18:14:55Z</time>
      </trkpt>
      <trkpt lat="62.631760317691" lon="17.973476730009">
        <ele>75.6</ele>
        <time>2018-02-19T18:14:56Z</time>
      </trkpt>
      <trkpt lat="62.631738189475" lon="17.97344730954">
        <ele>75.4</ele>
        <time>2018-02-19T18:14:57Z</time>
      </trkpt>
      <trkpt lat="62.631714049603" lon="17.973413698121">
        <ele>75.4</ele>
        <time>2018-02-19T18:14:58Z</time>
      </trkpt>
      <trkpt lat="62.631694687414" lon="17.973382852729">
        <ele>75.4</ele>
        <time>2018-02-19T18:14:59Z</time>
      </trkpt>
      <trkpt lat="62.631670547542" lon="17.973346391464">
        <ele>75.4</ele>
        <time>2018-02-19T18:15:00Z</time>
      </trkpt>
      <trkpt lat="62.631649676611" lon="17.973310349294">
        <ele>75.4</ele>
        <time>2018-02-19T18:15:01Z</time>
      </trkpt>
      <trkpt lat="62.631625369101" lon="17.973268523613">
        <ele>75.4</ele>
        <time>2018-02-19T18:15:02Z</time>
      </trkpt>
      <trkpt lat="62.63160449817" lon="17.973236420936">
        <ele>75.4</ele>
        <time>2018-02-19T18:15:03Z</time>
      </trkpt>
      <trkpt lat="62.631582034678" lon="17.973197193644">
        <ele>75.4</ele>
        <time>2018-02-19T18:15:04Z</time>
      </trkpt>
      <trkpt lat="62.63156175048" lon="17.973150841737">
        <ele>75.2</ele>
        <time>2018-02-19T18:15:05Z</time>
      </trkpt>
      <trkpt lat="62.631541214825" lon="17.973103484002">
        <ele>75</ele>
        <time>2018-02-19T18:15:06Z</time>
      </trkpt>
      <trkpt lat="62.631519338066" lon="17.973054030792">
        <ele>74.6</ele>
        <time>2018-02-19T18:15:07Z</time>
      </trkpt>
      <trkpt lat="62.631496874574" lon="17.973006337781">
        <ele>74.6</ele>
        <time>2018-02-19T18:15:08Z</time>
      </trkpt>
      <trkpt lat="62.631479188765" lon="17.972969708878">
        <ele>74.4</ele>
        <time>2018-02-19T18:15:09Z</time>
      </trkpt>
      <trkpt lat="62.631458820748" lon="17.972910281207">
        <ele>74.2</ele>
        <time>2018-02-19T18:15:10Z</time>
      </trkpt>
      <trkpt lat="62.631441973129" lon="17.972864851309">
        <ele>74</ele>
        <time>2018-02-19T18:15:11Z</time>
      </trkpt>
      <trkpt lat="62.631422778578" lon="17.972816068651">
        <ele>74.2</ele>
        <time>2018-02-19T18:15:12Z</time>
      </trkpt>
      <trkpt lat="62.631400818" lon="17.972757730627">
        <ele>74</ele>
        <time>2018-02-19T18:15:13Z</time>
      </trkpt>
      <trkpt lat="62.631385227666" lon="17.972713138919">
        <ele>73.6</ele>
        <time>2018-02-19T18:15:14Z</time>
      </trkpt>
      <trkpt lat="62.631366200753" lon="17.97266444008">
        <ele>73.6</ele>
        <time>2018-02-19T18:15:15Z</time>
      </trkpt>
      <trkpt lat="62.631346503288" lon="17.97261331049">
        <ele>73.6</ele>
        <time>2018-02-19T18:15:16Z</time>
      </trkpt>
      <trkpt lat="62.63132789547" lon="17.972565617479">
        <ele>73.4</ele>
        <time>2018-02-19T18:15:17Z</time>
      </trkpt>
      <trkpt lat="62.631309120014" lon="17.972511470405">
        <ele>73.2</ele>
        <time>2018-02-19T18:15:18Z</time>
      </trkpt>
      <trkpt lat="62.631292020938" lon="17.972464196489">
        <ele>73</ele>
        <time>2018-02-19T18:15:19Z</time>
      </trkpt>
      <trkpt lat="62.631272072016" lon="17.972410384691">
        <ele>72.8</ele>
        <time>2018-02-19T18:15:20Z</time>
      </trkpt>
      <trkpt lat="62.631254637664" lon="17.972353136314">
        <ele>72.8</ele>
        <time>2018-02-19T18:15:21Z</time>
      </trkpt>
      <trkpt lat="62.631236951855" lon="17.972305527122">
        <ele>72.6</ele>
        <time>2018-02-19T18:15:22Z</time>
      </trkpt>
      <trkpt lat="62.63122312172" lon="17.972263366165">
        <ele>72.2</ele>
        <time>2018-02-19T18:15:23Z</time>
      </trkpt>
      <trkpt lat="62.631205100635" lon="17.972204692865">
        <ele>72.2</ele>
        <time>2018-02-19T18:15:24Z</time>
      </trkpt>
      <trkpt lat="62.631190013215" lon="17.972149288506">
        <ele>72.2</ele>
        <time>2018-02-19T18:15:25Z</time>
      </trkpt>
      <trkpt lat="62.631173584691" lon="17.972094219423">
        <ele>72</ele>
        <time>2018-02-19T18:15:26Z</time>
      </trkpt>
      <trkpt lat="62.631158245814" lon="17.972036468132">
        <ele>71.8</ele>
        <time>2018-02-19T18:15:27Z</time>
      </trkpt>
      <trkpt lat="62.631143912765" lon="17.971990786777">
        <ele>71.8</ele>
        <time>2018-02-19T18:15:28Z</time>
      </trkpt>
      <trkpt lat="62.631132094286" lon="17.971938651359">
        <ele>71.6</ele>
        <time>2018-02-19T18:15:29Z</time>
      </trkpt>
      <trkpt lat="62.631114324658" lon="17.971874697462">
        <ele>71.6</ele>
        <time>2018-02-19T18:15:30Z</time>
      </trkpt>
      <trkpt lat="62.631099740152" lon="17.971827172089">
        <ele>71.4</ele>
        <time>2018-02-19T18:15:31Z</time>
      </trkpt>
      <trkpt lat="62.631085239465" lon="17.971761457993">
        <ele>71.4</ele>
        <time>2018-02-19T18:15:32Z</time>
      </trkpt>
      <trkpt lat="62.631073840081" lon="17.971707897652">
        <ele>71.2</ele>
        <time>2018-02-19T18:15:33Z</time>
      </trkpt>
      <trkpt lat="62.63106135105" lon="17.97166028846">
        <ele>71</ele>
        <time>2018-02-19T18:15:34Z</time>
      </trkpt>
      <trkpt lat="62.631049784028" lon="17.971597508029">
        <ele>71</ele>
        <time>2018-02-19T18:15:35Z</time>
      </trkpt>
      <trkpt lat="62.631038468463" lon="17.971534979055">
        <ele>70.8</ele>
        <time>2018-02-19T18:15:36Z</time>
      </trkpt>
      <trkpt lat="62.631028074907" lon="17.971472617719">
        <ele>70.6</ele>
        <time>2018-02-19T18:15:37Z</time>
      </trkpt>
      <trkpt lat="62.631019106274" lon="17.971410340202">
        <ele>70.6</ele>
        <time>2018-02-19T18:15:38Z</time>
      </trkpt>
      <trkpt lat="62.631011394926" lon="17.971362982467">
        <ele>70.6</ele>
        <time>2018-02-19T18:15:39Z</time>
      </trkpt>
      <trkpt lat="62.631000330818" lon="17.971297184552">
        <ele>70.4</ele>
        <time>2018-02-19T18:15:40Z</time>
      </trkpt>
      <trkpt lat="62.630994631126" lon="17.97125711907">
        <ele>70.4</ele>
        <time>2018-02-19T18:15:41Z</time>
      </trkpt>
      <trkpt lat="62.630983231742" lon="17.971182855436">
        <ele>70.4</ele>
        <time>2018-02-19T18:15:42Z</time>
      </trkpt>
      <trkpt lat="62.630978537878" lon="17.971130384742">
        <ele>70.2</ele>
        <time>2018-02-19T18:15:43Z</time>
      </trkpt>
      <trkpt lat="62.630970407435" lon="17.971065844112">
        <ele>70.2</ele>
        <time>2018-02-19T18:15:44Z</time>
      </trkpt>
      <trkpt lat="62.630960432974" lon="17.97100566207">
        <ele>70</ele>
        <time>2018-02-19T18:15:45Z</time>
      </trkpt>
      <trkpt lat="62.630951967255" lon="17.970940199431">
        <ele>69.8</ele>
        <time>2018-02-19T18:15:46Z</time>
      </trkpt>
      <trkpt lat="62.630947860124" lon="17.970899882492">
        <ele>69.8</ele>
        <time>2018-02-19T18:15:47Z</time>
      </trkpt>
      <trkpt lat="62.630936293102" lon="17.970823188107">
        <ele>69.4</ele>
        <time>2018-02-19T18:15:48Z</time>
      </trkpt>
      <trkpt lat="62.630928833211" lon="17.970760323857">
        <ele>69.6</ele>
        <time>2018-02-19T18:15:49Z</time>
      </trkpt>
      <trkpt lat="62.630919277845" lon="17.970707098792">
        <ele>69.2</ele>
        <time>2018-02-19T18:15:50Z</time>
      </trkpt>
      <trkpt lat="62.63090796228" lon="17.970642055248">
        <ele>69.2</ele>
        <time>2018-02-19T18:15:51Z</time>
      </trkpt>
      <trkpt lat="62.630900670027" lon="17.970580951197">
        <ele>69.2</ele>
        <time>2018-02-19T18:15:52Z</time>
      </trkpt>
      <trkpt lat="62.630895808525" lon="17.970535269842">
        <ele>69.2</ele>
        <time>2018-02-19T18:15:53Z</time>
      </trkpt>
      <trkpt lat="62.630885163512" lon="17.970463436959">
        <ele>69</ele>
        <time>2018-02-19T18:15:54Z</time>
      </trkpt>
      <trkpt lat="62.630877535983" lon="17.970400991804">
        <ele>68.8</ele>
        <time>2018-02-19T18:15:55Z</time>
      </trkpt>
      <trkpt lat="62.630872506843" lon="17.970346593273">
        <ele>68.8</ele>
        <time>2018-02-19T18:15:56Z</time>
      </trkpt>
      <trkpt lat="62.630856329776" lon="17.970288758163">
        <ele>68.8</ele>
        <time>2018-02-19T18:15:57Z</time>
      </trkpt>
      <trkpt lat="62.630837051406" lon="17.97025548202">
        <ele>68.6</ele>
        <time>2018-02-19T18:15:58Z</time>
      </trkpt>
      <trkpt lat="62.630815593742" lon="17.970243663541">
        <ele>68.6</ele>
        <time>2018-02-19T18:15:59Z</time>
      </trkpt>
      <trkpt lat="62.630787179101" lon="17.970228240845">
        <ele>68.6</ele>
        <time>2018-02-19T18:16:00Z</time>
      </trkpt>
      <trkpt lat="62.630767481636" lon="17.970234443451">
        <ele>68.4</ele>
        <time>2018-02-19T18:16:01Z</time>
      </trkpt>
      <trkpt lat="62.630738815538" lon="17.97023368908">
        <ele>68.2</ele>
        <time>2018-02-19T18:16:02Z</time>
      </trkpt>
      <trkpt lat="62.630716771141" lon="17.970243076808">
        <ele>68.2</ele>
        <time>2018-02-19T18:16:03Z</time>
      </trkpt>
      <trkpt lat="62.630694894382" lon="17.97025296745">
        <ele>68.2</ele>
        <time>2018-02-19T18:16:04Z</time>
      </trkpt>
      <trkpt lat="62.630670586872" lon="17.970259840608">
        <ele>68</ele>
        <time>2018-02-19T18:16:05Z</time>
      </trkpt>
      <trkpt lat="62.63064979976" lon="17.970273670743">
        <ele>68</ele>
        <time>2018-02-19T18:16:06Z</time>
      </trkpt>
      <trkpt lat="62.630631108123" lon="17.970286327412">
        <ele>68</ele>
        <time>2018-02-19T18:16:07Z</time>
      </trkpt>
      <trkpt lat="62.630606297699" lon="17.970300241366">
        <ele>68</ele>
        <time>2018-02-19T18:16:08Z</time>
      </trkpt>
      <trkpt lat="62.630588360433" lon="17.970310551103">
        <ele>68</ele>
        <time>2018-02-19T18:16:09Z</time>
      </trkpt>
      <trkpt lat="62.630562795638" lon="17.970322034306">
        <ele>68.2</ele>
        <time>2018-02-19T18:16:10Z</time>
      </trkpt>
      <trkpt lat="62.630543181992" lon="17.97031080256">
        <ele>68.4</ele>
        <time>2018-02-19T18:16:11Z</time>
      </trkpt>
      <trkpt lat="62.630521975785" lon="17.970282387919">
        <ele>68.4</ele>
        <time>2018-02-19T18:16:12Z</time>
      </trkpt>
      <trkpt lat="62.630503787062" lon="17.97024207098">
        <ele>68.6</ele>
        <time>2018-02-19T18:16:13Z</time>
      </trkpt>
      <trkpt lat="62.630502697415" lon="17.970191947218">
        <ele>68.6</ele>
        <time>2018-02-19T18:16:14Z</time>
      </trkpt>
      <trkpt lat="62.630500266664" lon="17.970139476524">
        <ele>68.8</ele>
        <time>2018-02-19T18:16:15Z</time>
      </trkpt>
      <trkpt lat="62.630501943044" lon="17.970090610047">
        <ele>68.8</ele>
        <time>2018-02-19T18:16:16Z</time>
      </trkpt>
      <trkpt lat="62.630498674103" lon="17.970059932293">
        <ele>68.6</ele>
        <time>2018-02-19T18:16:17Z</time>
      </trkpt>
      <trkpt lat="62.63049892556" lon="17.970007880694">
        <ele>68.8</ele>
        <time>2018-02-19T18:16:18Z</time>
      </trkpt>
      <trkpt lat="62.630494566972" lon="17.969979801329">
        <ele>68.8</ele>
        <time>2018-02-19T18:16:19Z</time>
      </trkpt>
      <trkpt lat="62.630490040746" lon="17.969951638145">
        <ele>68.8</ele>
        <time>2018-02-19T18:16:20Z</time>
      </trkpt>
      <trkpt lat="62.630485849796" lon="17.969930515757">
        <ele>68.6</ele>
        <time>2018-02-19T18:16:21Z</time>
      </trkpt>
      <trkpt lat="62.630479898647" lon="17.969907046437">
        <ele>68.4</ele>
        <time>2018-02-19T18:16:22Z</time>
      </trkpt>
      <trkpt lat="62.630479228095" lon="17.969897239614">
        <ele>68.4</ele>
        <time>2018-02-19T18:16:23Z</time>
      </trkpt>
      <trkpt lat="62.630470846195" lon="17.969875362855">
        <ele>68.4</ele>
        <time>2018-02-19T18:16:24Z</time>
      </trkpt>
      <trkpt lat="62.630475875335" lon="17.96988919299">
        <ele>68.4</ele>
        <time>2018-02-19T18:16:25Z</time>
      </trkpt>
      <trkpt lat="62.630474869507" lon="17.969881230185">
        <ele>68.2</ele>
        <time>2018-02-19T18:16:26Z</time>
      </trkpt>
      <trkpt lat="62.630574781755" lon="17.970275430942">
        <ele>68.4</ele>
        <time>2018-02-19T18:17:24Z</time>
      </trkpt>
      <trkpt lat="62.63059112646" lon="17.970298145891">
        <ele>68.6</ele>
        <time>2018-02-19T18:17:25Z</time>
      </trkpt>
      <trkpt lat="62.630611075382" lon="17.970311473112">
        <ele>68.6</ele>
        <time>2018-02-19T18:17:26Z</time>
      </trkpt>
      <trkpt lat="62.630631778675" lon="17.97030996437">
        <ele>68.4</ele>
        <time>2018-02-19T18:17:27Z</time>
      </trkpt>
      <trkpt lat="62.630647201371" lon="17.970300576642">
        <ele>68.6</ele>
        <time>2018-02-19T18:17:28Z</time>
      </trkpt>
      <trkpt lat="62.630673604356" lon="17.970282723195">
        <ele>68.6</ele>
        <time>2018-02-19T18:17:29Z</time>
      </trkpt>
      <trkpt lat="62.630692966545" lon="17.970265205024">
        <ele>68.6</ele>
        <time>2018-02-19T18:17:30Z</time>
      </trkpt>
      <trkpt lat="62.630710568535" lon="17.970250788156">
        <ele>68.6</ele>
        <time>2018-02-19T18:17:31Z</time>
      </trkpt>
      <trkpt lat="62.630731858561" lon="17.970241484247">
        <ele>68.4</ele>
        <time>2018-02-19T18:17:32Z</time>
      </trkpt>
      <trkpt lat="62.630753316225" lon="17.970231509786">
        <ele>68.4</ele>
        <time>2018-02-19T18:17:33Z</time>
      </trkpt>
      <trkpt lat="62.630775192984" lon="17.970223546981">
        <ele>68.2</ele>
        <time>2018-02-19T18:17:34Z</time>
      </trkpt>
      <trkpt lat="62.630798327028" lon="17.970212147597">
        <ele>68.4</ele>
        <time>2018-02-19T18:17:35Z</time>
      </trkpt>
      <trkpt lat="62.630818862683" lon="17.970200496756">
        <ele>68.2</ele>
        <time>2018-02-19T18:17:36Z</time>
      </trkpt>
      <trkpt lat="62.630840487985" lon="17.970193623598">
        <ele>68.2</ele>
        <time>2018-02-19T18:17:37Z</time>
      </trkpt>
      <trkpt lat="62.630862280925" lon="17.970190354657">
        <ele>68.2</ele>
        <time>2018-02-19T18:17:38Z</time>
      </trkpt>
      <trkpt lat="62.630880888743" lon="17.970189935562">
        <ele>68.2</ele>
        <time>2018-02-19T18:17:39Z</time>
      </trkpt>
      <trkpt lat="62.630893545412" lon="17.970189935562">
        <ele>68</ele>
        <time>2018-02-19T18:17:40Z</time>
      </trkpt>
      <trkpt lat="62.630905699167" lon="17.970193875055">
        <ele>68</ele>
        <time>2018-02-19T18:17:41Z</time>
      </trkpt>
      <trkpt lat="62.6309146678" lon="17.970200580575">
        <ele>68</ele>
        <time>2018-02-19T18:17:42Z</time>
      </trkpt>
      <trkpt lat="62.630921289501" lon="17.97020938157">
        <ele>67.8</ele>
        <time>2018-02-19T18:17:43Z</time>
      </trkpt>
      <trkpt lat="62.630923720252" lon="17.970205777353">
        <ele>68</ele>
        <time>2018-02-19T18:17:44Z</time>
      </trkpt>
      <trkpt lat="62.630922379148" lon="17.97020267605">
        <ele>68</ele>
        <time>2018-02-19T18:17:45Z</time>
      </trkpt>
      <trkpt lat="62.63120635792" lon="17.970025566503">
        <ele>67.4</ele>
        <time>2018-02-19T18:21:02Z</time>
      </trkpt>
      <trkpt lat="62.631233934371" lon="17.970010646721">
        <ele>67.4</ele>
        <time>2018-02-19T18:21:03Z</time>
      </trkpt>
      <trkpt lat="62.631264947401" lon="17.969992038903">
        <ele>67.2</ele>
        <time>2018-02-19T18:21:04Z</time>
      </trkpt>
      <trkpt lat="62.631296128069" lon="17.969970916515">
        <ele>67</ele>
        <time>2018-02-19T18:21:05Z</time>
      </trkpt>
      <trkpt lat="62.631323536882" lon="17.969953901258">
        <ele>66.8</ele>
        <time>2018-02-19T18:21:06Z</time>
      </trkpt>
      <trkpt lat="62.631354298455" lon="17.969934119974">
        <ele>66.6</ele>
        <time>2018-02-19T18:21:07Z</time>
      </trkpt>
      <trkpt lat="62.63138321601" lon="17.969919786925">
        <ele>66.6</ele>
        <time>2018-02-19T18:21:08Z</time>
      </trkpt>
      <trkpt lat="62.631414815773" lon="17.969902184935">
        <ele>66.8</ele>
        <time>2018-02-19T18:21:09Z</time>
      </trkpt>
      <trkpt lat="62.631442811319" lon="17.96988416385">
        <ele>66.8</ele>
        <time>2018-02-19T18:21:10Z</time>
      </trkpt>
      <trkpt lat="62.63147457872" lon="17.969870920448">
        <ele>66.8</ele>
        <time>2018-02-19T18:21:11Z</time>
      </trkpt>
      <trkpt lat="62.631504083008" lon="17.969859521064">
        <ele>66.8</ele>
        <time>2018-02-19T18:21:12Z</time>
      </trkpt>
      <trkpt lat="62.631531324183" lon="17.969845523291">
        <ele>66.6</ele>
        <time>2018-02-19T18:21:13Z</time>
      </trkpt>
      <trkpt lat="62.631562001937" lon="17.969828927129">
        <ele>66.4</ele>
        <time>2018-02-19T18:21:14Z</time>
      </trkpt>
      <trkpt lat="62.631589746026" lon="17.969813252976">
        <ele>66.2</ele>
        <time>2018-02-19T18:21:15Z</time>
      </trkpt>
      <trkpt lat="62.631614807907" lon="17.969799003746">
        <ele>66.2</ele>
        <time>2018-02-19T18:21:16Z</time>
      </trkpt>
      <trkpt lat="62.631646323851" lon="17.969776791711">
        <ele>66.2</ele>
        <time>2018-02-19T18:21:17Z</time>
      </trkpt>
      <trkpt lat="62.631672978293" lon="17.969753490029">
        <ele>66.2</ele>
        <time>2018-02-19T18:21:18Z</time>
      </trkpt>
      <trkpt lat="62.631704410418" lon="17.969724656293">
        <ele>66.4</ele>
        <time>2018-02-19T18:21:19Z</time>
      </trkpt>
      <trkpt lat="62.631732154507" lon="17.969692805073">
        <ele>66.4</ele>
        <time>2018-02-19T18:21:20Z</time>
      </trkpt>
      <trkpt lat="62.631761994071" lon="17.969661792043">
        <ele>66</ele>
        <time>2018-02-19T18:21:21Z</time>
      </trkpt>
      <trkpt lat="62.631788648513" lon="17.969639077094">
        <ele>66</ele>
        <time>2018-02-19T18:21:22Z</time>
      </trkpt>
      <trkpt lat="62.631817733706" lon="17.969618709077">
        <ele>65.8</ele>
        <time>2018-02-19T18:21:23Z</time>
      </trkpt>
      <trkpt lat="62.631847154175" lon="17.969608650797">
        <ele>65.6</ele>
        <time>2018-02-19T18:21:24Z</time>
      </trkpt>
      <trkpt lat="62.631874814445" lon="17.969609740444">
        <ele>65.6</ele>
        <time>2018-02-19T18:21:25Z</time>
      </trkpt>
      <trkpt lat="62.63190205562" lon="17.969611416824">
        <ele>65.8</ele>
        <time>2018-02-19T18:21:26Z</time>
      </trkpt>
      <trkpt lat="62.631928710062" lon="17.969608986073">
        <ele>65.8</ele>
        <time>2018-02-19T18:21:27Z</time>
      </trkpt>
      <trkpt lat="62.631954358676" lon="17.969608483159">
        <ele>65.8</ele>
        <time>2018-02-19T18:21:28Z</time>
      </trkpt>
      <trkpt lat="62.631986796629" lon="17.969603956933">
        <ele>65.8</ele>
        <time>2018-02-19T18:21:29Z</time>
      </trkpt>
      <trkpt lat="62.632015798003" lon="17.969596245585">
        <ele>65.8</ele>
        <time>2018-02-19T18:21:30Z</time>
      </trkpt>
      <trkpt lat="62.632045134653" lon="17.969590042979">
        <ele>65.8</ele>
        <time>2018-02-19T18:21:31Z</time>
      </trkpt>
      <trkpt lat="62.632072459647" lon="17.969582163993">
        <ele>65.8</ele>
        <time>2018-02-19T18:21:32Z</time>
      </trkpt>
      <trkpt lat="62.632098694994" lon="17.969574787921">
        <ele>66</ele>
        <time>2018-02-19T18:21:33Z</time>
      </trkpt>
      <trkpt lat="62.632126941997" lon="17.969565232555">
        <ele>66</ele>
        <time>2018-02-19T18:21:34Z</time>
      </trkpt>
      <trkpt lat="62.632158793217" lon="17.969556766836">
        <ele>66.2</ele>
        <time>2018-02-19T18:21:35Z</time>
      </trkpt>
      <trkpt lat="62.632187710772" lon="17.969546792375">
        <ele>66</ele>
        <time>2018-02-19T18:21:36Z</time>
      </trkpt>
      <trkpt lat="62.632216879784" lon="17.969535560629">
        <ele>66</ele>
        <time>2018-02-19T18:21:37Z</time>
      </trkpt>
      <trkpt lat="62.632244120959" lon="17.969528436014">
        <ele>66</ele>
        <time>2018-02-19T18:21:38Z</time>
      </trkpt>
      <trkpt lat="62.632274714894" lon="17.969516785173">
        <ele>66</ele>
        <time>2018-02-19T18:21:39Z</time>
      </trkpt>
      <trkpt lat="62.632301788431" lon="17.969509744377">
        <ele>65.8</ele>
        <time>2018-02-19T18:21:40Z</time>
      </trkpt>
      <trkpt lat="62.632331963271" lon="17.969505218151">
        <ele>65.6</ele>
        <time>2018-02-19T18:21:41Z</time>
      </trkpt>
      <trkpt lat="62.632361132283" lon="17.969501697753">
        <ele>65.8</ele>
        <time>2018-02-19T18:21:42Z</time>
      </trkpt>
      <trkpt lat="62.632388792553" lon="17.969502703581">
        <ele>66</ele>
        <time>2018-02-19T18:21:43Z</time>
      </trkpt>
      <trkpt lat="62.632418883574" lon="17.969503374133">
        <ele>65.8</ele>
        <time>2018-02-19T18:21:44Z</time>
      </trkpt>
      <trkpt lat="62.632449309871" lon="17.969504379961">
        <ele>66</ele>
        <time>2018-02-19T18:21:45Z</time>
      </trkpt>
      <trkpt lat="62.632476634865" lon="17.969504882875">
        <ele>66</ele>
        <time>2018-02-19T18:21:46Z</time>
      </trkpt>
      <trkpt lat="62.632506222972" lon="17.969511756033">
        <ele>66.2</ele>
        <time>2018-02-19T18:21:47Z</time>
      </trkpt>
      <trkpt lat="62.632532961233" lon="17.969520557028">
        <ele>66</ele>
        <time>2018-02-19T18:21:48Z</time>
      </trkpt>
      <trkpt lat="62.63256171115" lon="17.969525250892">
        <ele>66</ele>
        <time>2018-02-19T18:21:49Z</time>
      </trkpt>
      <trkpt lat="62.632589958153" lon="17.969531118222">
        <ele>66.2</ele>
        <time>2018-02-19T18:21:50Z</time>
      </trkpt>
      <trkpt lat="62.632618121337" lon="17.969534973896">
        <ele>66.4</ele>
        <time>2018-02-19T18:21:51Z</time>
      </trkpt>
      <trkpt lat="62.632645278693" lon="17.969538410475">
        <ele>66.2</ele>
        <time>2018-02-19T18:21:52Z</time>
      </trkpt>
      <trkpt lat="62.632675118257" lon="17.969542936701">
        <ele>66</ele>
        <time>2018-02-19T18:21:53Z</time>
      </trkpt>
      <trkpt lat="62.632703532898" lon="17.969543188158">
        <ele>66.2</ele>
        <time>2018-02-19T18:21:54Z</time>
      </trkpt>
      <trkpt lat="62.632731947539" lon="17.969544780719">
        <ele>66.2</ele>
        <time>2018-02-19T18:21:55Z</time>
      </trkpt>
      <trkpt lat="62.632759272533" lon="17.969544529262">
        <ele>66.4</ele>
        <time>2018-02-19T18:21:56Z</time>
      </trkpt>
      <trkpt lat="62.632786429889" lon="17.969546121823">
        <ele>66.2</ele>
        <time>2018-02-19T18:21:57Z</time>
      </trkpt>
      <trkpt lat="62.632813671064" lon="17.969549558402">
        <ele>66.2</ele>
        <time>2018-02-19T18:21:58Z</time>
      </trkpt>
      <trkpt lat="62.632848036854" lon="17.969558527035">
        <ele>66.2</ele>
        <time>2018-02-19T18:22:00Z</time>
      </trkpt>
      <trkpt lat="62.632909979095" lon="17.969561712157">
        <ele>66.4</ele>
        <time>2018-02-19T18:22:02Z</time>
      </trkpt>
      <trkpt lat="62.632936214442" lon="17.969564562003">
        <ele>66.4</ele>
        <time>2018-02-19T18:22:03Z</time>
      </trkpt>
      <trkpt lat="62.632963539436" lon="17.96958157726">
        <ele>66.4</ele>
        <time>2018-02-19T18:22:04Z</time>
      </trkpt>
      <trkpt lat="62.632990193878" lon="17.969592725187">
        <ele>66.6</ele>
        <time>2018-02-19T18:22:05Z</time>
      </trkpt>
      <trkpt lat="62.633019027614" lon="17.969602112915">
        <ele>66.8</ele>
        <time>2018-02-19T18:22:06Z</time>
      </trkpt>
      <trkpt lat="62.63304786135" lon="17.969613679937">
        <ele>67</ele>
        <time>2018-02-19T18:22:07Z</time>
      </trkpt>
      <trkpt lat="62.633074599611" lon="17.969612003557">
        <ele>67</ele>
        <time>2018-02-19T18:22:08Z</time>
      </trkpt>
      <trkpt lat="62.633100499682" lon="17.969621475104">
        <ele>67</ele>
        <time>2018-02-19T18:22:09Z</time>
      </trkpt>
      <trkpt lat="62.633130590703" lon="17.969627090977">
        <ele>67.2</ele>
        <time>2018-02-19T18:22:10Z</time>
      </trkpt>
      <trkpt lat="62.633154395299" lon="17.969633796497">
        <ele>67.2</ele>
        <time>2018-02-19T18:22:11Z</time>
      </trkpt>
      <trkpt lat="62.633182223207" lon="17.969647123718">
        <ele>67.2</ele>
        <time>2018-02-19T18:22:12Z</time>
      </trkpt>
      <trkpt lat="62.633209045287" lon="17.969654835066">
        <ele>67.2</ele>
        <time>2018-02-19T18:22:13Z</time>
      </trkpt>
      <trkpt lat="62.633237795204" lon="17.969672269418">
        <ele>67.2</ele>
        <time>2018-02-19T18:22:14Z</time>
      </trkpt>
      <trkpt lat="62.633265455474" lon="17.969678891119">
        <ele>67.2</ele>
        <time>2018-02-19T18:22:15Z</time>
      </trkpt>
      <trkpt lat="62.633291523183" lon="17.96969305653">
        <ele>67.2</ele>
        <time>2018-02-19T18:22:16Z</time>
      </trkpt>
      <trkpt lat="62.633313819037" lon="17.969714095099">
        <ele>67</ele>
        <time>2018-02-19T18:22:17Z</time>
      </trkpt>
      <trkpt lat="62.633335109063" lon="17.969740498084">
        <ele>67.2</ele>
        <time>2018-02-19T18:22:18Z</time>
      </trkpt>
      <trkpt lat="62.633353549243" lon="17.969779473919">
        <ele>67.4</ele>
        <time>2018-02-19T18:22:19Z</time>
      </trkpt>
      <trkpt lat="62.633366625007" lon="17.969827334568">
        <ele>67.2</ele>
        <time>2018-02-19T18:22:20Z</time>
      </trkpt>
      <trkpt lat="62.633372492337" lon="17.969870585172">
        <ele>67.6</ele>
        <time>2018-02-19T18:22:21Z</time>
      </trkpt>
      <trkpt lat="62.633376599468" lon="17.969926995359">
        <ele>67.6</ele>
        <time>2018-02-19T18:22:22Z</time>
      </trkpt>
      <trkpt lat="62.633377353839" lon="17.969973095809">
        <ele>67.6</ele>
        <time>2018-02-19T18:22:23Z</time>
      </trkpt>
      <trkpt lat="62.633380036047" lon="17.970025734141">
        <ele>67.8</ele>
        <time>2018-02-19T18:22:24Z</time>
      </trkpt>
      <trkpt lat="62.633384143178" lon="17.970082311966">
        <ele>68</ele>
        <time>2018-02-19T18:22:25Z</time>
      </trkpt>
      <trkpt lat="62.633388920861" lon="17.970126987493">
        <ele>68</ele>
        <time>2018-02-19T18:22:26Z</time>
      </trkpt>
      <trkpt lat="62.633393614725" lon="17.970179877282">
        <ele>68.2</ele>
        <time>2018-02-19T18:22:27Z</time>
      </trkpt>
      <trkpt lat="62.633397218942" lon="17.970227905569">
        <ele>68.4</ele>
        <time>2018-02-19T18:22:28Z</time>
      </trkpt>
      <trkpt lat="62.633400571702" lon="17.970264366834">
        <ele>68.4</ele>
        <time>2018-02-19T18:22:29Z</time>
      </trkpt>
      <trkpt lat="62.633406941946" lon="17.970328739826">
        <ele>68.4</ele>
        <time>2018-02-19T18:22:30Z</time>
      </trkpt>
      <trkpt lat="62.633411551991" lon="17.970380204692">
        <ele>68.4</ele>
        <time>2018-02-19T18:22:31Z</time>
      </trkpt>
      <trkpt lat="62.633415491484" lon="17.970433345938">
        <ele>68.6</ele>
        <time>2018-02-19T18:22:32Z</time>
      </trkpt>
      <trkpt lat="62.633418425149" lon="17.970488750297">
        <ele>68.6</ele>
        <time>2018-02-19T18:22:33Z</time>
      </trkpt>
      <trkpt lat="62.633421610271" lon="17.9705337611">
        <ele>68.6</ele>
        <time>2018-02-19T18:22:34Z</time>
      </trkpt>
      <trkpt lat="62.633423789565" lon="17.970591680029">
        <ele>68.8</ele>
        <time>2018-02-19T18:22:35Z</time>
      </trkpt>
      <trkpt lat="62.633427729058" lon="17.970645408008">
        <ele>69</ele>
        <time>2018-02-19T18:22:36Z</time>
      </trkpt>
      <trkpt lat="62.633432087646" lon="17.970693436295">
        <ele>69</ele>
        <time>2018-02-19T18:22:37Z</time>
      </trkpt>
      <trkpt lat="62.633434602216" lon="17.970753534518">
        <ele>69.4</ele>
        <time>2018-02-19T18:22:38Z</time>
      </trkpt>
      <trkpt lat="62.633438122614" lon="17.970801478986">
        <ele>69.4</ele>
        <time>2018-02-19T18:22:39Z</time>
      </trkpt>
      <trkpt lat="62.633441307736" lon="17.970858811182">
        <ele>69.6</ele>
        <time>2018-02-19T18:22:40Z</time>
      </trkpt>
      <trkpt lat="62.633443906125" lon="17.970908934944">
        <ele>69.8</ele>
        <time>2018-02-19T18:22:41Z</time>
      </trkpt>
      <trkpt lat="62.633448264713" lon="17.970960483629">
        <ele>69.8</ele>
        <time>2018-02-19T18:22:42Z</time>
      </trkpt>
      <trkpt lat="62.633450024912" lon="17.971019576024">
        <ele>69.8</ele>
        <time>2018-02-19T18:22:43Z</time>
      </trkpt>
      <trkpt lat="62.633451533654" lon="17.971069532148">
        <ele>70</ele>
        <time>2018-02-19T18:22:44Z</time>
      </trkpt>
      <trkpt lat="62.633452036568" lon="17.971121751385">
        <ele>70</ele>
        <time>2018-02-19T18:22:45Z</time>
      </trkpt>
      <trkpt lat="62.633456143699" lon="17.971179670314">
        <ele>70.2</ele>
        <time>2018-02-19T18:22:46Z</time>
      </trkpt>
      <trkpt lat="62.633459328821" lon="17.971230213171">
        <ele>70.2</ele>
        <time>2018-02-19T18:22:47Z</time>
      </trkpt>
      <trkpt lat="62.633459580278" lon="17.9712881321">
        <ele>70</ele>
        <time>2018-02-19T18:22:48Z</time>
      </trkpt>
      <trkpt lat="62.633458322993" lon="17.971339680785">
        <ele>70.2</ele>
        <time>2018-02-19T18:22:49Z</time>
      </trkpt>
      <trkpt lat="62.63345941264" lon="17.971394330773">
        <ele>70.4</ele>
        <time>2018-02-19T18:22:50Z</time>
      </trkpt>
      <trkpt lat="62.633457903898" lon="17.97145157915">
        <ele>70.4</ele>
        <time>2018-02-19T18:22:51Z</time>
      </trkpt>
      <trkpt lat="62.633458155355" lon="17.971502541102">
        <ele>70.4</ele>
        <time>2018-02-19T18:22:52Z</time>
      </trkpt>
      <trkpt lat="62.633459496459" lon="17.971552748683">
        <ele>70.6</ele>
        <time>2018-02-19T18:22:53Z</time>
      </trkpt>
      <trkpt lat="62.633457400984" lon="17.97160496792">
        <ele>70.6</ele>
        <time>2018-02-19T18:22:54Z</time>
      </trkpt>
      <trkpt lat="62.633455389328" lon="17.97165358294">
        <ele>70.8</ele>
        <time>2018-02-19T18:22:55Z</time>
      </trkpt>
      <trkpt lat="62.633452623301" lon="17.971710076946">
        <ele>71</ele>
        <time>2018-02-19T18:22:56Z</time>
      </trkpt>
      <trkpt lat="62.633451366016" lon="17.971758105233">
        <ele>71</ele>
        <time>2018-02-19T18:22:57Z</time>
      </trkpt>
      <trkpt lat="62.633445331048" lon="17.971810827384">
        <ele>71.2</ele>
        <time>2018-02-19T18:22:58Z</time>
      </trkpt>
      <trkpt lat="62.633439547537" lon="17.971858185119">
        <ele>71.2</ele>
        <time>2018-02-19T18:22:59Z</time>
      </trkpt>
      <trkpt lat="62.633436110958" lon="17.971912918926">
        <ele>71.4</ele>
        <time>2018-02-19T18:23:00Z</time>
      </trkpt>
      <trkpt lat="62.633430662723" lon="17.971970167303">
        <ele>71.4</ele>
        <time>2018-02-19T18:23:01Z</time>
      </trkpt>
      <trkpt lat="62.633423873384" lon="17.972022805635">
        <ele>71.6</ele>
        <time>2018-02-19T18:23:02Z</time>
      </trkpt>
      <trkpt lat="62.633416916407" lon="17.972069241361">
        <ele>71.6</ele>
        <time>2018-02-19T18:23:03Z</time>
      </trkpt>
      <trkpt lat="62.63340995943" lon="17.972119029847">
        <ele>71.6</ele>
        <time>2018-02-19T18:23:04Z</time>
      </trkpt>
      <trkpt lat="62.633403924462" lon="17.972166639039">
        <ele>71.6</ele>
        <time>2018-02-19T18:23:05Z</time>
      </trkpt>
      <trkpt lat="62.633396129295" lon="17.972221959579">
        <ele>71.8</ele>
        <time>2018-02-19T18:23:06Z</time>
      </trkpt>
      <trkpt lat="62.633387663576" lon="17.972272083341">
        <ele>71.8</ele>
        <time>2018-02-19T18:23:07Z</time>
      </trkpt>
      <trkpt lat="62.633381377151" lon="17.97232078218">
        <ele>71.8</ele>
        <time>2018-02-19T18:23:08Z</time>
      </trkpt>
      <trkpt lat="62.633373833441" lon="17.972372414684">
        <ele>71.8</ele>
        <time>2018-02-19T18:23:09Z</time>
      </trkpt>
      <trkpt lat="62.633364529532" lon="17.97242555593">
        <ele>72</ele>
        <time>2018-02-19T18:23:10Z</time>
      </trkpt>
      <trkpt lat="62.633356231451" lon="17.972472662208">
        <ele>72</ele>
        <time>2018-02-19T18:23:11Z</time>
      </trkpt>
      <trkpt lat="62.633343993877" lon="17.972524629988">
        <ele>72</ele>
        <time>2018-02-19T18:23:12Z</time>
      </trkpt>
      <trkpt lat="62.633335695796" lon="17.972572993551">
        <ele>72.2</ele>
        <time>2018-02-19T18:23:13Z</time>
      </trkpt>
      <trkpt lat="62.633326643344" lon="17.972621608571">
        <ele>72.2</ele>
        <time>2018-02-19T18:23:14Z</time>
      </trkpt>
      <trkpt lat="62.633315411598" lon="17.972672151428">
        <ele>72.4</ele>
        <time>2018-02-19T18:23:15Z</time>
      </trkpt>
      <trkpt lat="62.633304766585" lon="17.972721856095">
        <ele>72.4</ele>
        <time>2018-02-19T18:23:16Z</time>
      </trkpt>
      <trkpt lat="62.633294456848" lon="17.972770554934">
        <ele>72.6</ele>
        <time>2018-02-19T18:23:17Z</time>
      </trkpt>
      <trkpt lat="62.633286996957" lon="17.972820511058">
        <ele>72.6</ele>
        <time>2018-02-19T18:23:18Z</time>
      </trkpt>
      <trkpt lat="62.633277944505" lon="17.972867449698">
        <ele>72.6</ele>
        <time>2018-02-19T18:23:19Z</time>
      </trkpt>
      <trkpt lat="62.633268053863" lon="17.972916316175">
        <ele>73</ele>
        <time>2018-02-19T18:23:20Z</time>
      </trkpt>
      <trkpt lat="62.63325908523" lon="17.972960991702">
        <ele>73</ele>
        <time>2018-02-19T18:23:21Z</time>
      </trkpt>
      <trkpt lat="62.633249948959" lon="17.973012121292">
        <ele>73</ele>
        <time>2018-02-19T18:23:22Z</time>
      </trkpt>
      <trkpt lat="62.633244333086" lon="17.973039530105">
        <ele>73.2</ele>
        <time>2018-02-19T18:23:23Z</time>
      </trkpt>
      <trkpt lat="62.63323058677" lon="17.973100550337">
        <ele>73.4</ele>
        <time>2018-02-19T18:23:24Z</time>
      </trkpt>
      <trkpt lat="62.633218935929" lon="17.973156038515">
        <ele>73.4</ele>
        <time>2018-02-19T18:23:25Z</time>
      </trkpt>
      <trkpt lat="62.63321047021" lon="17.973201552232">
        <ele>73.4</ele>
        <time>2018-02-19T18:23:26Z</time>
      </trkpt>
      <trkpt lat="62.633199070826" lon="17.973253436193">
        <ele>73.4</ele>
        <time>2018-02-19T18:23:27Z</time>
      </trkpt>
      <trkpt lat="62.63318867727" lon="17.973300710109">
        <ele>73.6</ele>
        <time>2018-02-19T18:23:28Z</time>
      </trkpt>
      <trkpt lat="62.63317945718" lon="17.973343709256">
        <ele>73.6</ele>
        <time>2018-02-19T18:23:29Z</time>
      </trkpt>
      <trkpt lat="62.633168057796" lon="17.973405483859">
        <ele>73.6</ele>
        <time>2018-02-19T18:23:30Z</time>
      </trkpt>
      <trkpt lat="62.633159927353" lon="17.973452254861">
        <ele>73.8</ele>
        <time>2018-02-19T18:23:31Z</time>
      </trkpt>
      <trkpt lat="62.63314844415" lon="17.973503216813">
        <ele>73.8</ele>
        <time>2018-02-19T18:23:32Z</time>
      </trkpt>
      <trkpt lat="62.633135787481" lon="17.973548227616">
        <ele>73.8</ele>
        <time>2018-02-19T18:23:33Z</time>
      </trkpt>
      <trkpt lat="62.633123801364" lon="17.973591226763">
        <ele>74</ele>
        <time>2018-02-19T18:23:34Z</time>
      </trkpt>
      <trkpt lat="62.633111144695" lon="17.973637159575">
        <ele>74.2</ele>
        <time>2018-02-19T18:23:35Z</time>
      </trkpt>
      <trkpt lat="62.633100080587" lon="17.973682170378">
        <ele>74.2</ele>
        <time>2018-02-19T18:23:36Z</time>
      </trkpt>
      <trkpt lat="62.633089854669" lon="17.973732880873">
        <ele>74.4</ele>
        <time>2018-02-19T18:23:37Z</time>
      </trkpt>
      <trkpt lat="62.633077700914" lon="17.973782501721">
        <ele>74.6</ele>
        <time>2018-02-19T18:23:38Z</time>
      </trkpt>
      <trkpt lat="62.633067474996" lon="17.97382868599">
        <ele>74.8</ele>
        <time>2018-02-19T18:23:39Z</time>
      </trkpt>
      <trkpt lat="62.633053393404" lon="17.973886604919">
        <ele>74.6</ele>
        <time>2018-02-19T18:23:40Z</time>
      </trkpt>
      <trkpt lat="62.633042580753" lon="17.973929604066">
        <ele>74.8</ele>
        <time>2018-02-19T18:23:41Z</time>
      </trkpt>
      <trkpt lat="62.633029588808" lon="17.973984505511">
        <ele>74.8</ele>
        <time>2018-02-19T18:23:42Z</time>
      </trkpt>
      <trkpt lat="62.633018273243" lon="17.974029767771">
        <ele>75</ele>
        <time>2018-02-19T18:23:43Z</time>
      </trkpt>
      <trkpt lat="62.633007041497" lon="17.97407762842">
        <ele>75</ele>
        <time>2018-02-19T18:23:44Z</time>
      </trkpt>
      <trkpt lat="62.632991367344" lon="17.974134038607">
        <ele>75</ele>
        <time>2018-02-19T18:23:45Z</time>
      </trkpt>
      <trkpt lat="62.632980889969" lon="17.97418575493">
        <ele>75.2</ele>
        <time>2018-02-19T18:23:46Z</time>
      </trkpt>
      <trkpt lat="62.632966389282" lon="17.974237052158">
        <ele>75.2</ele>
        <time>2018-02-19T18:23:47Z</time>
      </trkpt>
      <trkpt lat="62.632950128396" lon="17.974288684662">
        <ele>75.4</ele>
        <time>2018-02-19T18:23:48Z</time>
      </trkpt>
      <trkpt lat="62.632936298261" lon="17.974337970234">
        <ele>75.4</ele>
        <time>2018-02-19T18:23:49Z</time>
      </trkpt>
      <trkpt lat="62.632917271348" lon="17.974391614394">
        <ele>75.4</ele>
        <time>2018-02-19T18:23:50Z</time>
      </trkpt>
      <trkpt lat="62.632901597195" lon="17.974436709016">
        <ele>75.4</ele>
        <time>2018-02-19T18:23:51Z</time>
      </trkpt>
      <trkpt lat="62.632877205866" lon="17.97447995962">
        <ele>75.6</ele>
        <time>2018-02-19T18:23:52Z</time>
      </trkpt>
      <trkpt lat="62.632852395442" lon="17.974505440596">
        <ele>75.4</ele>
        <time>2018-02-19T18:23:53Z</time>
      </trkpt>
      <trkpt lat="62.632824483715" lon="17.974525389518">
        <ele>75.4</ele>
        <time>2018-02-19T18:23:54Z</time>
      </trkpt>
      <trkpt lat="62.63279556616" lon="17.974536705083">
        <ele>75.6</ele>
        <time>2018-02-19T18:23:55Z</time>
      </trkpt>
      <trkpt lat="62.632769163175" lon="17.974543410603">
        <ele>75.6</ele>
        <time>2018-02-19T18:23:56Z</time>
      </trkpt>
      <trkpt lat="62.632739491249" lon="17.97453276559">
        <ele>75.6</ele>
        <time>2018-02-19T18:23:57Z</time>
      </trkpt>
      <trkpt lat="62.632713758816" lon="17.974514744505">
        <ele>75.8</ele>
        <time>2018-02-19T18:23:58Z</time>
      </trkpt>
      <trkpt lat="62.632692804066" lon="17.974496136687">
        <ele>75.8</ele>
        <time>2018-02-19T18:23:59Z</time>
      </trkpt>
      <trkpt lat="62.632663383597" lon="17.974470236616">
        <ele>75.6</ele>
        <time>2018-02-19T18:24:00Z</time>
      </trkpt>
      <trkpt lat="62.63263798644" lon="17.974448359857">
        <ele>75.6</ele>
        <time>2018-02-19T18:24:01Z</time>
      </trkpt>
      <trkpt lat="62.632614600939" lon="17.97442547727">
        <ele>75.6</ele>
        <time>2018-02-19T18:24:02Z</time>
      </trkpt>
      <trkpt lat="62.632594568198" lon="17.974391698213">
        <ele>75.6</ele>
        <time>2018-02-19T18:24:03Z</time>
      </trkpt>
      <trkpt lat="62.632577050027" lon="17.974360266088">
        <ele>75.4</ele>
        <time>2018-02-19T18:24:04Z</time>
      </trkpt>
      <trkpt lat="62.63255500563" lon="17.974325816479">
        <ele>75.6</ele>
        <time>2018-02-19T18:24:05Z</time>
      </trkpt>
      <trkpt lat="62.632534553794" lon="17.974294049078">
        <ele>75.8</ele>
        <time>2018-02-19T18:24:06Z</time>
      </trkpt>
      <trkpt lat="62.632510497741" lon="17.974272172319">
        <ele>75.8</ele>
        <time>2018-02-19T18:24:07Z</time>
      </trkpt>
      <trkpt lat="62.632485771136" lon="17.974248116266">
        <ele>75.6</ele>
        <time>2018-02-19T18:24:08Z</time>
      </trkpt>
      <trkpt lat="62.632461715083" lon="17.974225317498">
        <ele>75.6</ele>
        <time>2018-02-19T18:24:09Z</time>
      </trkpt>
      <trkpt lat="62.632435731193" lon="17.974195980848">
        <ele>75.8</ele>
        <time>2018-02-19T18:24:10Z</time>
      </trkpt>
      <trkpt lat="62.63241083695" lon="17.974172595347">
        <ele>75.8</ele>
        <time>2018-02-19T18:24:11Z</time>
      </trkpt>
      <trkpt lat="62.632383511956" lon="17.974154071348">
        <ele>75.8</ele>
        <time>2018-02-19T18:24:12Z</time>
      </trkpt>
      <trkpt lat="62.63235970736" lon="17.974127165449">
        <ele>75.8</ele>
        <time>2018-02-19T18:24:13Z</time>
      </trkpt>
      <trkpt lat="62.632336992411" lon="17.974101600654">
        <ele>75.8</ele>
        <time>2018-02-19T18:24:14Z</time>
      </trkpt>
      <trkpt lat="62.63231109234" lon="17.974061786629">
        <ele>75.6</ele>
        <time>2018-02-19T18:24:15Z</time>
      </trkpt>
      <trkpt lat="62.632294077083" lon="17.974017194921">
        <ele>75.8</ele>
        <time>2018-02-19T18:24:16Z</time>
      </trkpt>
      <trkpt lat="62.632274128161" lon="17.973990540479">
        <ele>75.8</ele>
        <time>2018-02-19T18:24:17Z</time>
      </trkpt>
      <trkpt lat="62.632247473719" lon="17.973955755594">
        <ele>75.6</ele>
        <time>2018-02-19T18:24:18Z</time>
      </trkpt>
      <trkpt lat="62.632225848417" lon="17.97393765069">
        <ele>75.6</ele>
        <time>2018-02-19T18:24:19Z</time>
      </trkpt>
      <trkpt lat="62.632198271966" lon="17.973905380375">
        <ele>75.6</ele>
        <time>2018-02-19T18:24:20Z</time>
      </trkpt>
      <trkpt lat="62.632173796818" lon="17.973884257987">
        <ele>75.4</ele>
        <time>2018-02-19T18:24:21Z</time>
      </trkpt>
      <trkpt lat="62.632148651118" lon="17.973855340432">
        <ele>75.4</ele>
        <time>2018-02-19T18:24:22Z</time>
      </trkpt>
      <trkpt lat="62.632125181798" lon="17.973826339058">
        <ele>75.4</ele>
        <time>2018-02-19T18:24:23Z</time>
      </trkpt>
      <trkpt lat="62.632103556496" lon="17.973797756779">
        <ele>75.4</ele>
        <time>2018-02-19T18:24:24Z</time>
      </trkpt>
      <trkpt lat="62.632077740244" lon="17.973772946355">
        <ele>75.6</ele>
        <time>2018-02-19T18:24:25Z</time>
      </trkpt>
      <trkpt lat="62.632051504897" lon="17.973744196438">
        <ele>75.6</ele>
        <time>2018-02-19T18:24:26Z</time>
      </trkpt>
      <trkpt lat="62.632028957586" lon="17.973716619987">
        <ele>75.4</ele>
        <time>2018-02-19T18:24:27Z</time>
      </trkpt>
      <trkpt lat="62.632005823542" lon="17.973672531193">
        <ele>75.4</ele>
        <time>2018-02-19T18:24:28Z</time>
      </trkpt>
      <trkpt lat="62.631983443869" lon="17.973653420461">
        <ele>75.4</ele>
        <time>2018-02-19T18:24:29Z</time>
      </trkpt>
      <trkpt lat="62.631956873246" lon="17.973627101295">
        <ele>75.4</ele>
        <time>2018-02-19T18:24:30Z</time>
      </trkpt>
      <trkpt lat="62.631929380614" lon="17.973600195396">
        <ele>75.4</ele>
        <time>2018-02-19T18:24:31Z</time>
      </trkpt>
      <trkpt lat="62.631904151095" lon="17.973578653913">
        <ele>75.4</ele>
        <time>2018-02-19T18:24:32Z</time>
      </trkpt>
      <trkpt lat="62.631881268508" lon="17.973547473245">
        <ele>75.4</ele>
        <time>2018-02-19T18:24:33Z</time>
      </trkpt>
      <trkpt lat="62.631856877179" lon="17.973517885138">
        <ele>75.4</ele>
        <time>2018-02-19T18:24:34Z</time>
      </trkpt>
      <trkpt lat="62.631832318212" lon="17.973488129393">
        <ele>75.4</ele>
        <time>2018-02-19T18:24:35Z</time>
      </trkpt>
      <trkpt lat="62.631802478648" lon="17.973449237377">
        <ele>75.4</ele>
        <time>2018-02-19T18:24:36Z</time>
      </trkpt>
      <trkpt lat="62.631776746215" lon="17.973424007858">
        <ele>75.4</ele>
        <time>2018-02-19T18:24:37Z</time>
      </trkpt>
      <trkpt lat="62.631750175592" lon="17.97339534176">
        <ele>75.4</ele>
        <time>2018-02-19T18:24:38Z</time>
      </trkpt>
      <trkpt lat="62.631725951901" lon="17.973362233255">
        <ele>75.4</ele>
        <time>2018-02-19T18:24:39Z</time>
      </trkpt>
      <trkpt lat="62.631701392934" lon="17.973330717311">
        <ele>75</ele>
        <time>2018-02-19T18:24:40Z</time>
      </trkpt>
      <trkpt lat="62.631674570854" lon="17.973282605205">
        <ele>75</ele>
        <time>2018-02-19T18:24:41Z</time>
      </trkpt>
      <trkpt lat="62.63164808405" lon="17.973242036809">
        <ele>75.2</ele>
        <time>2018-02-19T18:24:42Z</time>
      </trkpt>
      <trkpt lat="62.631620926694" lon="17.973204653535">
        <ele>75.4</ele>
        <time>2018-02-19T18:24:43Z</time>
      </trkpt>
      <trkpt lat="62.631599720487" lon="17.973156876705">
        <ele>75.4</ele>
        <time>2018-02-19T18:24:44Z</time>
      </trkpt>
      <trkpt lat="62.631579939203" lon="17.97310113707">
        <ele>75.2</ele>
        <time>2018-02-19T18:24:45Z</time>
      </trkpt>
      <trkpt lat="62.63155504496" lon="17.973049336928">
        <ele>75.2</ele>
        <time>2018-02-19T18:24:46Z</time>
      </trkpt>
      <trkpt lat="62.631532162373" lon="17.97300893617">
        <ele>75.2</ele>
        <time>2018-02-19T18:24:47Z</time>
      </trkpt>
      <trkpt lat="62.631508441596" lon="17.97295948296">
        <ele>75.2</ele>
        <time>2018-02-19T18:24:48Z</time>
      </trkpt>
      <trkpt lat="62.631489749959" lon="17.972903072773">
        <ele>74.8</ele>
        <time>2018-02-19T18:24:49Z</time>
      </trkpt>
      <trkpt lat="62.631467957019" lon="17.972849093337">
        <ele>74.6</ele>
        <time>2018-02-19T18:24:50Z</time>
      </trkpt>
      <trkpt lat="62.631447840459" lon="17.972796957919">
        <ele>74.2</ele>
        <time>2018-02-19T18:24:51Z</time>
      </trkpt>
      <trkpt lat="62.631428897365" lon="17.972745660691">
        <ele>74</ele>
        <time>2018-02-19T18:24:52Z</time>
      </trkpt>
      <trkpt lat="62.631410457185" lon="17.972702913001">
        <ele>73.8</ele>
        <time>2018-02-19T18:24:53Z</time>
      </trkpt>
      <trkpt lat="62.631387909874" lon="17.97264851447">
        <ele>73.4</ele>
        <time>2018-02-19T18:24:54Z</time>
      </trkpt>
      <trkpt lat="62.631366368391" lon="17.972596211414">
        <ele>73.2</ele>
        <time>2018-02-19T18:24:55Z</time>
      </trkpt>
      <trkpt lat="62.631346251831" lon="17.972541058512">
        <ele>73</ele>
        <time>2018-02-19T18:24:56Z</time>
      </trkpt>
      <trkpt lat="62.631326386728" lon="17.972481798479">
        <ele>72.8</ele>
        <time>2018-02-19T18:24:57Z</time>
      </trkpt>
      <trkpt lat="62.631307192177" lon="17.972428321957">
        <ele>72.6</ele>
        <time>2018-02-19T18:24:58Z</time>
      </trkpt>
      <trkpt lat="62.6312918533" lon="17.972377276186">
        <ele>72.4</ele>
        <time>2018-02-19T18:24:59Z</time>
      </trkpt>
      <trkpt lat="62.631272239654" lon="17.972316758868">
        <ele>72.4</ele>
        <time>2018-02-19T18:25:00Z</time>
      </trkpt>
      <trkpt lat="62.631250362895" lon="17.972262025061">
        <ele>72.4</ele>
        <time>2018-02-19T18:25:01Z</time>
      </trkpt>
      <trkpt lat="62.631235275475" lon="17.972198238802">
        <ele>72.2</ele>
        <time>2018-02-19T18:25:02Z</time>
      </trkpt>
      <trkpt lat="62.631219182227" lon="17.972144929918">
        <ele>72.2</ele>
        <time>2018-02-19T18:25:03Z</time>
      </trkpt>
      <trkpt lat="62.63120384335" lon="17.972088855007">
        <ele>72</ele>
        <time>2018-02-19T18:25:04Z</time>
      </trkpt>
      <trkpt lat="62.63118791774" lon="17.972033618286">
        <ele>72</ele>
        <time>2018-02-19T18:25:05Z</time>
      </trkpt>
      <trkpt lat="62.631171489216" lon="17.971976202271">
        <ele>72</ele>
        <time>2018-02-19T18:25:06Z</time>
      </trkpt>
      <trkpt lat="62.631155731244" lon="17.971912248374">
        <ele>71.6</ele>
        <time>2018-02-19T18:25:07Z</time>
      </trkpt>
      <trkpt lat="62.631141398195" lon="17.971856927834">
        <ele>71.4</ele>
        <time>2018-02-19T18:25:08Z</time>
      </trkpt>
      <trkpt lat="62.631127232784" lon="17.97180110438">
        <ele>71.4</ele>
        <time>2018-02-19T18:25:09Z</time>
      </trkpt>
      <trkpt lat="62.631110301346" lon="17.971737234302">
        <ele>71.2</ele>
        <time>2018-02-19T18:25:10Z</time>
      </trkpt>
      <trkpt lat="62.631098985781" lon="17.971684847427">
        <ele>71</ele>
        <time>2018-02-19T18:25:11Z</time>
      </trkpt>
      <trkpt lat="62.631082808714" lon="17.971616367304">
        <ele>70.8</ele>
        <time>2018-02-19T18:25:12Z</time>
      </trkpt>
      <trkpt lat="62.631069146217" lon="17.971558783651">
        <ele>70.6</ele>
        <time>2018-02-19T18:25:13Z</time>
      </trkpt>
      <trkpt lat="62.631057663014" lon="17.97149851779">
        <ele>70.6</ele>
        <time>2018-02-19T18:25:14Z</time>
      </trkpt>
      <trkpt lat="62.631045509259" lon="17.971432384599">
        <ele>70.6</ele>
        <time>2018-02-19T18:25:15Z</time>
      </trkpt>
      <trkpt lat="62.631035953893" lon="17.971376393507">
        <ele>70.4</ele>
        <time>2018-02-19T18:25:16Z</time>
      </trkpt>
      <trkpt lat="62.631026649984" lon="17.971314618904">
        <ele>70.4</ele>
        <time>2018-02-19T18:25:17Z</time>
      </trkpt>
      <trkpt lat="62.631018854817" lon="17.971252509025">
        <ele>70.2</ele>
        <time>2018-02-19T18:25:18Z</time>
      </trkpt>
      <trkpt lat="62.631006701062" lon="17.971198697227">
        <ele>70.4</ele>
        <time>2018-02-19T18:25:19Z</time>
      </trkpt>
      <trkpt lat="62.630991865099" lon="17.971128205448">
        <ele>70.2</ele>
        <time>2018-02-19T18:25:20Z</time>
      </trkpt>
      <trkpt lat="62.630980214258" lon="17.971073220184">
        <ele>70</ele>
        <time>2018-02-19T18:25:21Z</time>
      </trkpt>
      <trkpt lat="62.630971077987" lon="17.971004404785">
        <ele>69.8</ele>
        <time>2018-02-19T18:25:22Z</time>
      </trkpt>
      <trkpt lat="62.630964540105" lon="17.970948413693">
        <ele>69.8</ele>
        <time>2018-02-19T18:25:23Z</time>
      </trkpt>
      <trkpt lat="62.630958002223" lon="17.970887393461">
        <ele>69.8</ele>
        <time>2018-02-19T18:25:24Z</time>
      </trkpt>
      <trkpt lat="62.630954481825" lon="17.97082042208">
        <ele>69.8</ele>
        <time>2018-02-19T18:25:25Z</time>
      </trkpt>
      <trkpt lat="62.630945764649" lon="17.970764766264">
        <ele>69.6</ele>
        <time>2018-02-19T18:25:26Z</time>
      </trkpt>
      <trkpt lat="62.630937634206" lon="17.970701818195">
        <ele>69.4</ele>
        <time>2018-02-19T18:25:27Z</time>
      </trkpt>
      <trkpt lat="62.630931263962" lon="17.97063518209">
        <ele>69.2</ele>
        <time>2018-02-19T18:25:28Z</time>
      </trkpt>
      <trkpt lat="62.630927743564" lon="17.970583801043">
        <ele>69</ele>
        <time>2018-02-19T18:25:29Z</time>
      </trkpt>
      <trkpt lat="62.630920954225" lon="17.970504843545">
        <ele>68.8</ele>
        <time>2018-02-19T18:25:30Z</time>
      </trkpt>
      <trkpt lat="62.630913578153" lon="17.970447511349">
        <ele>68.6</ele>
        <time>2018-02-19T18:25:31Z</time>
      </trkpt>
      <trkpt lat="62.630910141574" lon="17.970385988203">
        <ele>68.6</ele>
        <time>2018-02-19T18:25:32Z</time>
      </trkpt>
      <trkpt lat="62.630908297556" lon="17.970322285763">
        <ele>68.4</ele>
        <time>2018-02-19T18:25:33Z</time>
      </trkpt>
      <trkpt lat="62.63090880047" lon="17.970271575268">
        <ele>68.2</ele>
        <time>2018-02-19T18:25:34Z</time>
      </trkpt>
      <trkpt lat="62.630918774931" lon="17.970183565318">
        <ele>68.2</ele>
        <time>2018-02-19T18:25:36Z</time>
      </trkpt>
      <trkpt lat="62.630923636433" lon="17.970162862025">
        <ele>68.2</ele>
        <time>2018-02-19T18:25:37Z</time>
      </trkpt>
      <trkpt lat="62.630928833211" lon="17.970156407962">
        <ele>68</ele>
        <time>2018-02-19T18:25:38Z</time>
      </trkpt>
      <trkpt lat="62.630931599238" lon="17.970147439329">
        <ele>68</ele>
        <time>2018-02-19T18:25:39Z</time>
      </trkpt>
      <trkpt lat="62.630932521247" lon="17.970145595311">
        <ele>67.8</ele>
        <time>2018-02-19T18:25:40Z</time>
      </trkpt>
      <trkpt lat="62.630936712197" lon="17.970154228668">
        <ele>68</ele>
        <time>2018-02-19T18:25:41Z</time>
      </trkpt>
      <trkpt lat="62.630933359437" lon="17.97017166302">
        <ele>68</ele>
        <time>2018-02-19T18:25:42Z</time>
      </trkpt>
      <trkpt lat="62.631205352092" lon="17.970021710829">
        <ele>68</ele>
        <time>2018-02-19T18:28:05Z</time>
      </trkpt>
      <trkpt lat="62.631238041502" lon="17.970000923717">
        <ele>67.8</ele>
        <time>2018-02-19T18:28:06Z</time>
      </trkpt>
      <trkpt lat="62.631269808903" lon="17.969983237908">
        <ele>67.6</ele>
        <time>2018-02-19T18:28:07Z</time>
      </trkpt>
      <trkpt lat="62.63129939701" lon="17.969966138832">
        <ele>67.2</ele>
        <time>2018-02-19T18:28:08Z</time>
      </trkpt>
      <trkpt lat="62.631327560194" lon="17.969945435539">
        <ele>66.8</ele>
        <time>2018-02-19T18:28:09Z</time>
      </trkpt>
      <trkpt lat="62.631357567396" lon="17.969923307323">
        <ele>66.8</ele>
        <time>2018-02-19T18:28:10Z</time>
      </trkpt>
      <trkpt lat="62.63139075972" lon="17.969899754184">
        <ele>67</ele>
        <time>2018-02-19T18:28:11Z</time>
      </trkpt>
      <trkpt lat="62.631423365311" lon="17.969881984556">
        <ele>67.2</ele>
        <time>2018-02-19T18:28:12Z</time>
      </trkpt>
      <trkpt lat="62.631453540151" lon="17.969864214928">
        <ele>67.2</ele>
        <time>2018-02-19T18:28:13Z</time>
      </trkpt>
      <trkpt lat="62.631486983932" lon="17.96983973978">
        <ele>67.2</ele>
        <time>2018-02-19T18:28:14Z</time>
      </trkpt>
      <trkpt lat="62.631519924799" lon="17.969821718695">
        <ele>67.2</ele>
        <time>2018-02-19T18:28:15Z</time>
      </trkpt>
      <trkpt lat="62.631550099639" lon="17.969801685954">
        <ele>67</ele>
        <time>2018-02-19T18:28:16Z</time>
      </trkpt>
      <trkpt lat="62.631582956687" lon="17.969782910498">
        <ele>66.8</ele>
        <time>2018-02-19T18:28:17Z</time>
      </trkpt>
      <trkpt lat="62.63161288007" lon="17.969761536653">
        <ele>67</ele>
        <time>2018-02-19T18:28:18Z</time>
      </trkpt>
      <trkpt lat="62.631647413498" lon="17.969734798392">
        <ele>67.2</ele>
        <time>2018-02-19T18:28:19Z</time>
      </trkpt>
      <trkpt lat="62.631678426528" lon="17.969704372095">
        <ele>67</ele>
        <time>2018-02-19T18:28:20Z</time>
      </trkpt>
      <trkpt lat="62.631709104282" lon="17.969672688513">
        <ele>67</ele>
        <time>2018-02-19T18:28:21Z</time>
      </trkpt>
      <trkpt lat="62.631737351285" lon="17.969642513673">
        <ele>66.8</ele>
        <time>2018-02-19T18:28:22Z</time>
      </trkpt>
      <trkpt lat="62.631765765926" lon="17.969609572806">
        <ele>66.8</ele>
        <time>2018-02-19T18:28:23Z</time>
      </trkpt>
      <trkpt lat="62.631797365689" lon="17.969569255867">
        <ele>66.6</ele>
        <time>2018-02-19T18:28:24Z</time>
      </trkpt>
      <trkpt lat="62.631827372891" lon="17.969542433787">
        <ele>66.6</ele>
        <time>2018-02-19T18:28:25Z</time>
      </trkpt>
      <trkpt lat="62.631858218283" lon="17.969535392991">
        <ele>66.4</ele>
        <time>2018-02-19T18:28:26Z</time>
      </trkpt>
      <trkpt lat="62.631885878553" lon="17.969537572285">
        <ele>66.2</ele>
        <time>2018-02-19T18:28:27Z</time>
      </trkpt>
      <trkpt lat="62.631912030081" lon="17.969541511778">
        <ele>66</ele>
        <time>2018-02-19T18:28:28Z</time>
      </trkpt>
      <trkpt lat="62.631945809138" lon="17.969547379108">
        <ele>66</ele>
        <time>2018-02-19T18:28:29Z</time>
      </trkpt>
      <trkpt lat="62.631976067797" lon="17.969546038004">
        <ele>65.8</ele>
        <time>2018-02-19T18:28:30Z</time>
      </trkpt>
      <trkpt lat="62.632005823542" lon="17.969539332484">
        <ele>66</ele>
        <time>2018-02-19T18:28:31Z</time>
      </trkpt>
      <trkpt lat="62.632034154364" lon="17.969529190385">
        <ele>66.2</ele>
        <time>2018-02-19T18:28:32Z</time>
      </trkpt>
      <trkpt lat="62.632063407195" lon="17.969524831797">
        <ele>66.2</ele>
        <time>2018-02-19T18:28:33Z</time>
      </trkpt>
      <trkpt lat="62.632092240931" lon="17.969511253119">
        <ele>66.2</ele>
        <time>2018-02-19T18:28:34Z</time>
      </trkpt>
      <trkpt lat="62.632125433255" lon="17.969501278658">
        <ele>66</ele>
        <time>2018-02-19T18:28:35Z</time>
      </trkpt>
      <trkpt lat="62.63215602719" lon="17.969490633645">
        <ele>66.2</ele>
        <time>2018-02-19T18:28:36Z</time>
      </trkpt>
      <trkpt lat="62.632186872582" lon="17.969477138786">
        <ele>66.4</ele>
        <time>2018-02-19T18:28:37Z</time>
      </trkpt>
      <trkpt lat="62.632215790137" lon="17.969471187637">
        <ele>66.4</ele>
        <time>2018-02-19T18:28:38Z</time>
      </trkpt>
      <trkpt lat="62.63224655171" lon="17.969462219004">
        <ele>66.4</ele>
        <time>2018-02-19T18:28:39Z</time>
      </trkpt>
      <trkpt lat="62.632274882532" lon="17.969456267855">
        <ele>66.6</ele>
        <time>2018-02-19T18:28:40Z</time>
      </trkpt>
      <trkpt lat="62.632306147019" lon="17.969449813792">
        <ele>66.6</ele>
        <time>2018-02-19T18:28:41Z</time>
      </trkpt>
      <trkpt lat="62.632339087886" lon="17.969445371385">
        <ele>66.4</ele>
        <time>2018-02-19T18:28:42Z</time>
      </trkpt>
      <trkpt lat="62.632369346545" lon="17.969442605358">
        <ele>66.4</ele>
        <time>2018-02-19T18:28:43Z</time>
      </trkpt>
      <trkpt lat="62.632401365403" lon="17.969435983657">
        <ele>66.4</ele>
        <time>2018-02-19T18:28:44Z</time>
      </trkpt>
      <trkpt lat="62.632432294614" lon="17.969438833503">
        <ele>66.4</ele>
        <time>2018-02-19T18:28:45Z</time>
      </trkpt>
      <trkpt lat="62.63245861378" lon="17.969438749684">
        <ele>66.4</ele>
        <time>2018-02-19T18:28:46Z</time>
      </trkpt>
      <trkpt lat="62.632489375353" lon="17.969447383041">
        <ele>66.2</ele>
        <time>2018-02-19T18:28:47Z</time>
      </trkpt>
      <trkpt lat="62.632516029795" lon="17.969454256199">
        <ele>66.2</ele>
        <time>2018-02-19T18:28:48Z</time>
      </trkpt>
      <trkpt lat="62.632545534083" lon="17.969460542624">
        <ele>66.4</ele>
        <time>2018-02-19T18:28:49Z</time>
      </trkpt>
      <trkpt lat="62.63257260762" lon="17.96946842161">
        <ele>66.4</ele>
        <time>2018-02-19T18:28:50Z</time>
      </trkpt>
      <trkpt lat="62.632598507691" lon="17.969471271456">
        <ele>66.2</ele>
        <time>2018-02-19T18:28:51Z</time>
      </trkpt>
      <trkpt lat="62.632624156305" lon="17.969477976976">
        <ele>66.4</ele>
        <time>2018-02-19T18:28:52Z</time>
      </trkpt>
      <trkpt lat="62.632651732756" lon="17.969484850134">
        <ele>66.4</ele>
        <time>2018-02-19T18:28:53Z</time>
      </trkpt>
      <trkpt lat="62.632682075234" lon="17.969487280885">
        <ele>66.6</ele>
        <time>2018-02-19T18:28:54Z</time>
      </trkpt>
      <trkpt lat="62.632709986961" lon="17.969492226206">
        <ele>66.4</ele>
        <time>2018-02-19T18:28:55Z</time>
      </trkpt>
      <trkpt lat="62.632737982507" lon="17.969488957265">
        <ele>66.6</ele>
        <time>2018-02-19T18:28:56Z</time>
      </trkpt>
      <trkpt lat="62.632766313329" lon="17.969494573138">
        <ele>66.6</ele>
        <time>2018-02-19T18:28:57Z</time>
      </trkpt>
      <trkpt lat="62.632789866468" lon="17.969498261174">
        <ele>66.8</ele>
        <time>2018-02-19T18:28:58Z</time>
      </trkpt>
      <trkpt lat="62.632821130955" lon="17.969501278658">
        <ele>66.6</ele>
        <time>2018-02-19T18:28:59Z</time>
      </trkpt>
      <trkpt lat="62.632849377958" lon="17.969505721065">
        <ele>66.6</ele>
        <time>2018-02-19T18:29:00Z</time>
      </trkpt>
      <trkpt lat="62.632876200038" lon="17.969507145988">
        <ele>66.6</ele>
        <time>2018-02-19T18:29:01Z</time>
      </trkpt>
      <trkpt lat="62.632903357394" lon="17.969510498748">
        <ele>66.6</ele>
        <time>2018-02-19T18:29:02Z</time>
      </trkpt>
      <trkpt lat="62.632927748723" lon="17.969513935327">
        <ele>66.8</ele>
        <time>2018-02-19T18:29:03Z</time>
      </trkpt>
      <trkpt lat="62.632955576631" lon="17.969516366078">
        <ele>66.8</ele>
        <time>2018-02-19T18:29:04Z</time>
      </trkpt>
      <trkpt lat="62.632985248557" lon="17.969523993607">
        <ele>66.8</ele>
        <time>2018-02-19T18:29:05Z</time>
      </trkpt>
      <trkpt lat="62.633013411741" lon="17.969530028575">
        <ele>67</ele>
        <time>2018-02-19T18:29:06Z</time>
      </trkpt>
      <trkpt lat="62.633042161658" lon="17.969541176502">
        <ele>67</ele>
        <time>2018-02-19T18:29:07Z</time>
      </trkpt>
      <trkpt lat="62.633068397005" lon="17.969549809859">
        <ele>66.8</ele>
        <time>2018-02-19T18:29:08Z</time>
      </trkpt>
      <trkpt lat="62.63309815275" lon="17.969556180103">
        <ele>67</ele>
        <time>2018-02-19T18:29:09Z</time>
      </trkpt>
      <trkpt lat="62.633126232115" lon="17.969567244211">
        <ele>67.2</ele>
        <time>2018-02-19T18:29:10Z</time>
      </trkpt>
      <trkpt lat="62.633156909869" lon="17.969580487613">
        <ele>67</ele>
        <time>2018-02-19T18:29:11Z</time>
      </trkpt>
      <trkpt lat="62.633186665614" lon="17.969597921965">
        <ele>67</ele>
        <time>2018-02-19T18:29:12Z</time>
      </trkpt>
      <trkpt lat="62.633212481866" lon="17.969613931394">
        <ele>67.2</ele>
        <time>2018-02-19T18:29:13Z</time>
      </trkpt>
      <trkpt lat="62.633243578715" lon="17.969633796497">
        <ele>67.2</ele>
        <time>2018-02-19T18:29:14Z</time>
      </trkpt>
      <trkpt lat="62.633272244813" lon="17.969652236677">
        <ele>67.2</ele>
        <time>2018-02-19T18:29:15Z</time>
      </trkpt>
      <trkpt lat="62.633297725789" lon="17.969674532531">
        <ele>67.2</ele>
        <time>2018-02-19T18:29:16Z</time>
      </trkpt>
      <trkpt lat="62.633325805154" lon="17.969712251081">
        <ele>67.2</ele>
        <time>2018-02-19T18:29:17Z</time>
      </trkpt>
      <trkpt lat="62.633345754076" lon="17.96974921526">
        <ele>67.2</ele>
        <time>2018-02-19T18:29:18Z</time>
      </trkpt>
      <trkpt lat="62.63336721174" lon="17.969800763945">
        <ele>67.2</ele>
        <time>2018-02-19T18:29:19Z</time>
      </trkpt>
      <trkpt lat="62.633382466798" lon="17.969852144992">
        <ele>67.2</ele>
        <time>2018-02-19T18:29:20Z</time>
      </trkpt>
      <trkpt lat="62.633394788191" lon="17.969907884627">
        <ele>67.2</ele>
        <time>2018-02-19T18:29:21Z</time>
      </trkpt>
      <trkpt lat="62.633402080444" lon="17.969963288986">
        <ele>67.4</ele>
        <time>2018-02-19T18:29:22Z</time>
      </trkpt>
      <trkpt lat="62.633408450688" lon="17.970013328929">
        <ele>67.4</ele>
        <time>2018-02-19T18:29:23Z</time>
      </trkpt>
      <trkpt lat="62.633415323846" lon="17.970084155984">
        <ele>67.6</ele>
        <time>2018-02-19T18:29:24Z</time>
      </trkpt>
      <trkpt lat="62.633419682434" lon="17.970140566171">
        <ele>67.6</ele>
        <time>2018-02-19T18:29:25Z</time>
      </trkpt>
      <trkpt lat="62.633422616099" lon="17.9701984851">
        <ele>67.8</ele>
        <time>2018-02-19T18:29:26Z</time>
      </trkpt>
      <trkpt lat="62.633426136497" lon="17.970255984934">
        <ele>68.2</ele>
        <time>2018-02-19T18:29:27Z</time>
      </trkpt>
      <trkpt lat="62.633430159809" lon="17.970303761764">
        <ele>68.4</ele>
        <time>2018-02-19T18:29:28Z</time>
      </trkpt>
      <trkpt lat="62.633434350759" lon="17.970367548023">
        <ele>68.4</ele>
        <time>2018-02-19T18:29:29Z</time>
      </trkpt>
      <trkpt lat="62.633437954976" lon="17.97042228183">
        <ele>68.6</ele>
        <time>2018-02-19T18:29:30Z</time>
      </trkpt>
      <trkpt lat="62.633442397383" lon="17.970479697845">
        <ele>69</ele>
        <time>2018-02-19T18:29:31Z</time>
      </trkpt>
      <trkpt lat="62.633444073763" lon="17.970537868231">
        <ele>68.8</ele>
        <time>2018-02-19T18:29:32Z</time>
      </trkpt>
      <trkpt lat="62.633447845618" lon="17.970590925658">
        <ele>68.8</ele>
        <time>2018-02-19T18:29:33Z</time>
      </trkpt>
      <trkpt lat="62.633450863102" lon="17.970647671121">
        <ele>69</ele>
        <time>2018-02-19T18:29:34Z</time>
      </trkpt>
      <trkpt lat="62.633454634957" lon="17.97070559005">
        <ele>69.2</ele>
        <time>2018-02-19T18:29:35Z</time>
      </trkpt>
      <trkpt lat="62.633458658269" lon="17.970763676617">
        <ele>69.4</ele>
        <time>2018-02-19T18:29:36Z</time>
      </trkpt>
      <trkpt lat="62.633459999373" lon="17.970822685193">
        <ele>69.4</ele>
        <time>2018-02-19T18:29:37Z</time>
      </trkpt>
      <trkpt lat="62.633463519771" lon="17.970878508647">
        <ele>69.6</ele>
        <time>2018-02-19T18:29:38Z</time>
      </trkpt>
      <trkpt lat="62.633466621074" lon="17.970942462544">
        <ele>69.6</ele>
        <time>2018-02-19T18:29:39Z</time>
      </trkpt>
      <trkpt lat="62.633468800368" lon="17.970997196351">
        <ele>69.6</ele>
        <time>2018-02-19T18:29:40Z</time>
      </trkpt>
      <trkpt lat="62.63346947092" lon="17.971059892963">
        <ele>70</ele>
        <time>2018-02-19T18:29:41Z</time>
      </trkpt>
      <trkpt lat="62.633468548911" lon="17.971117476616">
        <ele>70</ele>
        <time>2018-02-19T18:29:42Z</time>
      </trkpt>
      <trkpt lat="62.633468548911" lon="17.971178245391">
        <ele>70</ele>
        <time>2018-02-19T18:29:43Z</time>
      </trkpt>
      <trkpt lat="62.633469135644" lon="17.971245300591">
        <ele>70.2</ele>
        <time>2018-02-19T18:29:44Z</time>
      </trkpt>
      <trkpt lat="62.633469387101" lon="17.971308751574">
        <ele>70.4</ele>
        <time>2018-02-19T18:29:45Z</time>
      </trkpt>
      <trkpt lat="62.633468716549" lon="17.971369687987">
        <ele>70.6</ele>
        <time>2018-02-19T18:29:46Z</time>
      </trkpt>
      <trkpt lat="62.633467543083" lon="17.97143313897">
        <ele>70.6</ele>
        <time>2018-02-19T18:29:47Z</time>
      </trkpt>
      <trkpt lat="62.633466369617" lon="17.971493069555">
        <ele>70.8</ele>
        <time>2018-02-19T18:29:48Z</time>
      </trkpt>
      <trkpt lat="62.633467123988" lon="17.971559621841">
        <ele>70.8</ele>
        <time>2018-02-19T18:29:49Z</time>
      </trkpt>
      <trkpt lat="62.633465447608" lon="17.971621480263">
        <ele>70.8</ele>
        <time>2018-02-19T18:29:50Z</time>
      </trkpt>
      <trkpt lat="62.63346025083" lon="17.971683087228">
        <ele>71</ele>
        <time>2018-02-19T18:29:51Z</time>
      </trkpt>
      <trkpt lat="62.633454634957" lon="17.971741509071">
        <ele>71</ele>
        <time>2018-02-19T18:29:52Z</time>
      </trkpt>
      <trkpt lat="62.633449689636" lon="17.97180278076">
        <ele>71.2</ele>
        <time>2018-02-19T18:29:53Z</time>
      </trkpt>
      <trkpt lat="62.63344432522" lon="17.971864974458">
        <ele>71.2</ele>
        <time>2018-02-19T18:29:54Z</time>
      </trkpt>
      <trkpt lat="62.633437535881" lon="17.971925743233">
        <ele>71.4</ele>
        <time>2018-02-19T18:29:55Z</time>
      </trkpt>
      <trkpt lat="62.633430327447" lon="17.971985003266">
        <ele>71.4</ele>
        <time>2018-02-19T18:29:56Z</time>
      </trkpt>
      <trkpt lat="62.633422951375" lon="17.972046274955">
        <ele>71.6</ele>
        <time>2018-02-19T18:29:57Z</time>
      </trkpt>
      <trkpt lat="62.633416245855" lon="17.972096398717">
        <ele>71.6</ele>
        <time>2018-02-19T18:29:58Z</time>
      </trkpt>
      <trkpt lat="62.633409372697" lon="17.972160855528">
        <ele>71.6</ele>
        <time>2018-02-19T18:29:59Z</time>
      </trkpt>
      <trkpt lat="62.633401074616" lon="17.972220534656">
        <ele>71.8</ele>
        <time>2018-02-19T18:30:00Z</time>
      </trkpt>
      <trkpt lat="62.633393279449" lon="17.972276861024">
        <ele>72</ele>
        <time>2018-02-19T18:30:01Z</time>
      </trkpt>
      <trkpt lat="62.633384897549" lon="17.972333522668">
        <ele>72</ele>
        <time>2018-02-19T18:30:02Z</time>
      </trkpt>
      <trkpt lat="62.633376180373" lon="17.97238532281">
        <ele>72</ele>
        <time>2018-02-19T18:30:03Z</time>
      </trkpt>
      <trkpt lat="62.633367966111" lon="17.97243729059">
        <ele>72.2</ele>
        <time>2018-02-19T18:30:04Z</time>
      </trkpt>
      <trkpt lat="62.633357404917" lon="17.972497975546">
        <ele>72.4</ele>
        <time>2018-02-19T18:30:05Z</time>
      </trkpt>
      <trkpt lat="62.633346759904" lon="17.972550781516">
        <ele>72.4</ele>
        <time>2018-02-19T18:30:06Z</time>
      </trkpt>
      <trkpt lat="62.633333767959" lon="17.972604174219">
        <ele>72.4</ele>
        <time>2018-02-19T18:30:07Z</time>
      </trkpt>
      <trkpt lat="62.633323709679" lon="17.972654884714">
        <ele>72.6</ele>
        <time>2018-02-19T18:30:08Z</time>
      </trkpt>
      <trkpt lat="62.633313986675" lon="17.97271892243">
        <ele>72.8</ele>
        <time>2018-02-19T18:30:09Z</time>
      </trkpt>
      <trkpt lat="62.633302587291" lon="17.972772818047">
        <ele>72.6</ele>
        <time>2018-02-19T18:30:10Z</time>
      </trkpt>
      <trkpt lat="62.633290265898" lon="17.972828809139">
        <ele>72.8</ele>
        <time>2018-02-19T18:30:11Z</time>
      </trkpt>
      <trkpt lat="62.633277609229" lon="17.972880944557">
        <ele>72.8</ele>
        <time>2018-02-19T18:30:12Z</time>
      </trkpt>
      <trkpt lat="62.633265539293" lon="17.9729309845">
        <ele>73</ele>
        <time>2018-02-19T18:30:13Z</time>
      </trkpt>
      <trkpt lat="62.633252295891" lon="17.97298714323">
        <ele>73</ele>
        <time>2018-02-19T18:30:14Z</time>
      </trkpt>
      <trkpt lat="62.633241399421" lon="17.973041290304">
        <ele>73.2</ele>
        <time>2018-02-19T18:30:15Z</time>
      </trkpt>
      <trkpt lat="62.633232095512" lon="17.973090324419">
        <ele>73.2</ele>
        <time>2018-02-19T18:30:16Z</time>
      </trkpt>
      <trkpt lat="62.633222623965" lon="17.973150925556">
        <ele>73.4</ele>
        <time>2018-02-19T18:30:17Z</time>
      </trkpt>
      <trkpt lat="62.633212565685" lon="17.973201216956">
        <ele>73.4</ele>
        <time>2018-02-19T18:30:18Z</time>
      </trkpt>
      <trkpt lat="62.633200998663" lon="17.973258549152">
        <ele>73.6</ele>
        <time>2018-02-19T18:30:19Z</time>
      </trkpt>
      <trkpt lat="62.633187755261" lon="17.973311858036">
        <ele>73.6</ele>
        <time>2018-02-19T18:30:20Z</time>
      </trkpt>
      <trkpt lat="62.633175685325" lon="17.973362065617">
        <ele>73.8</ele>
        <time>2018-02-19T18:30:21Z</time>
      </trkpt>
      <trkpt lat="62.633163280113" lon="17.973409423352">
        <ele>74</ele>
        <time>2018-02-19T18:30:22Z</time>
      </trkpt>
      <trkpt lat="62.63315012053" lon="17.973460636761">
        <ele>74</ele>
        <time>2018-02-19T18:30:23Z</time>
      </trkpt>
      <trkpt lat="62.633135200748" lon="17.973514616197">
        <ele>74</ele>
        <time>2018-02-19T18:30:24Z</time>
      </trkpt>
      <trkpt lat="62.63312162207" lon="17.973566416339">
        <ele>74.4</ele>
        <time>2018-02-19T18:30:25Z</time>
      </trkpt>
      <trkpt lat="62.633110390324" lon="17.973617378291">
        <ele>74.4</ele>
        <time>2018-02-19T18:30:26Z</time>
      </trkpt>
      <trkpt lat="62.633098655664" lon="17.97367194446">
        <ele>74.4</ele>
        <time>2018-02-19T18:30:27Z</time>
      </trkpt>
      <trkpt lat="62.633087172461" lon="17.973718128729">
        <ele>74.6</ele>
        <time>2018-02-19T18:30:28Z</time>
      </trkpt>
      <trkpt lat="62.633068229367" lon="17.973779065142">
        <ele>74.6</ele>
        <time>2018-02-19T18:30:29Z</time>
      </trkpt>
      <trkpt lat="62.633052806671" lon="17.973833798949">
        <ele>74.4</ele>
        <time>2018-02-19T18:30:30Z</time>
      </trkpt>
      <trkpt lat="62.633038473622" lon="17.973888029842">
        <ele>74.6</ele>
        <time>2018-02-19T18:30:31Z</time>
      </trkpt>
      <trkpt lat="62.633023302383" lon="17.973942344554">
        <ele>74.8</ele>
        <time>2018-02-19T18:30:32Z</time>
      </trkpt>
      <trkpt lat="62.633007292954" lon="17.973994731429">
        <ele>75</ele>
        <time>2018-02-19T18:30:33Z</time>
      </trkpt>
      <trkpt lat="62.632991534982" lon="17.974047956494">
        <ele>74.8</ele>
        <time>2018-02-19T18:30:34Z</time>
      </trkpt>
      <trkpt lat="62.632971753698" lon="17.974111491296">
        <ele>74.8</ele>
        <time>2018-02-19T18:30:35Z</time>
      </trkpt>
      <trkpt lat="62.632955325174" lon="17.97416731475">
        <ele>74.8</ele>
        <time>2018-02-19T18:30:36Z</time>
      </trkpt>
      <trkpt lat="62.632937723184" lon="17.974220455996">
        <ele>75</ele>
        <time>2018-02-19T18:30:37Z</time>
      </trkpt>
      <trkpt lat="62.632920121194" lon="17.974268987197">
        <ele>75</ele>
        <time>2018-02-19T18:30:38Z</time>
      </trkpt>
      <trkpt lat="62.632900842824" lon="17.974323972461">
        <ele>74.8</ele>
        <time>2018-02-19T18:30:39Z</time>
      </trkpt>
      <trkpt lat="62.632881145359" lon="17.974369234721">
        <ele>75</ele>
        <time>2018-02-19T18:30:40Z</time>
      </trkpt>
      <trkpt lat="62.632855999659" lon="17.974411060402">
        <ele>75</ele>
        <time>2018-02-19T18:30:41Z</time>
      </trkpt>
      <trkpt lat="62.632828004113" lon="17.97444140288">
        <ele>75</ele>
        <time>2018-02-19T18:30:42Z</time>
      </trkpt>
      <trkpt lat="62.632799924748" lon="17.974461435621">
        <ele>75</ele>
        <time>2018-02-19T18:30:43Z</time>
      </trkpt>
      <trkpt lat="62.632768241166" lon="17.974472332091">
        <ele>75.2</ele>
        <time>2018-02-19T18:30:44Z</time>
      </trkpt>
      <trkpt lat="62.632737060498" lon="17.974468811693">
        <ele>75.2</ele>
        <time>2018-02-19T18:30:45Z</time>
      </trkpt>
      <trkpt lat="62.632711411884" lon="17.974455149196">
        <ele>75.2</ele>
        <time>2018-02-19T18:30:46Z</time>
      </trkpt>
      <trkpt lat="62.632683164881" lon="17.974435870826">
        <ele>75.4</ele>
        <time>2018-02-19T18:30:47Z</time>
      </trkpt>
      <trkpt lat="62.632656929534" lon="17.974416676275">
        <ele>75.4</ele>
        <time>2018-02-19T18:30:48Z</time>
      </trkpt>
      <trkpt lat="62.632629353083" lon="17.974393793688">
        <ele>75.4</ele>
        <time>2018-02-19T18:30:49Z</time>
      </trkpt>
      <trkpt lat="62.632601776632" lon="17.974369737635">
        <ele>75.4</ele>
        <time>2018-02-19T18:30:50Z</time>
      </trkpt>
      <trkpt lat="62.632574451638" lon="17.974342747917">
        <ele>75.6</ele>
        <time>2018-02-19T18:30:51Z</time>
      </trkpt>
      <trkpt lat="62.632552993974" lon="17.974314249457">
        <ele>75.6</ele>
        <time>2018-02-19T18:30:52Z</time>
      </trkpt>
      <trkpt lat="62.632527010084" lon="17.974281895323">
        <ele>75.6</ele>
        <time>2018-02-19T18:30:53Z</time>
      </trkpt>
      <trkpt lat="62.632499601271" lon="17.974252391035">
        <ele>75.6</ele>
        <time>2018-02-19T18:30:54Z</time>
      </trkpt>
      <trkpt lat="62.632474874666" lon="17.974227748249">
        <ele>75.6</ele>
        <time>2018-02-19T18:30:55Z</time>
      </trkpt>
      <trkpt lat="62.632448136405" lon="17.974205955309">
        <ele>75.6</ele>
        <time>2018-02-19T18:30:56Z</time>
      </trkpt>
      <trkpt lat="62.632421649601" lon="17.974186760758">
        <ele>75.6</ele>
        <time>2018-02-19T18:30:57Z</time>
      </trkpt>
      <trkpt lat="62.632397258272" lon="17.974169074949">
        <ele>75.6</ele>
        <time>2018-02-19T18:30:58Z</time>
      </trkpt>
      <trkpt lat="62.63236892745" lon="17.974143091059">
        <ele>75.8</ele>
        <time>2018-02-19T18:30:59Z</time>
      </trkpt>
      <trkpt lat="62.632345877225" lon="17.974121298119">
        <ele>75.6</ele>
        <time>2018-02-19T18:31:00Z</time>
      </trkpt>
      <trkpt lat="62.632321402077" lon="17.974095314229">
        <ele>75.6</ele>
        <time>2018-02-19T18:31:01Z</time>
      </trkpt>
      <trkpt lat="62.632296172558" lon="17.974068911244">
        <ele>75.6</ele>
        <time>2018-02-19T18:31:02Z</time>
      </trkpt>
      <trkpt lat="62.632272284143" lon="17.974044855191">
        <ele>75.8</ele>
        <time>2018-02-19T18:31:03Z</time>
      </trkpt>
      <trkpt lat="62.632246300253" lon="17.974015099446">
        <ele>75.6</ele>
        <time>2018-02-19T18:31:04Z</time>
      </trkpt>
      <trkpt lat="62.63222056782" lon="17.973981907122">
        <ele>75.6</ele>
        <time>2018-02-19T18:31:05Z</time>
      </trkpt>
      <trkpt lat="62.632193326645" lon="17.973951480825">
        <ele>75.4</ele>
        <time>2018-02-19T18:31:06Z</time>
      </trkpt>
      <trkpt lat="62.632164492909" lon="17.973920300157">
        <ele>75.4</ele>
        <time>2018-02-19T18:31:07Z</time>
      </trkpt>
      <trkpt lat="62.632140436856" lon="17.973893813353">
        <ele>75.4</ele>
        <time>2018-02-19T18:31:08Z</time>
      </trkpt>
      <trkpt lat="62.632114201509" lon="17.973860788667">
        <ele>75.2</ele>
        <time>2018-02-19T18:31:09Z</time>
      </trkpt>
      <trkpt lat="62.632091318922" lon="17.973828350714">
        <ele>75.4</ele>
        <time>2018-02-19T18:31:10Z</time>
      </trkpt>
      <trkpt lat="62.632066005584" lon="17.973796080399">
        <ele>75.4</ele>
        <time>2018-02-19T18:31:11Z</time>
      </trkpt>
      <trkpt lat="62.63203951878" lon="17.97376582174">
        <ele>75.4</ele>
        <time>2018-02-19T18:31:12Z</time>
      </trkpt>
      <trkpt lat="62.632015798003" lon="17.973739670212">
        <ele>75.4</ele>
        <time>2018-02-19T18:31:13Z</time>
      </trkpt>
      <trkpt lat="62.631988808285" lon="17.97371133939">
        <ele>75.6</ele>
        <time>2018-02-19T18:31:14Z</time>
      </trkpt>
      <trkpt lat="62.631961650929" lon="17.973682757111">
        <ele>75.4</ele>
        <time>2018-02-19T18:31:15Z</time>
      </trkpt>
      <trkpt lat="62.631939941808" lon="17.973659120153">
        <ele>75.4</ele>
        <time>2018-02-19T18:31:16Z</time>
      </trkpt>
      <trkpt lat="62.63191546666" lon="17.973629448227">
        <ele>75.4</ele>
        <time>2018-02-19T18:31:17Z</time>
      </trkpt>
      <trkpt lat="62.631890153322" lon="17.973600195396">
        <ele>75.4</ele>
        <time>2018-02-19T18:31:18Z</time>
      </trkpt>
      <trkpt lat="62.63186349888" lon="17.973565159054">
        <ele>75.4</ele>
        <time>2018-02-19T18:31:19Z</time>
      </trkpt>
      <trkpt lat="62.631840532474" lon="17.973535990042">
        <ele>75.2</ele>
        <time>2018-02-19T18:31:20Z</time>
      </trkpt>
      <trkpt lat="62.631815386774" lon="17.973503552089">
        <ele>75.2</ele>
        <time>2018-02-19T18:31:21Z</time>
      </trkpt>
      <trkpt lat="62.631791665997" lon="17.973474466896">
        <ele>75.2</ele>
        <time>2018-02-19T18:31:22Z</time>
      </trkpt>
      <trkpt lat="62.631766352659" lon="17.97343808945">
        <ele>75.2</ele>
        <time>2018-02-19T18:31:23Z</time>
      </trkpt>
      <trkpt lat="62.631739865855" lon="17.973403807479">
        <ele>75.2</ele>
        <time>2018-02-19T18:31:24Z</time>
      </trkpt>
      <trkpt lat="62.631715055431" lon="17.973374470829">
        <ele>75.2</ele>
        <time>2018-02-19T18:31:25Z</time>
      </trkpt>
      <trkpt lat="62.631689825912" lon="17.973339350668">
        <ele>75.2</ele>
        <time>2018-02-19T18:31:26Z</time>
      </trkpt>
      <trkpt lat="62.631663925841" lon="17.973304314326">
        <ele>75.2</ele>
        <time>2018-02-19T18:31:27Z</time>
      </trkpt>
      <trkpt lat="62.631642635815" lon="17.973271960192">
        <ele>75.2</ele>
        <time>2018-02-19T18:31:28Z</time>
      </trkpt>
      <trkpt lat="62.631615143183" lon="17.973226362656">
        <ele>75.2</ele>
        <time>2018-02-19T18:31:29Z</time>
      </trkpt>
      <trkpt lat="62.631594523709" lon="17.973189230839">
        <ele>75.2</ele>
        <time>2018-02-19T18:31:30Z</time>
      </trkpt>
      <trkpt lat="62.631575412977" lon="17.973146734606">
        <ele>75.2</ele>
        <time>2018-02-19T18:31:31Z</time>
      </trkpt>
      <trkpt lat="62.63155588315" lon="17.973099963604">
        <ele>75</ele>
        <time>2018-02-19T18:31:32Z</time>
      </trkpt>
      <trkpt lat="62.631537275332" lon="17.973060987769">
        <ele>75</ele>
        <time>2018-02-19T18:31:33Z</time>
      </trkpt>
      <trkpt lat="62.631517158772" lon="17.973020922287">
        <ele>74.8</ele>
        <time>2018-02-19T18:31:34Z</time>
      </trkpt>
      <trkpt lat="62.631496958393" lon="17.972973648371">
        <ele>74.8</ele>
        <time>2018-02-19T18:31:35Z</time>
      </trkpt>
      <trkpt lat="62.631479440222" lon="17.972929224301">
        <ele>74.6</ele>
        <time>2018-02-19T18:31:36Z</time>
      </trkpt>
      <trkpt lat="62.631462760241" lon="17.972881950385">
        <ele>74.4</ele>
        <time>2018-02-19T18:31:37Z</time>
      </trkpt>
      <trkpt lat="62.631445744984" lon="17.972836520487">
        <ele>74.4</ele>
        <time>2018-02-19T18:31:38Z</time>
      </trkpt>
      <trkpt lat="62.63142680189" lon="17.972786229087">
        <ele>74.2</ele>
        <time>2018-02-19T18:31:39Z</time>
      </trkpt>
      <trkpt lat="62.631411798289" lon="17.972736943515">
        <ele>74</ele>
        <time>2018-02-19T18:31:40Z</time>
      </trkpt>
      <trkpt lat="62.631392603738" lon="17.972680868604">
        <ele>73.6</ele>
        <time>2018-02-19T18:31:41Z</time>
      </trkpt>
      <trkpt lat="62.63137399592" lon="17.972635019611">
        <ele>73.4</ele>
        <time>2018-02-19T18:31:42Z</time>
      </trkpt>
      <trkpt lat="62.631356058654" lon="17.972586907505">
        <ele>73.2</ele>
        <time>2018-02-19T18:31:43Z</time>
      </trkpt>
      <trkpt lat="62.631337367017" lon="17.972532928069">
        <ele>72.8</ele>
        <time>2018-02-19T18:31:44Z</time>
      </trkpt>
      <trkpt lat="62.631319345932" lon="17.972486073248">
        <ele>72.8</ele>
        <time>2018-02-19T18:31:45Z</time>
      </trkpt>
      <trkpt lat="62.631301157209" lon="17.972437961142">
        <ele>72.6</ele>
        <time>2018-02-19T18:31:46Z</time>
      </trkpt>
      <trkpt lat="62.631281627382" lon="17.972383981706">
        <ele>72.2</ele>
        <time>2018-02-19T18:31:47Z</time>
      </trkpt>
      <trkpt lat="62.631264360668" lon="17.972335450505">
        <ele>72.2</ele>
        <time>2018-02-19T18:31:48Z</time>
      </trkpt>
      <trkpt lat="62.631245585212" lon="17.972273759721">
        <ele>72</ele>
        <time>2018-02-19T18:31:49Z</time>
      </trkpt>
      <trkpt lat="62.631227396489" lon="17.972218774457">
        <ele>71.8</ele>
        <time>2018-02-19T18:31:50Z</time>
      </trkpt>
      <trkpt lat="62.631210716508" lon="17.972162531908">
        <ele>71.8</ele>
        <time>2018-02-19T18:31:51Z</time>
      </trkpt>
      <trkpt lat="62.631196048183" lon="17.972107127549">
        <ele>71.8</ele>
        <time>2018-02-19T18:31:52Z</time>
      </trkpt>
      <trkpt lat="62.631180206392" lon="17.972053315751">
        <ele>71.6</ele>
        <time>2018-02-19T18:31:53Z</time>
      </trkpt>
      <trkpt lat="62.631163945506" lon="17.971994893908">
        <ele>71.6</ele>
        <time>2018-02-19T18:31:54Z</time>
      </trkpt>
      <trkpt lat="62.63115019919" lon="17.971938399902">
        <ele>71.6</ele>
        <time>2018-02-19T18:31:55Z</time>
      </trkpt>
      <trkpt lat="62.631135698503" lon="17.971884169009">
        <ele>71.6</ele>
        <time>2018-02-19T18:31:56Z</time>
      </trkpt>
      <trkpt lat="62.631121365454" lon="17.971826920632">
        <ele>71.4</ele>
        <time>2018-02-19T18:31:57Z</time>
      </trkpt>
      <trkpt lat="62.631111223355" lon="17.97177595868">
        <ele>71.2</ele>
        <time>2018-02-19T18:31:58Z</time>
      </trkpt>
      <trkpt lat="62.631096974125" lon="17.971713010611">
        <ele>71</ele>
        <time>2018-02-19T18:31:59Z</time>
      </trkpt>
      <trkpt lat="62.631083563085" lon="17.971655510777">
        <ele>71</ele>
        <time>2018-02-19T18:32:00Z</time>
      </trkpt>
      <trkpt lat="62.631069481493" lon="17.971598010943">
        <ele>70.8</ele>
        <time>2018-02-19T18:32:01Z</time>
      </trkpt>
      <trkpt lat="62.631055902815" lon="17.971541014023">
        <ele>70.6</ele>
        <time>2018-02-19T18:32:02Z</time>
      </trkpt>
      <trkpt lat="62.631044754888" lon="17.971482256904">
        <ele>70.4</ele>
        <time>2018-02-19T18:32:03Z</time>
      </trkpt>
      <trkpt lat="62.631034193694" lon="17.971424673251">
        <ele>70.2</ele>
        <time>2018-02-19T18:32:04Z</time>
      </trkpt>
      <trkpt lat="62.631023548681" lon="17.971360719354">
        <ele>70</ele>
        <time>2018-02-19T18:32:05Z</time>
      </trkpt>
      <trkpt lat="62.631014160953" lon="17.971298022742">
        <ele>70</ele>
        <time>2018-02-19T18:32:06Z</time>
      </trkpt>
      <trkpt lat="62.631005862872" lon="17.971236415777">
        <ele>70</ele>
        <time>2018-02-19T18:32:07Z</time>
      </trkpt>
      <trkpt lat="62.630997983886" lon="17.971178580667">
        <ele>70</ele>
        <time>2018-02-19T18:32:08Z</time>
      </trkpt>
      <trkpt lat="62.630989015253" lon="17.971114375313">
        <ele>70</ele>
        <time>2018-02-19T18:32:09Z</time>
      </trkpt>
      <trkpt lat="62.630981555362" lon="17.971059725325">
        <ele>69.8</ele>
        <time>2018-02-19T18:32:10Z</time>
      </trkpt>
      <trkpt lat="62.630972754367" lon="17.970995939066">
        <ele>69.6</ele>
        <time>2018-02-19T18:32:11Z</time>
      </trkpt>
      <trkpt lat="62.630965545933" lon="17.970937098128">
        <ele>69.4</ele>
        <time>2018-02-19T18:32:12Z</time>
      </trkpt>
      <trkpt lat="62.630958672775" lon="17.97088328633">
        <ele>69.4</ele>
        <time>2018-02-19T18:32:13Z</time>
      </trkpt>
      <trkpt lat="62.630949536504" lon="17.970819164795">
        <ele>69.2</ele>
        <time>2018-02-19T18:32:14Z</time>
      </trkpt>
      <trkpt lat="62.630940986966" lon="17.970762084056">
        <ele>69</ele>
        <time>2018-02-19T18:32:15Z</time>
      </trkpt>
      <trkpt lat="62.630933862351" lon="17.970708607534">
        <ele>69.2</ele>
        <time>2018-02-19T18:32:16Z</time>
      </trkpt>
      <trkpt lat="62.630926989193" lon="17.970644905094">
        <ele>69</ele>
        <time>2018-02-19T18:32:17Z</time>
      </trkpt>
      <trkpt lat="62.630919864578" lon="17.970588327269">
        <ele>69</ele>
        <time>2018-02-19T18:32:18Z</time>
      </trkpt>
      <trkpt lat="62.630912488506" lon="17.970521858802">
        <ele>68.6</ele>
        <time>2018-02-19T18:32:19Z</time>
      </trkpt>
      <trkpt lat="62.630908716651" lon="17.970453965412">
        <ele>68.6</ele>
        <time>2018-02-19T18:32:20Z</time>
      </trkpt>
      <trkpt lat="62.630906034443" lon="17.970389760058">
        <ele>68.4</ele>
        <time>2018-02-19T18:32:21Z</time>
      </trkpt>
      <trkpt lat="62.630907375547" lon="17.970330583844">
        <ele>68.2</ele>
        <time>2018-02-19T18:32:22Z</time>
      </trkpt>
      <trkpt lat="62.630912069411" lon="17.970270820897">
        <ele>68</ele>
        <time>2018-02-19T18:32:23Z</time>
      </trkpt>
      <trkpt lat="62.630920116035" lon="17.970184487327">
        <ele>67.8</ele>
        <time>2018-02-19T18:32:25Z</time>
      </trkpt>
      <trkpt lat="62.630921540958" lon="17.970160431274">
        <ele>67.6</ele>
        <time>2018-02-19T18:32:26Z</time>
      </trkpt>
      <trkpt lat="62.630921624777" lon="17.970143835112">
        <ele>67.6</ele>
        <time>2018-02-19T18:32:27Z</time>
      </trkpt>
      <trkpt lat="62.630919864578" lon="17.970135453212">
        <ele>67.8</ele>
        <time>2018-02-19T18:32:28Z</time>
      </trkpt>
      <trkpt lat="62.630915422171" lon="17.970131346081">
        <ele>67.8</ele>
        <time>2018-02-19T18:32:29Z</time>
      </trkpt>
      <trkpt lat="62.630916176542" lon="17.9701314299">
        <ele>67.6</ele>
        <time>2018-02-19T18:32:30Z</time>
      </trkpt>
      <trkpt lat="62.631195712907" lon="17.969997906233">
        <ele>67</ele>
        <time>2018-02-19T18:35:04Z</time>
      </trkpt>
      <trkpt lat="62.6312247981" lon="17.969976783845">
        <ele>67</ele>
        <time>2018-02-19T18:35:05Z</time>
      </trkpt>
      <trkpt lat="62.631260504994" lon="17.969957421656">
        <ele>66.6</ele>
        <time>2018-02-19T18:35:06Z</time>
      </trkpt>
      <trkpt lat="62.631287829988" lon="17.969940657856">
        <ele>66.6</ele>
        <time>2018-02-19T18:35:07Z</time>
      </trkpt>
      <trkpt lat="62.631314065335" lon="17.969930515757">
        <ele>66.4</ele>
        <time>2018-02-19T18:35:08Z</time>
      </trkpt>
      <trkpt lat="62.631344072537" lon="17.969911656482">
        <ele>66.4</ele>
        <time>2018-02-19T18:35:09Z</time>
      </trkpt>
      <trkpt lat="62.63137734868" lon="17.969888019524">
        <ele>66.6</ele>
        <time>2018-02-19T18:35:10Z</time>
      </trkpt>
      <trkpt lat="62.63140500895" lon="17.969869663163">
        <ele>66.6</ele>
        <time>2018-02-19T18:35:11Z</time>
      </trkpt>
      <trkpt lat="62.63143937474" lon="17.969845942386">
        <ele>66.4</ele>
        <time>2018-02-19T18:35:12Z</time>
      </trkpt>
      <trkpt lat="62.63147290234" lon="17.969825742007">
        <ele>66.4</ele>
        <time>2018-02-19T18:35:13Z</time>
      </trkpt>
      <trkpt lat="62.631501233162" lon="17.969811492777">
        <ele>66.6</ele>
        <time>2018-02-19T18:35:14Z</time>
      </trkpt>
      <trkpt lat="62.631538448798" lon="17.969793890787">
        <ele>66.8</ele>
        <time>2018-02-19T18:35:15Z</time>
      </trkpt>
      <trkpt lat="62.631567114896" lon="17.969780395928">
        <ele>66.6</ele>
        <time>2018-02-19T18:35:16Z</time>
      </trkpt>
      <trkpt lat="62.631593182605" lon="17.969764637956">
        <ele>66.6</ele>
        <time>2018-02-19T18:35:17Z</time>
      </trkpt>
      <trkpt lat="62.63162461473" lon="17.969736893867">
        <ele>66.8</ele>
        <time>2018-02-19T18:35:18Z</time>
      </trkpt>
      <trkpt lat="62.631649928068" lon="17.969711412891">
        <ele>66.8</ele>
        <time>2018-02-19T18:35:19Z</time>
      </trkpt>
      <trkpt lat="62.631687059885" lon="17.969677885291">
        <ele>66.4</ele>
        <time>2018-02-19T18:35:20Z</time>
      </trkpt>
      <trkpt lat="62.63171681563" lon="17.969644944424">
        <ele>66.4</ele>
        <time>2018-02-19T18:35:21Z</time>
      </trkpt>
      <trkpt lat="62.631749588859" lon="17.969611081548">
        <ele>66.4</ele>
        <time>2018-02-19T18:35:22Z</time>
      </trkpt>
      <trkpt lat="62.631774986016" lon="17.96958241545">
        <ele>66.2</ele>
        <time>2018-02-19T18:35:23Z</time>
      </trkpt>
      <trkpt lat="62.631804322666" lon="17.969555844827">
        <ele>66.2</ele>
        <time>2018-02-19T18:35:24Z</time>
      </trkpt>
      <trkpt lat="62.631837431171" lon="17.969544613081">
        <ele>66</ele>
        <time>2018-02-19T18:35:25Z</time>
      </trkpt>
      <trkpt lat="62.631857463912" lon="17.969541260321">
        <ele>66</ele>
        <time>2018-02-19T18:35:26Z</time>
      </trkpt>
      <trkpt lat="62.631894260453" lon="17.969539835398">
        <ele>65.8</ele>
        <time>2018-02-19T18:35:27Z</time>
      </trkpt>
      <trkpt lat="62.631922255999" lon="17.969536482638">
        <ele>65.6</ele>
        <time>2018-02-19T18:35:28Z</time>
      </trkpt>
      <trkpt lat="62.631948407527" lon="17.969534470982">
        <ele>65.6</ele>
        <time>2018-02-19T18:35:29Z</time>
      </trkpt>
      <trkpt lat="62.631984617335" lon="17.969530280032">
        <ele>65.8</ele>
        <time>2018-02-19T18:35:30Z</time>
      </trkpt>
      <trkpt lat="62.632017222926" lon="17.969528016919">
        <ele>65.8</ele>
        <time>2018-02-19T18:35:31Z</time>
      </trkpt>
      <trkpt lat="62.632049912336" lon="17.969522987779">
        <ele>66</ele>
        <time>2018-02-19T18:35:32Z</time>
      </trkpt>
      <trkpt lat="62.632079165167" lon="17.969515695526">
        <ele>66</ele>
        <time>2018-02-19T18:35:33Z</time>
      </trkpt>
      <trkpt lat="62.632109507645" lon="17.969507732721">
        <ele>66</ele>
        <time>2018-02-19T18:35:34Z</time>
      </trkpt>
      <trkpt lat="62.632141526503" lon="17.96950027283">
        <ele>66.2</ele>
        <time>2018-02-19T18:35:35Z</time>
      </trkpt>
      <trkpt lat="62.632175640836" lon="17.969493399672">
        <ele>66</ele>
        <time>2018-02-19T18:35:36Z</time>
      </trkpt>
      <trkpt lat="62.632206402409" lon="17.969485688324">
        <ele>66.2</ele>
        <time>2018-02-19T18:35:37Z</time>
      </trkpt>
      <trkpt lat="62.632234230317" lon="17.96947512713">
        <ele>66.2</ele>
        <time>2018-02-19T18:35:38Z</time>
      </trkpt>
      <trkpt lat="62.632263483148" lon="17.969470014171">
        <ele>66.4</ele>
        <time>2018-02-19T18:35:39Z</time>
      </trkpt>
      <trkpt lat="62.632295753463" lon="17.969460794081">
        <ele>66.4</ele>
        <time>2018-02-19T18:35:40Z</time>
      </trkpt>
      <trkpt lat="62.632325928303" lon="17.969455513484">
        <ele>66.4</ele>
        <time>2018-02-19T18:35:41Z</time>
      </trkpt>
      <trkpt lat="62.632359288265" lon="17.969454004742">
        <ele>66.4</ele>
        <time>2018-02-19T18:35:42Z</time>
      </trkpt>
      <trkpt lat="62.632393654055" lon="17.969458028054">
        <ele>66.4</ele>
        <time>2018-02-19T18:35:43Z</time>
      </trkpt>
      <trkpt lat="62.63242424799" lon="17.96946171609">
        <ele>66.4</ele>
        <time>2018-02-19T18:35:44Z</time>
      </trkpt>
      <trkpt lat="62.632460206341" lon="17.969466242316">
        <ele>66.4</ele>
        <time>2018-02-19T18:35:45Z</time>
      </trkpt>
      <trkpt lat="62.632495075045" lon="17.969472361103">
        <ele>66.2</ele>
        <time>2018-02-19T18:35:46Z</time>
      </trkpt>
      <trkpt lat="62.632523238229" lon="17.969477976976">
        <ele>66.2</ele>
        <time>2018-02-19T18:35:47Z</time>
      </trkpt>
      <trkpt lat="62.63255584382" lon="17.969488621989">
        <ele>66</ele>
        <time>2018-02-19T18:35:48Z</time>
      </trkpt>
      <trkpt lat="62.63258518047" lon="17.969493902586">
        <ele>65.8</ele>
        <time>2018-02-19T18:35:49Z</time>
      </trkpt>
      <trkpt lat="62.632618875708" lon="17.969504296142">
        <ele>66</ele>
        <time>2018-02-19T18:35:50Z</time>
      </trkpt>
      <trkpt lat="62.632649218186" lon="17.969508067997">
        <ele>66</ele>
        <time>2018-02-19T18:35:51Z</time>
      </trkpt>
      <trkpt lat="62.632680147397" lon="17.969513013318">
        <ele>66</ele>
        <time>2018-02-19T18:35:52Z</time>
      </trkpt>
      <trkpt lat="62.632710238418" lon="17.969519048286">
        <ele>66</ele>
        <time>2018-02-19T18:35:53Z</time>
      </trkpt>
      <trkpt lat="62.632740664715" lon="17.969517623363">
        <ele>66</ele>
        <time>2018-02-19T18:35:54Z</time>
      </trkpt>
      <trkpt lat="62.632774779048" lon="17.969521059942">
        <ele>66.2</ele>
        <time>2018-02-19T18:35:55Z</time>
      </trkpt>
      <trkpt lat="62.632803193689" lon="17.969524664159">
        <ele>66</ele>
        <time>2018-02-19T18:35:56Z</time>
      </trkpt>
      <trkpt lat="62.632833787624" lon="17.969534051887">
        <ele>66</ele>
        <time>2018-02-19T18:35:57Z</time>
      </trkpt>
      <trkpt lat="62.632862872817" lon="17.969539583941">
        <ele>66.4</ele>
        <time>2018-02-19T18:35:58Z</time>
      </trkpt>
      <trkpt lat="62.632889275802" lon="17.969542349968">
        <ele>66.6</ele>
        <time>2018-02-19T18:35:59Z</time>
      </trkpt>
      <trkpt lat="62.632921965212" lon="17.969546205642">
        <ele>66.6</ele>
        <time>2018-02-19T18:36:00Z</time>
      </trkpt>
      <trkpt lat="62.632951134224" lon="17.969549390764">
        <ele>66.6</ele>
        <time>2018-02-19T18:36:01Z</time>
      </trkpt>
      <trkpt lat="62.632982314892" lon="17.969558443216">
        <ele>66.8</ele>
        <time>2018-02-19T18:36:02Z</time>
      </trkpt>
      <trkpt lat="62.633011400085" lon="17.969563723813">
        <ele>67</ele>
        <time>2018-02-19T18:36:03Z</time>
      </trkpt>
      <trkpt lat="62.633040066183" lon="17.969571770437">
        <ele>67</ele>
        <time>2018-02-19T18:36:04Z</time>
      </trkpt>
      <trkpt lat="62.633070073385" lon="17.969575374654">
        <ele>67</ele>
        <time>2018-02-19T18:36:05Z</time>
      </trkpt>
      <trkpt lat="62.63310150551" lon="17.969579649423">
        <ele>67</ele>
        <time>2018-02-19T18:36:06Z</time>
      </trkpt>
      <trkpt lat="62.633130758341" lon="17.969597586689">
        <ele>67</ele>
        <time>2018-02-19T18:36:07Z</time>
      </trkpt>
      <trkpt lat="62.633159172982" lon="17.969607225874">
        <ele>67</ele>
        <time>2018-02-19T18:36:08Z</time>
      </trkpt>
      <trkpt lat="62.633186078881" lon="17.969621223647">
        <ele>67.2</ele>
        <time>2018-02-19T18:36:09Z</time>
      </trkpt>
      <trkpt lat="62.63321633754" lon="17.969633964135">
        <ele>67</ele>
        <time>2018-02-19T18:36:10Z</time>
      </trkpt>
      <trkpt lat="62.633243327258" lon="17.969647207537">
        <ele>67</ele>
        <time>2018-02-19T18:36:11Z</time>
      </trkpt>
      <trkpt lat="62.633274340288" lon="17.969670844495">
        <ele>67.2</ele>
        <time>2018-02-19T18:36:12Z</time>
      </trkpt>
      <trkpt lat="62.63330099473" lon="17.969692972711">
        <ele>67.2</ele>
        <time>2018-02-19T18:36:13Z</time>
      </trkpt>
      <trkpt lat="62.633322703851" lon="17.969726081216">
        <ele>67.4</ele>
        <time>2018-02-19T18:36:14Z</time>
      </trkpt>
      <trkpt lat="62.633340808755" lon="17.96977352277">
        <ele>67.2</ele>
        <time>2018-02-19T18:36:15Z</time>
      </trkpt>
      <trkpt lat="62.633356399089" lon="17.9698296815">
        <ele>67.2</ele>
        <time>2018-02-19T18:36:16Z</time>
      </trkpt>
      <trkpt lat="62.633369474853" lon="17.969881816918">
        <ele>67.4</ele>
        <time>2018-02-19T18:36:17Z</time>
      </trkpt>
      <trkpt lat="62.633384394635" lon="17.969938981476">
        <ele>67.8</ele>
        <time>2018-02-19T18:36:18Z</time>
      </trkpt>
      <trkpt lat="62.633389591413" lon="17.969997654776">
        <ele>67.6</ele>
        <time>2018-02-19T18:36:19Z</time>
      </trkpt>
      <trkpt lat="62.633393950001" lon="17.970055573705">
        <ele>68</ele>
        <time>2018-02-19T18:36:20Z</time>
      </trkpt>
      <trkpt lat="62.633398140951" lon="17.970116761575">
        <ele>68</ele>
        <time>2018-02-19T18:36:21Z</time>
      </trkpt>
      <trkpt lat="62.633401828987" lon="17.970179877282">
        <ele>68.2</ele>
        <time>2018-02-19T18:36:22Z</time>
      </trkpt>
      <trkpt lat="62.633406439032" lon="17.97023620365">
        <ele>68.2</ele>
        <time>2018-02-19T18:36:23Z</time>
      </trkpt>
      <trkpt lat="62.633409372697" lon="17.970301079556">
        <ele>68.4</ele>
        <time>2018-02-19T18:36:24Z</time>
      </trkpt>
      <trkpt lat="62.633412809276" lon="17.970362686521">
        <ele>68.6</ele>
        <time>2018-02-19T18:36:25Z</time>
      </trkpt>
      <trkpt lat="62.633415994398" lon="17.970426305142">
        <ele>68.8</ele>
        <time>2018-02-19T18:36:26Z</time>
      </trkpt>
      <trkpt lat="62.633419430977" lon="17.970488750297">
        <ele>68.8</ele>
        <time>2018-02-19T18:36:27Z</time>
      </trkpt>
      <trkpt lat="62.633425465945" lon="17.970551866004">
        <ele>68.8</ele>
        <time>2018-02-19T18:36:28Z</time>
      </trkpt>
      <trkpt lat="62.633425968859" lon="17.97060752182">
        <ele>68.8</ele>
        <time>2018-02-19T18:36:29Z</time>
      </trkpt>
      <trkpt lat="62.63343007599" lon="17.970679187065">
        <ele>69</ele>
        <time>2018-02-19T18:36:30Z</time>
      </trkpt>
      <trkpt lat="62.633433680207" lon="17.970742638048">
        <ele>69.2</ele>
        <time>2018-02-19T18:36:31Z</time>
      </trkpt>
      <trkpt lat="62.633439715175" lon="17.970803490642">
        <ele>69</ele>
        <time>2018-02-19T18:36:32Z</time>
      </trkpt>
      <trkpt lat="62.633445414867" lon="17.970870042928">
        <ele>69</ele>
        <time>2018-02-19T18:36:33Z</time>
      </trkpt>
      <trkpt lat="62.63344851617" lon="17.970935505567">
        <ele>69.2</ele>
        <time>2018-02-19T18:36:34Z</time>
      </trkpt>
      <trkpt lat="62.633452539482" lon="17.971002057853">
        <ele>69.6</ele>
        <time>2018-02-19T18:36:35Z</time>
      </trkpt>
      <trkpt lat="62.633453880586" lon="17.971074812745">
        <ele>69.8</ele>
        <time>2018-02-19T18:36:36Z</time>
      </trkpt>
      <trkpt lat="62.633454132043" lon="17.971135749158">
        <ele>69.8</ele>
        <time>2018-02-19T18:36:37Z</time>
      </trkpt>
      <trkpt lat="62.633454886414" lon="17.971204983652">
        <ele>70</ele>
        <time>2018-02-19T18:36:38Z</time>
      </trkpt>
      <trkpt lat="62.633453712948" lon="17.971268937549">
        <ele>70.4</ele>
        <time>2018-02-19T18:36:39Z</time>
      </trkpt>
      <trkpt lat="62.633454299681" lon="17.971337752948">
        <ele>70.2</ele>
        <time>2018-02-19T18:36:40Z</time>
      </trkpt>
      <trkpt lat="62.6334543835" lon="17.97140464051">
        <ele>70.4</ele>
        <time>2018-02-19T18:36:41Z</time>
      </trkpt>
      <trkpt lat="62.633455640785" lon="17.971473623547">
        <ele>70.6</ele>
        <time>2018-02-19T18:36:42Z</time>
      </trkpt>
      <trkpt lat="62.633452455663" lon="17.971544953516">
        <ele>70.8</ele>
        <time>2018-02-19T18:36:43Z</time>
      </trkpt>
      <trkpt lat="62.63345270712" lon="17.971607733947">
        <ele>70.8</ele>
        <time>2018-02-19T18:36:44Z</time>
      </trkpt>
      <trkpt lat="62.633451701292" lon="17.971679985925">
        <ele>70.8</ele>
        <time>2018-02-19T18:36:45Z</time>
      </trkpt>
      <trkpt lat="62.63344683979" lon="17.971749639514">
        <ele>71</ele>
        <time>2018-02-19T18:36:46Z</time>
      </trkpt>
      <trkpt lat="62.633444157582" lon="17.971809151004">
        <ele>71</ele>
        <time>2018-02-19T18:36:47Z</time>
      </trkpt>
      <trkpt lat="62.633438374071" lon="17.971879558964">
        <ele>71.2</ele>
        <time>2018-02-19T18:36:48Z</time>
      </trkpt>
      <trkpt lat="62.633435859501" lon="17.971935969151">
        <ele>71.2</ele>
        <time>2018-02-19T18:36:49Z</time>
      </trkpt>
      <trkpt lat="62.633428567248" lon="17.972005119826">
        <ele>71.2</ele>
        <time>2018-02-19T18:36:50Z</time>
      </trkpt>
      <trkpt lat="62.633420101529" lon="17.972067900257">
        <ele>71.2</ele>
        <time>2018-02-19T18:36:51Z</time>
      </trkpt>
      <trkpt lat="62.63341163581" lon="17.972129423403">
        <ele>71.4</ele>
        <time>2018-02-19T18:36:52Z</time>
      </trkpt>
      <trkpt lat="62.633403589186" lon="17.972192790567">
        <ele>71.6</ele>
        <time>2018-02-19T18:36:53Z</time>
      </trkpt>
      <trkpt lat="62.633395542562" lon="17.972253559342">
        <ele>71.6</ele>
        <time>2018-02-19T18:36:54Z</time>
      </trkpt>
      <trkpt lat="62.633386071015" lon="17.972319273438">
        <ele>71.6</ele>
        <time>2018-02-19T18:36:55Z</time>
      </trkpt>
      <trkpt lat="62.633375509821" lon="17.972378868747">
        <ele>71.8</ele>
        <time>2018-02-19T18:36:56Z</time>
      </trkpt>
      <trkpt lat="62.63336469717" lon="17.972442822644">
        <ele>72.2</ele>
        <time>2018-02-19T18:36:57Z</time>
      </trkpt>
      <trkpt lat="62.633350112664" lon="17.972506273627">
        <ele>72.2</ele>
        <time>2018-02-19T18:36:58Z</time>
      </trkpt>
      <trkpt lat="62.633341646945" lon="17.972552625534">
        <ele>72.4</ele>
        <time>2018-02-19T18:36:59Z</time>
      </trkpt>
      <trkpt lat="62.63332530224" lon="17.972626637711">
        <ele>72.4</ele>
        <time>2018-02-19T18:37:00Z</time>
      </trkpt>
      <trkpt lat="62.633313064666" lon="17.97268623302">
        <ele>72.6</ele>
        <time>2018-02-19T18:37:01Z</time>
      </trkpt>
      <trkpt lat="62.633298731617" lon="17.97274825908">
        <ele>72.6</ele>
        <time>2018-02-19T18:37:02Z</time>
      </trkpt>
      <trkpt lat="62.633284817663" lon="17.972809782226">
        <ele>72.6</ele>
        <time>2018-02-19T18:37:03Z</time>
      </trkpt>
      <trkpt lat="62.633271238985" lon="17.972869293716">
        <ele>72.8</ele>
        <time>2018-02-19T18:37:04Z</time>
      </trkpt>
      <trkpt lat="62.633257660307" lon="17.972928805206">
        <ele>72.8</ele>
        <time>2018-02-19T18:37:05Z</time>
      </trkpt>
      <trkpt lat="62.633243327258" lon="17.972990998904">
        <ele>72.8</ele>
        <time>2018-02-19T18:37:06Z</time>
      </trkpt>
      <trkpt lat="62.633226982553" lon="17.973052857326">
        <ele>73</ele>
        <time>2018-02-19T18:37:07Z</time>
      </trkpt>
      <trkpt lat="62.633215583169" lon="17.973113626101">
        <ele>73</ele>
        <time>2018-02-19T18:37:08Z</time>
      </trkpt>
      <trkpt lat="62.633203010319" lon="17.973173305229">
        <ele>73.2</ele>
        <time>2018-02-19T18:37:09Z</time>
      </trkpt>
      <trkpt lat="62.633189599279" lon="17.973241533895">
        <ele>73.2</ele>
        <time>2018-02-19T18:37:10Z</time>
      </trkpt>
      <trkpt lat="62.633176439696" lon="17.973303559955">
        <ele>73.4</ele>
        <time>2018-02-19T18:37:11Z</time>
      </trkpt>
      <trkpt lat="62.633169482719" lon="17.973357036477">
        <ele>73.4</ele>
        <time>2018-02-19T18:37:12Z</time>
      </trkpt>
      <trkpt lat="62.633153138014" lon="17.973438005631">
        <ele>73.6</ele>
        <time>2018-02-19T18:37:13Z</time>
      </trkpt>
      <trkpt lat="62.633137715318" lon="17.973498355311">
        <ele>73.6</ele>
        <time>2018-02-19T18:37:14Z</time>
      </trkpt>
      <trkpt lat="62.633123466088" lon="17.973562560665">
        <ele>73.8</ele>
        <time>2018-02-19T18:37:15Z</time>
      </trkpt>
      <trkpt lat="62.633108127211" lon="17.973620647232">
        <ele>74</ele>
        <time>2018-02-19T18:37:16Z</time>
      </trkpt>
      <trkpt lat="62.633094464714" lon="17.973673285564">
        <ele>74.2</ele>
        <time>2018-02-19T18:37:17Z</time>
      </trkpt>
      <trkpt lat="62.633080131665" lon="17.973732377959">
        <ele>74</ele>
        <time>2018-02-19T18:37:18Z</time>
      </trkpt>
      <trkpt lat="62.63306797791" lon="17.973785519205">
        <ele>74.2</ele>
        <time>2018-02-19T18:37:19Z</time>
      </trkpt>
      <trkpt lat="62.633052387576" lon="17.973842683763">
        <ele>74.4</ele>
        <time>2018-02-19T18:37:20Z</time>
      </trkpt>
      <trkpt lat="62.633036042871" lon="17.973897585208">
        <ele>74.6</ele>
        <time>2018-02-19T18:37:21Z</time>
      </trkpt>
      <trkpt lat="62.633017099777" lon="17.973952570472">
        <ele>74.4</ele>
        <time>2018-02-19T18:37:22Z</time>
      </trkpt>
      <trkpt lat="62.633000503615" lon="17.974003532424">
        <ele>74.6</ele>
        <time>2018-02-19T18:37:23Z</time>
      </trkpt>
      <trkpt lat="62.632981728159" lon="17.974064552656">
        <ele>74.8</ele>
        <time>2018-02-19T18:37:24Z</time>
      </trkpt>
      <trkpt lat="62.632965886368" lon="17.974120208472">
        <ele>74.8</ele>
        <time>2018-02-19T18:37:25Z</time>
      </trkpt>
      <trkpt lat="62.632948452016" lon="17.974183743274">
        <ele>75</ele>
        <time>2018-02-19T18:37:26Z</time>
      </trkpt>
      <trkpt lat="62.63293051475" lon="17.974239147633">
        <ele>75</ele>
        <time>2018-02-19T18:37:27Z</time>
      </trkpt>
      <trkpt lat="62.632912242208" lon="17.974296815105">
        <ele>75</ele>
        <time>2018-02-19T18:37:28Z</time>
      </trkpt>
      <trkpt lat="62.632893215295" lon="17.974342747917">
        <ele>75</ele>
        <time>2018-02-19T18:37:29Z</time>
      </trkpt>
      <trkpt lat="62.632867985776" lon="17.974395889163">
        <ele>75.2</ele>
        <time>2018-02-19T18:37:30Z</time>
      </trkpt>
      <trkpt lat="62.632839068221" lon="17.974435619369">
        <ele>75.2</ele>
        <time>2018-02-19T18:37:31Z</time>
      </trkpt>
      <trkpt lat="62.632807384639" lon="17.974456071205">
        <ele>75.2</ele>
        <time>2018-02-19T18:37:32Z</time>
      </trkpt>
      <trkpt lat="62.632776371609" lon="17.974466716218">
        <ele>75</ele>
        <time>2018-02-19T18:37:33Z</time>
      </trkpt>
      <trkpt lat="62.632747454054" lon="17.974456155024">
        <ele>75.2</ele>
        <time>2018-02-19T18:37:34Z</time>
      </trkpt>
      <trkpt lat="62.632717949766" lon="17.974439810319">
        <ele>75.2</ele>
        <time>2018-02-19T18:37:35Z</time>
      </trkpt>
      <trkpt lat="62.632687020555" lon="17.974415670447">
        <ele>75.4</ele>
        <time>2018-02-19T18:37:36Z</time>
      </trkpt>
      <trkpt lat="62.632657600086" lon="17.974392033489">
        <ele>75.4</ele>
        <time>2018-02-19T18:37:37Z</time>
      </trkpt>
      <trkpt lat="62.632627006151" lon="17.97436931854">
        <ele>75.4</ele>
        <time>2018-02-19T18:37:38Z</time>
      </trkpt>
      <trkpt lat="62.632595574026" lon="17.974348112333">
        <ele>75.4</ele>
        <time>2018-02-19T18:37:39Z</time>
      </trkpt>
      <trkpt lat="62.632563638987" lon="17.974330175067">
        <ele>75.6</ele>
        <time>2018-02-19T18:37:40Z</time>
      </trkpt>
      <trkpt lat="62.632537487459" lon="17.974305364643">
        <ele>75.6</ele>
        <time>2018-02-19T18:37:41Z</time>
      </trkpt>
      <trkpt lat="62.632513682863" lon="17.97427292669">
        <ele>75.6</ele>
        <time>2018-02-19T18:37:42Z</time>
      </trkpt>
      <trkpt lat="62.632489040077" lon="17.974240069642">
        <ele>75.6</ele>
        <time>2018-02-19T18:37:43Z</time>
      </trkpt>
      <trkpt lat="62.632460373979" lon="17.974213666657">
        <ele>75.4</ele>
        <time>2018-02-19T18:37:44Z</time>
      </trkpt>
      <trkpt lat="62.632429863863" lon="17.974187012215">
        <ele>75.4</ele>
        <time>2018-02-19T18:37:45Z</time>
      </trkpt>
      <trkpt lat="62.632403544697" lon="17.9741631238">
        <ele>75.4</ele>
        <time>2018-02-19T18:37:46Z</time>
      </trkpt>
      <trkpt lat="62.632375046237" lon="17.974137307548">
        <ele>75.4</ele>
        <time>2018-02-19T18:37:47Z</time>
      </trkpt>
      <trkpt lat="62.632344368483" lon="17.974107132708">
        <ele>75.2</ele>
        <time>2018-02-19T18:37:48Z</time>
      </trkpt>
      <trkpt lat="62.632316205299" lon="17.974081400275">
        <ele>75.4</ele>
        <time>2018-02-19T18:37:49Z</time>
      </trkpt>
      <trkpt lat="62.632288545029" lon="17.974051812168">
        <ele>75.4</ele>
        <time>2018-02-19T18:37:50Z</time>
      </trkpt>
      <trkpt lat="62.632261220035" lon="17.974027672296">
        <ele>75.4</ele>
        <time>2018-02-19T18:37:51Z</time>
      </trkpt>
      <trkpt lat="62.632235822878" lon="17.973995234343">
        <ele>75.4</ele>
        <time>2018-02-19T18:37:52Z</time>
      </trkpt>
      <trkpt lat="62.632208749341" lon="17.973963383123">
        <ele>75.6</ele>
        <time>2018-02-19T18:37:53Z</time>
      </trkpt>
      <trkpt lat="62.632177484854" lon="17.973930526075">
        <ele>75.6</ele>
        <time>2018-02-19T18:37:54Z</time>
      </trkpt>
      <trkpt lat="62.632142699969" lon="17.973897836665">
        <ele>75.6</ele>
        <time>2018-02-19T18:37:55Z</time>
      </trkpt>
      <trkpt lat="62.632115207337" lon="17.973868500015">
        <ele>75.4</ele>
        <time>2018-02-19T18:37:56Z</time>
      </trkpt>
      <trkpt lat="62.632093582035" lon="17.973826255239">
        <ele>75.4</ele>
        <time>2018-02-19T18:37:57Z</time>
      </trkpt>
      <trkpt lat="62.632067095231" lon="17.973788871965">
        <ele>75.4</ele>
        <time>2018-02-19T18:37:58Z</time>
      </trkpt>
      <trkpt lat="62.632042787721" lon="17.973763726265">
        <ele>75.4</ele>
        <time>2018-02-19T18:37:59Z</time>
      </trkpt>
      <trkpt lat="62.63201856403" lon="17.973710249743">
        <ele>75.2</ele>
        <time>2018-02-19T18:38:00Z</time>
      </trkpt>
      <trkpt lat="62.631991993407" lon="17.973673704659">
        <ele>75.4</ele>
        <time>2018-02-19T18:38:01Z</time>
      </trkpt>
      <trkpt lat="62.631971290114" lon="17.973634812643">
        <ele>75.2</ele>
        <time>2018-02-19T18:38:02Z</time>
      </trkpt>
      <trkpt lat="62.631939941808" lon="17.973596339722">
        <ele>75.2</ele>
        <time>2018-02-19T18:38:03Z</time>
      </trkpt>
      <trkpt lat="62.63190876114" lon="17.973568930909">
        <ele>75.2</ele>
        <time>2018-02-19T18:38:04Z</time>
      </trkpt>
      <trkpt lat="62.631877580472" lon="17.973541354458">
        <ele>75.2</ele>
        <time>2018-02-19T18:38:05Z</time>
      </trkpt>
      <trkpt lat="62.631844891062" lon="17.973507826858">
        <ele>75.2</ele>
        <time>2018-02-19T18:38:06Z</time>
      </trkpt>
      <trkpt lat="62.63181572205" lon="17.973477819656">
        <ele>75.2</ele>
        <time>2018-02-19T18:38:07Z</time>
      </trkpt>
      <trkpt lat="62.631783200278" lon="17.973443537685">
        <ele>75</ele>
        <time>2018-02-19T18:38:08Z</time>
      </trkpt>
      <trkpt lat="62.631755037094" lon="17.973418475804">
        <ele>75</ele>
        <time>2018-02-19T18:38:09Z</time>
      </trkpt>
      <trkpt lat="62.631720922761" lon="17.973396096131">
        <ele>75.2</ele>
        <time>2018-02-19T18:38:10Z</time>
      </trkpt>
      <trkpt lat="62.631690664102" lon="17.973385954032">
        <ele>75</ele>
        <time>2018-02-19T18:38:11Z</time>
      </trkpt>
      <trkpt lat="62.631657052683" lon="17.973386289308">
        <ele>75</ele>
        <time>2018-02-19T18:38:12Z</time>
      </trkpt>
      <trkpt lat="62.631626877843" lon="17.973398275425">
        <ele>75</ele>
        <time>2018-02-19T18:38:13Z</time>
      </trkpt>
      <trkpt lat="62.631593936976" lon="17.973419397813">
        <ele>75</ele>
        <time>2018-02-19T18:38:14Z</time>
      </trkpt>
      <trkpt lat="62.631556637521" lon="17.973450243205">
        <ele>74.6</ele>
        <time>2018-02-19T18:38:15Z</time>
      </trkpt>
      <trkpt lat="62.6315265465" lon="17.973476478552">
        <ele>74.6</ele>
        <time>2018-02-19T18:38:16Z</time>
      </trkpt>
      <trkpt lat="62.631498131859" lon="17.973513610369">
        <ele>74.6</ele>
        <time>2018-02-19T18:38:17Z</time>
      </trkpt>
      <trkpt lat="62.631466280639" lon="17.973551999471">
        <ele>74.4</ele>
        <time>2018-02-19T18:38:18Z</time>
      </trkpt>
      <trkpt lat="62.631440045292" lon="17.973599524844">
        <ele>74.4</ele>
        <time>2018-02-19T18:38:19Z</time>
      </trkpt>
      <trkpt lat="62.63140836171" lon="17.973642356353">
        <ele>74.4</ele>
        <time>2018-02-19T18:38:20Z</time>
      </trkpt>
      <trkpt lat="62.631377181042" lon="17.9736853555">
        <ele>74.4</ele>
        <time>2018-02-19T18:38:21Z</time>
      </trkpt>
      <trkpt lat="62.631346000374" lon="17.973720475661">
        <ele>74.4</ele>
        <time>2018-02-19T18:38:22Z</time>
      </trkpt>
      <trkpt lat="62.631314903525" lon="17.973747046284">
        <ele>74.4</ele>
        <time>2018-02-19T18:38:23Z</time>
      </trkpt>
      <trkpt lat="62.631282800848" lon="17.973779148961">
        <ele>74.4</ele>
        <time>2018-02-19T18:38:24Z</time>
      </trkpt>
      <trkpt lat="62.63124826742" lon="17.973820807004">
        <ele>74.4</ele>
        <time>2018-02-19T18:38:25Z</time>
      </trkpt>
      <trkpt lat="62.631222786444" lon="17.973850730387">
        <ele>74.4</ele>
        <time>2018-02-19T18:38:26Z</time>
      </trkpt>
      <trkpt lat="62.631189091206" lon="17.973880989046">
        <ele>74.4</ele>
        <time>2018-02-19T18:38:27Z</time>
      </trkpt>
      <trkpt lat="62.631156569434" lon="17.973908397859">
        <ele>74.2</ele>
        <time>2018-02-19T18:38:28Z</time>
      </trkpt>
      <trkpt lat="62.631128238612" lon="17.973926670401">
        <ele>74.2</ele>
        <time>2018-02-19T18:38:29Z</time>
      </trkpt>
      <trkpt lat="62.631091944985" lon="17.97393932707">
        <ele>74.2</ele>
        <time>2018-02-19T18:38:30Z</time>
      </trkpt>
      <trkpt lat="62.631056908643" lon="17.973940751993">
        <ele>74.2</ele>
        <time>2018-02-19T18:38:31Z</time>
      </trkpt>
      <trkpt lat="62.63102027974" lon="17.973928849695">
        <ele>74.2</ele>
        <time>2018-02-19T18:38:32Z</time>
      </trkpt>
      <trkpt lat="62.630984824303" lon="17.973898591036">
        <ele>74.4</ele>
        <time>2018-02-19T18:38:33Z</time>
      </trkpt>
      <trkpt lat="62.630954481825" lon="17.973870679309">
        <ele>74.2</ele>
        <time>2018-02-19T18:38:34Z</time>
      </trkpt>
      <trkpt lat="62.630926318641" lon="17.973825500868">
        <ele>74</ele>
        <time>2018-02-19T18:38:35Z</time>
      </trkpt>
      <trkpt lat="62.630900167113" lon="17.973768503948">
        <ele>74</ele>
        <time>2018-02-19T18:38:36Z</time>
      </trkpt>
      <trkpt lat="62.63087611106" lon="17.973712848132">
        <ele>73.8</ele>
        <time>2018-02-19T18:38:37Z</time>
      </trkpt>
      <trkpt lat="62.630854988672" lon="17.973651911719">
        <ele>73.8</ele>
        <time>2018-02-19T18:38:38Z</time>
      </trkpt>
      <trkpt lat="62.63083587794" lon="17.973596255903">
        <ele>73.6</ele>
        <time>2018-02-19T18:38:39Z</time>
      </trkpt>
      <trkpt lat="62.630813582086" lon="17.973529284522">
        <ele>73.6</ele>
        <time>2018-02-19T18:38:40Z</time>
      </trkpt>
      <trkpt lat="62.630792040603" lon="17.973464827711">
        <ele>73.6</ele>
        <time>2018-02-19T18:38:41Z</time>
      </trkpt>
      <trkpt lat="62.630770331482" lon="17.973393581561">
        <ele>73.4</ele>
        <time>2018-02-19T18:38:42Z</time>
      </trkpt>
      <trkpt lat="62.630750214922" lon="17.973325185257">
        <ele>73.2</ele>
        <time>2018-02-19T18:38:43Z</time>
      </trkpt>
      <trkpt lat="62.630730601276" lon="17.973268523613">
        <ele>73.2</ele>
        <time>2018-02-19T18:38:44Z</time>
      </trkpt>
      <trkpt lat="62.630710065621" lon="17.973196187816">
        <ele>73.2</ele>
        <time>2018-02-19T18:38:45Z</time>
      </trkpt>
      <trkpt lat="62.630694056192" lon="17.973143465665">
        <ele>73.4</ele>
        <time>2018-02-19T18:38:46Z</time>
      </trkpt>
      <trkpt lat="62.63066237261" lon="17.973069788764">
        <ele>73.2</ele>
        <time>2018-02-19T18:38:47Z</time>
      </trkpt>
      <trkpt lat="62.630635801987" lon="17.972996195682">
        <ele>73</ele>
        <time>2018-02-19T18:38:48Z</time>
      </trkpt>
      <trkpt lat="62.630616188341" lon="17.972936600373">
        <ele>73.2</ele>
        <time>2018-02-19T18:38:49Z</time>
      </trkpt>
      <trkpt lat="62.630594395401" lon="17.972865354223">
        <ele>73.2</ele>
        <time>2018-02-19T18:38:50Z</time>
      </trkpt>
      <trkpt lat="62.630575619945" lon="17.972802406154">
        <ele>72.8</ele>
        <time>2018-02-19T18:38:51Z</time>
      </trkpt>
      <trkpt lat="62.630555838661" lon="17.972741218284">
        <ele>72.8</ele>
        <time>2018-02-19T18:38:52Z</time>
      </trkpt>
      <trkpt lat="62.630535973558" lon="17.97267617474">
        <ele>72.6</ele>
        <time>2018-02-19T18:38:53Z</time>
      </trkpt>
      <trkpt lat="62.630516779007" lon="17.972607946074">
        <ele>72.2</ele>
        <time>2018-02-19T18:38:54Z</time>
      </trkpt>
      <trkpt lat="62.63049808737" lon="17.972528401843">
        <ele>72.2</ele>
        <time>2018-02-19T18:38:55Z</time>
      </trkpt>
      <trkpt lat="62.63048551452" lon="17.972457826245">
        <ele>72.2</ele>
        <time>2018-02-19T18:38:56Z</time>
      </trkpt>
      <trkpt lat="62.630473947498" lon="17.972383059697">
        <ele>72.2</ele>
        <time>2018-02-19T18:38:57Z</time>
      </trkpt>
      <trkpt lat="62.630464475951" lon="17.972308963701">
        <ele>72</ele>
        <time>2018-02-19T18:38:58Z</time>
      </trkpt>
      <trkpt lat="62.630456345508" lon="17.972247189098">
        <ele>72</ele>
        <time>2018-02-19T18:38:59Z</time>
      </trkpt>
      <trkpt lat="62.630444862305" lon="17.972164627383">
        <ele>72</ele>
        <time>2018-02-19T18:39:00Z</time>
      </trkpt>
      <trkpt lat="62.630434552568" lon="17.972088184455">
        <ele>72</ele>
        <time>2018-02-19T18:39:01Z</time>
      </trkpt>
      <trkpt lat="62.630422398813" lon="17.972002856713">
        <ele>72.2</ele>
        <time>2018-02-19T18:39:02Z</time>
      </trkpt>
      <trkpt lat="62.630411586162" lon="17.971916104048">
        <ele>72</ele>
        <time>2018-02-19T18:39:03Z</time>
      </trkpt>
      <trkpt lat="62.630400186778" lon="17.971837314188">
        <ele>71.8</ele>
        <time>2018-02-19T18:39:04Z</time>
      </trkpt>
      <trkpt lat="62.630390128498" lon="17.971762128545">
        <ele>71.8</ele>
        <time>2018-02-19T18:39:05Z</time>
      </trkpt>
      <trkpt lat="62.630381411322" lon="17.971685350341">
        <ele>71.8</ele>
        <time>2018-02-19T18:39:06Z</time>
      </trkpt>
      <trkpt lat="62.630373783793" lon="17.971607231033">
        <ele>71.8</ele>
        <time>2018-02-19T18:39:07Z</time>
      </trkpt>
      <trkpt lat="62.630365904807" lon="17.971529782277">
        <ele>71.6</ele>
        <time>2018-02-19T18:39:08Z</time>
      </trkpt>
      <trkpt lat="62.630358864011" lon="17.971460380145">
        <ele>71.4</ele>
        <time>2018-02-19T18:39:09Z</time>
      </trkpt>
      <trkpt lat="62.630349643921" lon="17.971381590285">
        <ele>71.4</ele>
        <time>2018-02-19T18:39:10Z</time>
      </trkpt>
      <trkpt lat="62.630345369152" lon="17.971312104334">
        <ele>71.4</ele>
        <time>2018-02-19T18:39:11Z</time>
      </trkpt>
      <trkpt lat="62.630342686944" lon="17.971220490167">
        <ele>71.2</ele>
        <time>2018-02-19T18:39:12Z</time>
      </trkpt>
      <trkpt lat="62.630338998908" lon="17.971146394171">
        <ele>71</ele>
        <time>2018-02-19T18:39:13Z</time>
      </trkpt>
      <trkpt lat="62.630336903433" lon="17.971072633451">
        <ele>71</ele>
        <time>2018-02-19T18:39:14Z</time>
      </trkpt>
      <trkpt lat="62.630338579813" lon="17.970992502487">
        <ele>71</ele>
        <time>2018-02-19T18:39:15Z</time>
      </trkpt>
      <trkpt lat="62.630338495994" lon="17.97091849031">
        <ele>71</ele>
        <time>2018-02-19T18:39:16Z</time>
      </trkpt>
      <trkpt lat="62.630339501822" lon="17.970843723762">
        <ele>71</ele>
        <time>2018-02-19T18:39:17Z</time>
      </trkpt>
      <trkpt lat="62.630340926745" lon="17.970765520635">
        <ele>70.8</ele>
        <time>2018-02-19T18:39:18Z</time>
      </trkpt>
      <trkpt lat="62.630347632265" lon="17.970694861218">
        <ele>71</ele>
        <time>2018-02-19T18:39:19Z</time>
      </trkpt>
      <trkpt lat="62.630361713857" lon="17.970623950344">
        <ele>71</ele>
        <time>2018-02-19T18:39:20Z</time>
      </trkpt>
      <trkpt lat="62.630382500969" lon="17.970562762474">
        <ele>70.8</ele>
        <time>2018-02-19T18:39:21Z</time>
      </trkpt>
      <trkpt lat="62.630409155411" lon="17.970498976215">
        <ele>70.8</ele>
        <time>2018-02-19T18:39:22Z</time>
      </trkpt>
      <trkpt lat="62.630436731862" lon="17.970451031747">
        <ele>70.8</ele>
        <time>2018-02-19T18:39:23Z</time>
      </trkpt>
      <trkpt lat="62.630465649417" lon="17.970404596021">
        <ele>70.6</ele>
        <time>2018-02-19T18:39:24Z</time>
      </trkpt>
      <trkpt lat="62.630499596112" lon="17.970364027625">
        <ele>70.4</ele>
        <time>2018-02-19T18:39:25Z</time>
      </trkpt>
      <trkpt lat="62.630529770952" lon="17.97033594826">
        <ele>70.2</ele>
        <time>2018-02-19T18:39:26Z</time>
      </trkpt>
      <trkpt lat="62.630559359059" lon="17.970315412605">
        <ele>70</ele>
        <time>2018-02-19T18:39:27Z</time>
      </trkpt>
      <trkpt lat="62.630589533899" lon="17.970298481167">
        <ele>69.6</ele>
        <time>2018-02-19T18:39:28Z</time>
      </trkpt>
      <trkpt lat="62.63061375759" lon="17.970278783702">
        <ele>69.2</ele>
        <time>2018-02-19T18:39:29Z</time>
      </trkpt>
      <trkpt lat="62.630646949914" lon="17.970252213079">
        <ele>68.8</ele>
        <time>2018-02-19T18:39:30Z</time>
      </trkpt>
      <trkpt lat="62.630680058419" lon="17.97023033632">
        <ele>68.4</ele>
        <time>2018-02-19T18:39:31Z</time>
      </trkpt>
      <trkpt lat="62.630713669838" lon="17.970213991615">
        <ele>68.4</ele>
        <time>2018-02-19T18:39:32Z</time>
      </trkpt>
      <trkpt lat="62.630744347592" lon="17.970204603887">
        <ele>68.4</ele>
        <time>2018-02-19T18:39:33Z</time>
      </trkpt>
      <trkpt lat="62.630774857708" lon="17.970188762096">
        <ele>67.8</ele>
        <time>2018-02-19T18:39:34Z</time>
      </trkpt>
      <trkpt lat="62.630808133851" lon="17.970172333572">
        <ele>68</ele>
        <time>2018-02-19T18:39:35Z</time>
      </trkpt>
      <trkpt lat="62.630842164365" lon="17.970150959727">
        <ele>68</ele>
        <time>2018-02-19T18:39:36Z</time>
      </trkpt>
      <trkpt lat="62.630890527928" lon="17.970128412416">
        <ele>67.8</ele>
        <time>2018-02-19T18:39:38Z</time>
      </trkpt>
      <trkpt lat="62.63090293314" lon="17.970120952525">
        <ele>67.4</ele>
        <time>2018-02-19T18:39:39Z</time>
      </trkpt>
      <trkpt lat="62.63091550599" lon="17.970115755747">
        <ele>67.8</ele>
        <time>2018-02-19T18:39:40Z</time>
      </trkpt>
      <trkpt lat="62.630926318641" lon="17.970118605593">
        <ele>67.8</ele>
        <time>2018-02-19T18:39:41Z</time>
      </trkpt>
      <trkpt lat="62.630933862351" lon="17.970118521774">
        <ele>67.8</ele>
        <time>2018-02-19T18:39:42Z</time>
      </trkpt>
      <trkpt lat="62.630941406061" lon="17.970129837339">
        <ele>67.6</ele>
        <time>2018-02-19T18:39:43Z</time>
      </trkpt>
      <trkpt lat="62.630934616722" lon="17.970125646389">
        <ele>67.6</ele>
        <time>2018-02-19T18:39:44Z</time>
      </trkpt>
      <trkpt lat="62.630939226767" lon="17.970120198154">
        <ele>67.6</ele>
        <time>2018-02-19T18:39:45Z</time>
      </trkpt>
      <trkpt lat="62.630937466568" lon="17.970128580054">
        <ele>67.6</ele>
        <time>2018-02-19T18:39:46Z</time>
      </trkpt>
      <trkpt lat="62.631206777015" lon="17.96995624819">
        <ele>67.2</ele>
        <time>2018-02-19T18:41:58Z</time>
      </trkpt>
      <trkpt lat="62.631228486136" lon="17.969936718363">
        <ele>67</ele>
        <time>2018-02-19T18:41:59Z</time>
      </trkpt>
      <trkpt lat="62.631269808903" lon="17.969913835776">
        <ele>67</ele>
        <time>2018-02-19T18:42:00Z</time>
      </trkpt>
      <trkpt lat="62.631301492485" lon="17.969895144139">
        <ele>66.8</ele>
        <time>2018-02-19T18:42:01Z</time>
      </trkpt>
      <trkpt lat="62.631335774456" lon="17.969880224357">
        <ele>66.6</ele>
        <time>2018-02-19T18:42:02Z</time>
      </trkpt>
      <trkpt lat="62.631371397531" lon="17.969861700358">
        <ele>66.6</ele>
        <time>2018-02-19T18:42:03Z</time>
      </trkpt>
      <trkpt lat="62.631400818" lon="17.969846612938">
        <ele>66.6</ele>
        <time>2018-02-19T18:42:04Z</time>
      </trkpt>
      <trkpt lat="62.631434261781" lon="17.969832531346">
        <ele>66.6</ele>
        <time>2018-02-19T18:42:05Z</time>
      </trkpt>
      <trkpt lat="62.631468208476" lon="17.969815599908">
        <ele>66.6</ele>
        <time>2018-02-19T18:42:06Z</time>
      </trkpt>
      <trkpt lat="62.631502909542" lon="17.969802272687">
        <ele>66.6</ele>
        <time>2018-02-19T18:42:07Z</time>
      </trkpt>
      <trkpt lat="62.63153325202" lon="17.969777965177">
        <ele>66.6</ele>
        <time>2018-02-19T18:42:08Z</time>
      </trkpt>
      <trkpt lat="62.631566025249" lon="17.969761536653">
        <ele>66.4</ele>
        <time>2018-02-19T18:42:09Z</time>
      </trkpt>
      <trkpt lat="62.631600977772" lon="17.969747622699">
        <ele>66.4</ele>
        <time>2018-02-19T18:42:10Z</time>
      </trkpt>
      <trkpt lat="62.631629560051" lon="17.969729014881">
        <ele>66.2</ele>
        <time>2018-02-19T18:42:11Z</time>
      </trkpt>
      <trkpt lat="62.631666608049" lon="17.969701270792">
        <ele>66.4</ele>
        <time>2018-02-19T18:42:12Z</time>
      </trkpt>
      <trkpt lat="62.631697369622" lon="17.969667156459">
        <ele>66.2</ele>
        <time>2018-02-19T18:42:13Z</time>
      </trkpt>
      <trkpt lat="62.631728885566" lon="17.969637484533">
        <ele>66.2</ele>
        <time>2018-02-19T18:42:14Z</time>
      </trkpt>
      <trkpt lat="62.63176207789" lon="17.96960588477">
        <ele>66</ele>
        <time>2018-02-19T18:42:15Z</time>
      </trkpt>
      <trkpt lat="62.631795437852" lon="17.969588198961">
        <ele>66</ele>
        <time>2018-02-19T18:42:16Z</time>
      </trkpt>
      <trkpt lat="62.631821924656" lon="17.969563053261">
        <ele>65.6</ele>
        <time>2018-02-19T18:42:17Z</time>
      </trkpt>
      <trkpt lat="62.631854614066" lon="17.969552575886">
        <ele>65.8</ele>
        <time>2018-02-19T18:42:18Z</time>
      </trkpt>
      <trkpt lat="62.631881771422" lon="17.969547714384">
        <ele>65.8</ele>
        <time>2018-02-19T18:42:19Z</time>
      </trkpt>
      <trkpt lat="62.631914544651" lon="17.969543774891">
        <ele>65.6</ele>
        <time>2018-02-19T18:42:20Z</time>
      </trkpt>
      <trkpt lat="62.631946144414" lon="17.969537739923">
        <ele>65.6</ele>
        <time>2018-02-19T18:42:21Z</time>
      </trkpt>
      <trkpt lat="62.631975145788" lon="17.969538578113">
        <ele>65.6</ele>
        <time>2018-02-19T18:42:22Z</time>
      </trkpt>
      <trkpt lat="62.63200599118" lon="17.969541595597">
        <ele>65.6</ele>
        <time>2018-02-19T18:42:23Z</time>
      </trkpt>
      <trkpt lat="62.632036501296" lon="17.969535644448">
        <ele>65.6</ele>
        <time>2018-02-19T18:42:24Z</time>
      </trkpt>
      <trkpt lat="62.63206801724" lon="17.96953044767">
        <ele>65.6</ele>
        <time>2018-02-19T18:42:25Z</time>
      </trkpt>
      <trkpt lat="62.63209819208" lon="17.969526759634">
        <ele>65.6</ele>
        <time>2018-02-19T18:42:26Z</time>
      </trkpt>
      <trkpt lat="62.632127864006" lon="17.969514773517">
        <ele>65.8</ele>
        <time>2018-02-19T18:42:27Z</time>
      </trkpt>
      <trkpt lat="62.632159715226" lon="17.969504547599">
        <ele>66</ele>
        <time>2018-02-19T18:42:28Z</time>
      </trkpt>
      <trkpt lat="62.632187124039" lon="17.969494070224">
        <ele>66</ele>
        <time>2018-02-19T18:42:29Z</time>
      </trkpt>
      <trkpt lat="62.632222914752" lon="17.969482167926">
        <ele>65.8</ele>
        <time>2018-02-19T18:42:30Z</time>
      </trkpt>
      <trkpt lat="62.632255520343" lon="17.969480072451">
        <ele>66</ele>
        <time>2018-02-19T18:42:31Z</time>
      </trkpt>
      <trkpt lat="62.632284940812" lon="17.969474624216">
        <ele>65.8</ele>
        <time>2018-02-19T18:42:32Z</time>
      </trkpt>
      <trkpt lat="62.632315199471" lon="17.9694692598">
        <ele>65.8</ele>
        <time>2018-02-19T18:42:33Z</time>
      </trkpt>
      <trkpt lat="62.632344033207" lon="17.969464314479">
        <ele>65.8</ele>
        <time>2018-02-19T18:42:34Z</time>
      </trkpt>
      <trkpt lat="62.632374543323" lon="17.969465236488">
        <ele>65.6</ele>
        <time>2018-02-19T18:42:35Z</time>
      </trkpt>
      <trkpt lat="62.632407065095" lon="17.969480910641">
        <ele>65.4</ele>
        <time>2018-02-19T18:42:36Z</time>
      </trkpt>
      <trkpt lat="62.632436737021" lon="17.969484095763">
        <ele>65.4</ele>
        <time>2018-02-19T18:42:37Z</time>
      </trkpt>
      <trkpt lat="62.632468169146" lon="17.969497087708">
        <ele>65.4</ele>
        <time>2018-02-19T18:42:38Z</time>
      </trkpt>
      <trkpt lat="62.632496919063" lon="17.969506726893">
        <ele>65.6</ele>
        <time>2018-02-19T18:42:39Z</time>
      </trkpt>
      <trkpt lat="62.632531033396" lon="17.969510666386">
        <ele>65.6</ele>
        <time>2018-02-19T18:42:40Z</time>
      </trkpt>
      <trkpt lat="62.632561962607" lon="17.969512761861">
        <ele>65.8</ele>
        <time>2018-02-19T18:42:41Z</time>
      </trkpt>
      <trkpt lat="62.632594484379" lon="17.969511085481">
        <ele>66</ele>
        <time>2018-02-19T18:42:42Z</time>
      </trkpt>
      <trkpt lat="62.632626167961" lon="17.969512258947">
        <ele>66.2</ele>
        <time>2018-02-19T18:42:43Z</time>
      </trkpt>
      <trkpt lat="62.632652738584" lon="17.969515527888">
        <ele>66</ele>
        <time>2018-02-19T18:42:44Z</time>
      </trkpt>
      <trkpt lat="62.632683751614" lon="17.969519635019">
        <ele>65.8</ele>
        <time>2018-02-19T18:42:45Z</time>
      </trkpt>
      <trkpt lat="62.63271761449" lon="17.969522652503">
        <ele>65.8</ele>
        <time>2018-02-19T18:42:46Z</time>
      </trkpt>
      <trkpt lat="62.632742844009" lon="17.969527514005">
        <ele>66</ele>
        <time>2018-02-19T18:42:47Z</time>
      </trkpt>
      <trkpt lat="62.632774695229" lon="17.969532710783">
        <ele>66</ele>
        <time>2018-02-19T18:42:48Z</time>
      </trkpt>
      <trkpt lat="62.632800762938" lon="17.969537907561">
        <ele>66</ele>
        <time>2018-02-19T18:42:49Z</time>
      </trkpt>
      <trkpt lat="62.632828507027" lon="17.969538578113">
        <ele>66.2</ele>
        <time>2018-02-19T18:42:50Z</time>
      </trkpt>
      <trkpt lat="62.632855999659" lon="17.969550061316">
        <ele>66.6</ele>
        <time>2018-02-19T18:42:51Z</time>
      </trkpt>
      <trkpt lat="62.632882235006" lon="17.96954972604">
        <ele>66.6</ele>
        <time>2018-02-19T18:42:52Z</time>
      </trkpt>
      <trkpt lat="62.632910146733" lon="17.969554587542">
        <ele>66.8</ele>
        <time>2018-02-19T18:42:53Z</time>
      </trkpt>
      <trkpt lat="62.632938812831" lon="17.969558275578">
        <ele>66.8</ele>
        <time>2018-02-19T18:42:54Z</time>
      </trkpt>
      <trkpt lat="62.632967898024" lon="17.969565316374">
        <ele>66.8</ele>
        <time>2018-02-19T18:42:55Z</time>
      </trkpt>
      <trkpt lat="62.633000503615" lon="17.969577805405">
        <ele>66.8</ele>
        <time>2018-02-19T18:42:56Z</time>
      </trkpt>
      <trkpt lat="62.633029924084" lon="17.969580487613">
        <ele>67</ele>
        <time>2018-02-19T18:42:57Z</time>
      </trkpt>
      <trkpt lat="62.633062194399" lon="17.969588450418">
        <ele>67.2</ele>
        <time>2018-02-19T18:42:58Z</time>
      </trkpt>
      <trkpt lat="62.633089016479" lon="17.969598508698">
        <ele>67</ele>
        <time>2018-02-19T18:42:59Z</time>
      </trkpt>
      <trkpt lat="62.63312329845" lon="17.969607896426">
        <ele>67.2</ele>
        <time>2018-02-19T18:43:00Z</time>
      </trkpt>
      <trkpt lat="62.633152718919" lon="17.969619128172">
        <ele>67.2</ele>
        <time>2018-02-19T18:43:01Z</time>
      </trkpt>
      <trkpt lat="62.633181552655" lon="17.969625917511">
        <ele>67.2</ele>
        <time>2018-02-19T18:43:02Z</time>
      </trkpt>
      <trkpt lat="62.633214158246" lon="17.969643938596">
        <ele>67</ele>
        <time>2018-02-19T18:43:03Z</time>
      </trkpt>
      <trkpt lat="62.633241734697" lon="17.969660534758">
        <ele>67</ele>
        <time>2018-02-19T18:43:04Z</time>
      </trkpt>
      <trkpt lat="62.633269897881" lon="17.969678472024">
        <ele>67</ele>
        <time>2018-02-19T18:43:05Z</time>
      </trkpt>
      <trkpt lat="62.633300240359" lon="17.969707724855">
        <ele>67</ele>
        <time>2018-02-19T18:43:06Z</time>
      </trkpt>
      <trkpt lat="62.633325050783" lon="17.969737564419">
        <ele>67</ele>
        <time>2018-02-19T18:43:07Z</time>
      </trkpt>
      <trkpt lat="62.633347765732" lon="17.969780144471">
        <ele>67.2</ele>
        <time>2018-02-19T18:43:08Z</time>
      </trkpt>
      <trkpt lat="62.63336385898" lon="17.969827753663">
        <ele>67.2</ele>
        <time>2018-02-19T18:43:09Z</time>
      </trkpt>
      <trkpt lat="62.633377689115" lon="17.969882236013">
        <ele>67.4</ele>
        <time>2018-02-19T18:43:10Z</time>
      </trkpt>
      <trkpt lat="62.633384310816" lon="17.969939652028">
        <ele>67.8</ele>
        <time>2018-02-19T18:43:11Z</time>
      </trkpt>
      <trkpt lat="62.633390094327" lon="17.969993799102">
        <ele>67.8</ele>
        <time>2018-02-19T18:43:12Z</time>
      </trkpt>
      <trkpt lat="62.633392776535" lon="17.970052556221">
        <ele>67.8</ele>
        <time>2018-02-19T18:43:13Z</time>
      </trkpt>
      <trkpt lat="62.633394285277" lon="17.970106200381">
        <ele>68</ele>
        <time>2018-02-19T18:43:14Z</time>
      </trkpt>
      <trkpt lat="62.633398560046" lon="17.970169735183">
        <ele>68.2</ele>
        <time>2018-02-19T18:43:15Z</time>
      </trkpt>
      <trkpt lat="62.633402248082" lon="17.970232264157">
        <ele>68.2</ele>
        <time>2018-02-19T18:43:16Z</time>
      </trkpt>
      <trkpt lat="62.633410713801" lon="17.970284315756">
        <ele>68.4</ele>
        <time>2018-02-19T18:43:17Z</time>
      </trkpt>
      <trkpt lat="62.633419011882" lon="17.970349526938">
        <ele>68.6</ele>
        <time>2018-02-19T18:43:18Z</time>
      </trkpt>
      <trkpt lat="62.633425549764" lon="17.97040300346">
        <ele>68.8</ele>
        <time>2018-02-19T18:43:19Z</time>
      </trkpt>
      <trkpt lat="62.633429321619" lon="17.97047089685">
        <ele>68.8</ele>
        <time>2018-02-19T18:43:20Z</time>
      </trkpt>
      <trkpt lat="62.633433596388" lon="17.970528396684">
        <ele>68.8</ele>
        <time>2018-02-19T18:43:21Z</time>
      </trkpt>
      <trkpt lat="62.63343678151" lon="17.970586902346">
        <ele>69</ele>
        <time>2018-02-19T18:43:22Z</time>
      </trkpt>
      <trkpt lat="62.633439547537" lon="17.970650772424">
        <ele>69</ele>
        <time>2018-02-19T18:43:23Z</time>
      </trkpt>
      <trkpt lat="62.633443403211" lon="17.970708775172">
        <ele>69.2</ele>
        <time>2018-02-19T18:43:24Z</time>
      </trkpt>
      <trkpt lat="62.63344516341" lon="17.970777925847">
        <ele>69.2</ele>
        <time>2018-02-19T18:43:25Z</time>
      </trkpt>
      <trkpt lat="62.633447845618" lon="17.97083718588">
        <ele>69.2</ele>
        <time>2018-02-19T18:43:26Z</time>
      </trkpt>
      <trkpt lat="62.633450024912" lon="17.970901223596">
        <ele>69.2</ele>
        <time>2018-02-19T18:43:27Z</time>
      </trkpt>
      <trkpt lat="62.633451449835" lon="17.970962746742">
        <ele>69.6</ele>
        <time>2018-02-19T18:43:28Z</time>
      </trkpt>
      <trkpt lat="62.633453293853" lon="17.971012619047">
        <ele>70</ele>
        <time>2018-02-19T18:43:29Z</time>
      </trkpt>
      <trkpt lat="62.633454718776" lon="17.971087888509">
        <ele>70</ele>
        <time>2018-02-19T18:43:30Z</time>
      </trkpt>
      <trkpt lat="62.633457233346" lon="17.971145555981">
        <ele>70.2</ele>
        <time>2018-02-19T18:43:31Z</time>
      </trkpt>
      <trkpt lat="62.633458490631" lon="17.971211521534">
        <ele>70.4</ele>
        <time>2018-02-19T18:43:32Z</time>
      </trkpt>
      <trkpt lat="62.633458406812" lon="17.971271703576">
        <ele>70.6</ele>
        <time>2018-02-19T18:43:33Z</time>
      </trkpt>
      <trkpt lat="62.633456981889" lon="17.971327275573">
        <ele>70.6</ele>
        <time>2018-02-19T18:43:34Z</time>
      </trkpt>
      <trkpt lat="62.633456395156" lon="17.971391061832">
        <ele>70.6</ele>
        <time>2018-02-19T18:43:35Z</time>
      </trkpt>
      <trkpt lat="62.633454048224" lon="17.971454177539">
        <ele>70.8</ele>
        <time>2018-02-19T18:43:36Z</time>
      </trkpt>
      <trkpt lat="62.63345270712" lon="17.971518215255">
        <ele>70.8</ele>
        <time>2018-02-19T18:43:37Z</time>
      </trkpt>
      <trkpt lat="62.633449857274" lon="17.97157814584">
        <ele>71</ele>
        <time>2018-02-19T18:43:38Z</time>
      </trkpt>
      <trkpt lat="62.633447342704" lon="17.971637322054">
        <ele>71</ele>
        <time>2018-02-19T18:43:39Z</time>
      </trkpt>
      <trkpt lat="62.633444241401" lon="17.97170303615">
        <ele>71</ele>
        <time>2018-02-19T18:43:40Z</time>
      </trkpt>
      <trkpt lat="62.633440637184" lon="17.971760452165">
        <ele>71</ele>
        <time>2018-02-19T18:43:41Z</time>
      </trkpt>
      <trkpt lat="62.633433093474" lon="17.97182625008">
        <ele>71.2</ele>
        <time>2018-02-19T18:43:42Z</time>
      </trkpt>
      <trkpt lat="62.633427477601" lon="17.971883917552">
        <ele>71.4</ele>
        <time>2018-02-19T18:43:43Z</time>
      </trkpt>
      <trkpt lat="62.633421023538" lon="17.971942087938">
        <ele>71.4</ele>
        <time>2018-02-19T18:43:44Z</time>
      </trkpt>
      <trkpt lat="62.633413563647" lon="17.972010819518">
        <ele>71.2</ele>
        <time>2018-02-19T18:43:45Z</time>
      </trkpt>
      <trkpt lat="62.633405014109" lon="17.97207435432">
        <ele>71.4</ele>
        <time>2018-02-19T18:43:46Z</time>
      </trkpt>
      <trkpt lat="62.633395291105" lon="17.972132776163">
        <ele>71.6</ele>
        <time>2018-02-19T18:43:47Z</time>
      </trkpt>
      <trkpt lat="62.633385735739" lon="17.972189018712">
        <ele>71.6</ele>
        <time>2018-02-19T18:43:48Z</time>
      </trkpt>
      <trkpt lat="62.633375090726" lon="17.972246350908">
        <ele>71.8</ele>
        <time>2018-02-19T18:43:49Z</time>
      </trkpt>
      <trkpt lat="62.633365032446" lon="17.972310304805">
        <ele>72</ele>
        <time>2018-02-19T18:43:50Z</time>
      </trkpt>
      <trkpt lat="62.633354387433" lon="17.972368642829">
        <ele>72</ele>
        <time>2018-02-19T18:43:51Z</time>
      </trkpt>
      <trkpt lat="62.633340976393" lon="17.972436033305">
        <ele>72.2</ele>
        <time>2018-02-19T18:43:52Z</time>
      </trkpt>
      <trkpt lat="62.633332426855" lon="17.972489593646">
        <ele>72.2</ele>
        <time>2018-02-19T18:43:53Z</time>
      </trkpt>
      <trkpt lat="62.633320608376" lon="17.972548266946">
        <ele>72.4</ele>
        <time>2018-02-19T18:43:54Z</time>
      </trkpt>
      <trkpt lat="62.63331021482" lon="17.972612807576">
        <ele>72.4</ele>
        <time>2018-02-19T18:43:55Z</time>
      </trkpt>
      <trkpt lat="62.633298563979" lon="17.972674917455">
        <ele>72.6</ele>
        <time>2018-02-19T18:43:56Z</time>
      </trkpt>
      <trkpt lat="62.633284901482" lon="17.972737614067">
        <ele>72.8</ele>
        <time>2018-02-19T18:43:57Z</time>
      </trkpt>
      <trkpt lat="62.633272915365" lon="17.972795952091">
        <ele>73</ele>
        <time>2018-02-19T18:43:58Z</time>
      </trkpt>
      <trkpt lat="62.633262857085" lon="17.972853954839">
        <ele>73</ele>
        <time>2018-02-19T18:43:59Z</time>
      </trkpt>
      <trkpt lat="62.633247518208" lon="17.972921512953">
        <ele>73</ele>
        <time>2018-02-19T18:44:00Z</time>
      </trkpt>
      <trkpt lat="62.63323561591" lon="17.972981694995">
        <ele>73</ele>
        <time>2018-02-19T18:44:01Z</time>
      </trkpt>
      <trkpt lat="62.633222372508" lon="17.973044391607">
        <ele>73.2</ele>
        <time>2018-02-19T18:44:02Z</time>
      </trkpt>
      <trkpt lat="62.633210973124" lon="17.973102981088">
        <ele>73.2</ele>
        <time>2018-02-19T18:44:03Z</time>
      </trkpt>
      <trkpt lat="62.633197813541" lon="17.973163666044">
        <ele>73.4</ele>
        <time>2018-02-19T18:44:04Z</time>
      </trkpt>
      <trkpt lat="62.633186749433" lon="17.973217310204">
        <ele>73.4</ele>
        <time>2018-02-19T18:44:05Z</time>
      </trkpt>
      <trkpt lat="62.633174595678" lon="17.973284113947">
        <ele>73.4</ele>
        <time>2018-02-19T18:44:06Z</time>
      </trkpt>
      <trkpt lat="62.633160430267" lon="17.973338763935">
        <ele>73.8</ele>
        <time>2018-02-19T18:44:07Z</time>
      </trkpt>
      <trkpt lat="62.633148025055" lon="17.97339869452">
        <ele>73.8</ele>
        <time>2018-02-19T18:44:08Z</time>
      </trkpt>
      <trkpt lat="62.633133943463" lon="17.973456026716">
        <ele>73.8</ele>
        <time>2018-02-19T18:44:09Z</time>
      </trkpt>
      <trkpt lat="62.633121370613" lon="17.973517298405">
        <ele>74</ele>
        <time>2018-02-19T18:44:10Z</time>
      </trkpt>
      <trkpt lat="62.633106367012" lon="17.973578737732">
        <ele>74</ele>
        <time>2018-02-19T18:44:11Z</time>
      </trkpt>
      <trkpt lat="62.633087591556" lon="17.973626849838">
        <ele>74</ele>
        <time>2018-02-19T18:44:12Z</time>
      </trkpt>
      <trkpt lat="62.633072755593" lon="17.973682086559">
        <ele>74.2</ele>
        <time>2018-02-19T18:44:13Z</time>
      </trkpt>
      <trkpt lat="62.633056075612" lon="17.973738245289">
        <ele>74.2</ele>
        <time>2018-02-19T18:44:14Z</time>
      </trkpt>
      <trkpt lat="62.633039814726" lon="17.97380354029">
        <ele>74.4</ele>
        <time>2018-02-19T18:44:15Z</time>
      </trkpt>
      <trkpt lat="62.633026152229" lon="17.973870092576">
        <ele>74.4</ele>
        <time>2018-02-19T18:44:16Z</time>
      </trkpt>
      <trkpt lat="62.633009472248" lon="17.973924155831">
        <ele>74.4</ele>
        <time>2018-02-19T18:44:17Z</time>
      </trkpt>
      <trkpt lat="62.632991534982" lon="17.973986517167">
        <ele>74.6</ele>
        <time>2018-02-19T18:44:18Z</time>
      </trkpt>
      <trkpt lat="62.632977537209" lon="17.974043933182">
        <ele>74.6</ele>
        <time>2018-02-19T18:44:19Z</time>
      </trkpt>
      <trkpt lat="62.632962952703" lon="17.974107635622">
        <ele>74.8</ele>
        <time>2018-02-19T18:44:20Z</time>
      </trkpt>
      <trkpt lat="62.632947781464" lon="17.974167063293">
        <ele>74.8</ele>
        <time>2018-02-19T18:44:21Z</time>
      </trkpt>
      <trkpt lat="62.632931688216" lon="17.974223222023">
        <ele>74.8</ele>
        <time>2018-02-19T18:44:22Z</time>
      </trkpt>
      <trkpt lat="62.632921713755" lon="17.974260856754">
        <ele>74.8</ele>
        <time>2018-02-19T18:44:23Z</time>
      </trkpt>
      <trkpt lat="62.632895897503" lon="17.974338054053">
        <ele>75</ele>
        <time>2018-02-19T18:44:24Z</time>
      </trkpt>
      <trkpt lat="62.632874523658" lon="17.974396224439">
        <ele>75.2</ele>
        <time>2018-02-19T18:44:25Z</time>
      </trkpt>
      <trkpt lat="62.632848455949" lon="17.974440648509">
        <ele>75.2</ele>
        <time>2018-02-19T18:44:26Z</time>
      </trkpt>
      <trkpt lat="62.632820041308" lon="17.974475014299">
        <ele>75.2</ele>
        <time>2018-02-19T18:44:27Z</time>
      </trkpt>
      <trkpt lat="62.632790369382" lon="17.974486832778">
        <ele>75.4</ele>
        <time>2018-02-19T18:44:28Z</time>
      </trkpt>
      <trkpt lat="62.632759943085" lon="17.97448834152">
        <ele>75.4</ele>
        <time>2018-02-19T18:44:29Z</time>
      </trkpt>
      <trkpt lat="62.632725828752" lon="17.974490185538">
        <ele>75.2</ele>
        <time>2018-02-19T18:44:30Z</time>
      </trkpt>
      <trkpt lat="62.632694061351" lon="17.974478618516">
        <ele>75.4</ele>
        <time>2018-02-19T18:44:31Z</time>
      </trkpt>
      <trkpt lat="62.632666317262" lon="17.974454227187">
        <ele>75.4</ele>
        <time>2018-02-19T18:44:32Z</time>
      </trkpt>
      <trkpt lat="62.632637064431" lon="17.974431428419">
        <ele>75.4</ele>
        <time>2018-02-19T18:44:33Z</time>
      </trkpt>
      <trkpt lat="62.632605883763" lon="17.974409048746">
        <ele>75.4</ele>
        <time>2018-02-19T18:44:34Z</time>
      </trkpt>
      <trkpt lat="62.632576128018" lon="17.974392620222">
        <ele>75.6</ele>
        <time>2018-02-19T18:44:35Z</time>
      </trkpt>
      <trkpt lat="62.632546288454" lon="17.974369905273">
        <ele>75.6</ele>
        <time>2018-02-19T18:44:36Z</time>
      </trkpt>
      <trkpt lat="62.632515107786" lon="17.97434165827">
        <ele>75.4</ele>
        <time>2018-02-19T18:44:37Z</time>
      </trkpt>
      <trkpt lat="62.63249214138" lon="17.974310980516">
        <ele>75.4</ele>
        <time>2018-02-19T18:44:38Z</time>
      </trkpt>
      <trkpt lat="62.632467079499" lon="17.974280218943">
        <ele>75.6</ele>
        <time>2018-02-19T18:44:39Z</time>
      </trkpt>
      <trkpt lat="62.632438245763" lon="17.974247110438">
        <ele>75.6</ele>
        <time>2018-02-19T18:44:40Z</time>
      </trkpt>
      <trkpt lat="62.632410166398" lon="17.974221378005">
        <ele>75.4</ele>
        <time>2018-02-19T18:44:41Z</time>
      </trkpt>
      <trkpt lat="62.632379321006" lon="17.974192041355">
        <ele>75.6</ele>
        <time>2018-02-19T18:44:42Z</time>
      </trkpt>
      <trkpt lat="62.632355684048" lon="17.974165386913">
        <ele>75.6</ele>
        <time>2018-02-19T18:44:43Z</time>
      </trkpt>
      <trkpt lat="62.632327939959" lon="17.974137559005">
        <ele>75.6</ele>
        <time>2018-02-19T18:44:44Z</time>
      </trkpt>
      <trkpt lat="62.632301620793" lon="17.974109312002">
        <ele>75.6</ele>
        <time>2018-02-19T18:44:45Z</time>
      </trkpt>
      <trkpt lat="62.632272703238" lon="17.974091290917">
        <ele>75.6</ele>
        <time>2018-02-19T18:44:46Z</time>
      </trkpt>
      <trkpt lat="62.632242444579" lon="17.974066312855">
        <ele>75.4</ele>
        <time>2018-02-19T18:44:47Z</time>
      </trkpt>
      <trkpt lat="62.632215287223" lon="17.974032198522">
        <ele>75.2</ele>
        <time>2018-02-19T18:44:48Z</time>
      </trkpt>
      <trkpt lat="62.632184944745" lon="17.974008813021">
        <ele>75.4</ele>
        <time>2018-02-19T18:44:49Z</time>
      </trkpt>
      <trkpt lat="62.632152925887" lon="17.973974195774">
        <ele>75.6</ele>
        <time>2018-02-19T18:44:50Z</time>
      </trkpt>
      <trkpt lat="62.632121996676" lon="17.973943937115">
        <ele>75.4</ele>
        <time>2018-02-19T18:44:51Z</time>
      </trkpt>
      <trkpt lat="62.632091654198" lon="17.973903452538">
        <ele>75.6</ele>
        <time>2018-02-19T18:44:52Z</time>
      </trkpt>
      <trkpt lat="62.632065586489" lon="17.973871349861">
        <ele>75.6</ele>
        <time>2018-02-19T18:44:53Z</time>
      </trkpt>
      <trkpt lat="62.632037507124" lon="17.97384125884">
        <ele>75.4</ele>
        <time>2018-02-19T18:44:54Z</time>
      </trkpt>
      <trkpt lat="62.632006745551" lon="17.973804797575">
        <ele>75</ele>
        <time>2018-02-19T18:44:55Z</time>
      </trkpt>
      <trkpt lat="62.631976738349" lon="17.973777975495">
        <ele>75.2</ele>
        <time>2018-02-19T18:44:56Z</time>
      </trkpt>
      <trkpt lat="62.631947401699" lon="17.973748722664">
        <ele>75.2</ele>
        <time>2018-02-19T18:44:57Z</time>
      </trkpt>
      <trkpt lat="62.631914544651" lon="17.973711674666">
        <ele>75</ele>
        <time>2018-02-19T18:44:58Z</time>
      </trkpt>
      <trkpt lat="62.631889315132" lon="17.973685858414">
        <ele>75.2</ele>
        <time>2018-02-19T18:44:59Z</time>
      </trkpt>
      <trkpt lat="62.631854865523" lon="17.97365098971">
        <ele>75.2</ele>
        <time>2018-02-19T18:45:00Z</time>
      </trkpt>
      <trkpt lat="62.631824439226" lon="17.973622742707">
        <ele>75.2</ele>
        <time>2018-02-19T18:45:01Z</time>
      </trkpt>
      <trkpt lat="62.63179309092" lon="17.973590891487">
        <ele>75</ele>
        <time>2018-02-19T18:45:02Z</time>
      </trkpt>
      <trkpt lat="62.631757970759" lon="17.973556860973">
        <ele>75.2</ele>
        <time>2018-02-19T18:45:03Z</time>
      </trkpt>
      <trkpt lat="62.631730645765" lon="17.973526853771">
        <ele>75.2</ele>
        <time>2018-02-19T18:45:04Z</time>
      </trkpt>
      <trkpt lat="62.631701057658" lon="17.973495170189">
        <ele>75</ele>
        <time>2018-02-19T18:45:05Z</time>
      </trkpt>
      <trkpt lat="62.6316690388" lon="17.973463654245">
        <ele>75</ele>
        <time>2018-02-19T18:45:06Z</time>
      </trkpt>
      <trkpt lat="62.631638109589" lon="17.973460804399">
        <ele>75.2</ele>
        <time>2018-02-19T18:45:07Z</time>
      </trkpt>
      <trkpt lat="62.631605420179" lon="17.973473544887">
        <ele>75</ele>
        <time>2018-02-19T18:45:08Z</time>
      </trkpt>
      <trkpt lat="62.631577592271" lon="17.973489135221">
        <ele>75</ele>
        <time>2018-02-19T18:45:09Z</time>
      </trkpt>
      <trkpt lat="62.631548255621" lon="17.97351939388">
        <ele>75</ele>
        <time>2018-02-19T18:45:10Z</time>
      </trkpt>
      <trkpt lat="62.631518667514" lon="17.97354537777">
        <ele>74.8</ele>
        <time>2018-02-19T18:45:11Z</time>
      </trkpt>
      <trkpt lat="62.631486983932" lon="17.973575636429">
        <ele>74.8</ele>
        <time>2018-02-19T18:45:12Z</time>
      </trkpt>
      <trkpt lat="62.631453875427" lon="17.973606062726">
        <ele>74.8</ele>
        <time>2018-02-19T18:45:13Z</time>
      </trkpt>
      <trkpt lat="62.631425041691" lon="17.973640847611">
        <ele>74.6</ele>
        <time>2018-02-19T18:45:14Z</time>
      </trkpt>
      <trkpt lat="62.63139578886" lon="17.973681499826">
        <ele>74.6</ele>
        <time>2018-02-19T18:45:15Z</time>
      </trkpt>
      <trkpt lat="62.631364943468" lon="17.973722822593">
        <ele>74.6</ele>
        <time>2018-02-19T18:45:16Z</time>
      </trkpt>
      <trkpt lat="62.631338456664" lon="17.973751153415">
        <ele>74.6</ele>
        <time>2018-02-19T18:45:17Z</time>
      </trkpt>
      <trkpt lat="62.631307695091" lon="17.973781998807">
        <ele>74.6</ele>
        <time>2018-02-19T18:45:18Z</time>
      </trkpt>
      <trkpt lat="62.631278861355" lon="17.973812592742">
        <ele>74.4</ele>
        <time>2018-02-19T18:45:19Z</time>
      </trkpt>
      <trkpt lat="62.631250111438" lon="17.973850227473">
        <ele>74.4</ele>
        <time>2018-02-19T18:45:20Z</time>
      </trkpt>
      <trkpt lat="62.631218008761" lon="17.973873445336">
        <ele>74.4</ele>
        <time>2018-02-19T18:45:21Z</time>
      </trkpt>
      <trkpt lat="62.631188420654" lon="17.973902027615">
        <ele>74.4</ele>
        <time>2018-02-19T18:45:22Z</time>
      </trkpt>
      <trkpt lat="62.631162185307" lon="17.973926921858">
        <ele>74.2</ele>
        <time>2018-02-19T18:45:23Z</time>
      </trkpt>
      <trkpt lat="62.631127987155" lon="17.973950474997">
        <ele>74.2</ele>
        <time>2018-02-19T18:45:24Z</time>
      </trkpt>
      <trkpt lat="62.63109655503" lon="17.973968579901">
        <ele>74.2</ele>
        <time>2018-02-19T18:45:25Z</time>
      </trkpt>
      <trkpt lat="62.631062859792" lon="17.973973441403">
        <ele>74.2</ele>
        <time>2018-02-19T18:45:26Z</time>
      </trkpt>
      <trkpt lat="62.631027739631" lon="17.973967406435">
        <ele>74.4</ele>
        <time>2018-02-19T18:45:27Z</time>
      </trkpt>
      <trkpt lat="62.630996391325" lon="17.973951648463">
        <ele>74.4</ele>
        <time>2018-02-19T18:45:28Z</time>
      </trkpt>
      <trkpt lat="62.630971748539" lon="17.973931028989">
        <ele>74.4</ele>
        <time>2018-02-19T18:45:29Z</time>
      </trkpt>
      <trkpt lat="62.630940735509" lon="17.973888448937">
        <ele>74.4</ele>
        <time>2018-02-19T18:45:30Z</time>
      </trkpt>
      <trkpt lat="62.630913997248" lon="17.973834469501">
        <ele>74.6</ele>
        <time>2018-02-19T18:45:31Z</time>
      </trkpt>
      <trkpt lat="62.630889605919" lon="17.973769593595">
        <ele>74.2</ele>
        <time>2018-02-19T18:45:32Z</time>
      </trkpt>
      <trkpt lat="62.630864963133" lon="17.97370966301">
        <ele>74</ele>
        <time>2018-02-19T18:45:33Z</time>
      </trkpt>
      <trkpt lat="62.630844930392" lon="17.973648307502">
        <ele>74</ele>
        <time>2018-02-19T18:45:34Z</time>
      </trkpt>
      <trkpt lat="62.630825149108" lon="17.97358141994">
        <ele>74</ele>
        <time>2018-02-19T18:45:35Z</time>
      </trkpt>
      <trkpt lat="62.630805786919" lon="17.973512101627">
        <ele>73.8</ele>
        <time>2018-02-19T18:45:36Z</time>
      </trkpt>
      <trkpt lat="62.630787095282" lon="17.973441023115">
        <ele>73.6</ele>
        <time>2018-02-19T18:45:37Z</time>
      </trkpt>
      <trkpt lat="62.630766391989" lon="17.973379919064">
        <ele>73.6</ele>
        <time>2018-02-19T18:45:38Z</time>
      </trkpt>
      <trkpt lat="62.630748454723" lon="17.973322838325">
        <ele>73.6</ele>
        <time>2018-02-19T18:45:39Z</time>
      </trkpt>
      <trkpt lat="62.630723476661" lon="17.973255196392">
        <ele>73.6</ele>
        <time>2018-02-19T18:45:40Z</time>
      </trkpt>
      <trkpt lat="62.630700845531" lon="17.973195433445">
        <ele>73.6</ele>
        <time>2018-02-19T18:45:41Z</time>
      </trkpt>
      <trkpt lat="62.630678465858" lon="17.973123349105">
        <ele>73.6</ele>
        <time>2018-02-19T18:45:42Z</time>
      </trkpt>
      <trkpt lat="62.630657511108" lon="17.973061574502">
        <ele>73.4</ele>
        <time>2018-02-19T18:45:43Z</time>
      </trkpt>
      <trkpt lat="62.630638316557" lon="17.972997872062">
        <ele>73.2</ele>
        <time>2018-02-19T18:45:44Z</time>
      </trkpt>
      <trkpt lat="62.630614763418" lon="17.972925033351">
        <ele>73</ele>
        <time>2018-02-19T18:45:45Z</time>
      </trkpt>
      <trkpt lat="62.630595904143" lon="17.972869880449">
        <ele>73</ele>
        <time>2018-02-19T18:45:46Z</time>
      </trkpt>
      <trkpt lat="62.6305710099" lon="17.972783882155">
        <ele>72.6</ele>
        <time>2018-02-19T18:45:47Z</time>
      </trkpt>
      <trkpt lat="62.630552821177" lon="17.97270383501">
        <ele>72.6</ele>
        <time>2018-02-19T18:45:48Z</time>
      </trkpt>
      <trkpt lat="62.630536392653" lon="17.972632253584">
        <ele>72.6</ele>
        <time>2018-02-19T18:45:49Z</time>
      </trkpt>
      <trkpt lat="62.630516024636" lon="17.972561091253">
        <ele>72.6</ele>
        <time>2018-02-19T18:45:50Z</time>
      </trkpt>
      <trkpt lat="62.630500350483" lon="17.972489761284">
        <ele>72.6</ele>
        <time>2018-02-19T18:45:51Z</time>
      </trkpt>
      <trkpt lat="62.630487609995" lon="17.97241633584">
        <ele>72.6</ele>
        <time>2018-02-19T18:45:52Z</time>
      </trkpt>
      <trkpt lat="62.630474534231" lon="17.97235095702">
        <ele>72.6</ele>
        <time>2018-02-19T18:45:53Z</time>
      </trkpt>
      <trkpt lat="62.630463553942" lon="17.972277112481">
        <ele>72.4</ele>
        <time>2018-02-19T18:45:54Z</time>
      </trkpt>
      <trkpt lat="62.630456010232" lon="17.972190275997">
        <ele>72.6</ele>
        <time>2018-02-19T18:45:55Z</time>
      </trkpt>
      <trkpt lat="62.63045031054" lon="17.972107295187">
        <ele>72.4</ele>
        <time>2018-02-19T18:45:56Z</time>
      </trkpt>
      <trkpt lat="62.630442683011" lon="17.972021715988">
        <ele>72.4</ele>
        <time>2018-02-19T18:45:57Z</time>
      </trkpt>
      <trkpt lat="62.630431786541" lon="17.971942004119">
        <ele>72.4</ele>
        <time>2018-02-19T18:45:58Z</time>
      </trkpt>
      <trkpt lat="62.630423991374" lon="17.971869416865">
        <ele>72.6</ele>
        <time>2018-02-19T18:45:59Z</time>
      </trkpt>
      <trkpt lat="62.630416028569" lon="17.971785011132">
        <ele>72.8</ele>
        <time>2018-02-19T18:46:00Z</time>
      </trkpt>
      <trkpt lat="62.630405635013" lon="17.971701527408">
        <ele>72.4</ele>
        <time>2018-02-19T18:46:01Z</time>
      </trkpt>
      <trkpt lat="62.630395744371" lon="17.971622402272">
        <ele>72</ele>
        <time>2018-02-19T18:46:02Z</time>
      </trkpt>
      <trkpt lat="62.630387111014" lon="17.971548557733">
        <ele>71.8</ele>
        <time>2018-02-19T18:46:03Z</time>
      </trkpt>
      <trkpt lat="62.630378477657" lon="17.971472366262">
        <ele>72</ele>
        <time>2018-02-19T18:46:04Z</time>
      </trkpt>
      <trkpt lat="62.630366072445" lon="17.971396677705">
        <ele>71.6</ele>
        <time>2018-02-19T18:46:05Z</time>
      </trkpt>
      <trkpt lat="62.630357103812" lon="17.971308164841">
        <ele>71.6</ele>
        <time>2018-02-19T18:46:06Z</time>
      </trkpt>
      <trkpt lat="62.63035391869" lon="17.971225519307">
        <ele>71.6</ele>
        <time>2018-02-19T18:46:07Z</time>
      </trkpt>
      <trkpt lat="62.630356014165" lon="17.971139353375">
        <ele>71.4</ele>
        <time>2018-02-19T18:46:08Z</time>
      </trkpt>
      <trkpt lat="62.630357103812" lon="17.97106684994">
        <ele>71.4</ele>
        <time>2018-02-19T18:46:09Z</time>
      </trkpt>
      <trkpt lat="62.630354253966" lon="17.970989652641">
        <ele>71.2</ele>
        <time>2018-02-19T18:46:10Z</time>
      </trkpt>
      <trkpt lat="62.630357439088" lon="17.970916646292">
        <ele>71.2</ele>
        <time>2018-02-19T18:46:11Z</time>
      </trkpt>
      <trkpt lat="62.630356684717" lon="17.970839532812">
        <ele>71.2</ele>
        <time>2018-02-19T18:46:12Z</time>
      </trkpt>
      <trkpt lat="62.630358780192" lon="17.970768286662">
        <ele>71.2</ele>
        <time>2018-02-19T18:46:13Z</time>
      </trkpt>
      <trkpt lat="62.630360288934" lon="17.970703494575">
        <ele>71</ele>
        <time>2018-02-19T18:46:14Z</time>
      </trkpt>
      <trkpt lat="62.630367916463" lon="17.970622190145">
        <ele>71</ele>
        <time>2018-02-19T18:46:15Z</time>
      </trkpt>
      <trkpt lat="62.630386189005" lon="17.970554883488">
        <ele>71</ele>
        <time>2018-02-19T18:46:16Z</time>
      </trkpt>
      <trkpt lat="62.630409574506" lon="17.970490091401">
        <ele>71</ele>
        <time>2018-02-19T18:46:17Z</time>
      </trkpt>
      <trkpt lat="62.630444275572" lon="17.970434351766">
        <ele>70.8</ele>
        <time>2018-02-19T18:46:18Z</time>
      </trkpt>
      <trkpt lat="62.630474115136" lon="17.970396046483">
        <ele>70.6</ele>
        <time>2018-02-19T18:46:19Z</time>
      </trkpt>
      <trkpt lat="62.630509570573" lon="17.970347599101">
        <ele>70.2</ele>
        <time>2018-02-19T18:46:20Z</time>
      </trkpt>
      <trkpt lat="62.630542762897" lon="17.970314406777">
        <ele>70</ele>
        <time>2018-02-19T18:46:21Z</time>
      </trkpt>
      <trkpt lat="62.630576961049" lon="17.970291356552">
        <ele>70</ele>
        <time>2018-02-19T18:46:22Z</time>
      </trkpt>
      <trkpt lat="62.630609650459" lon="17.970280711539">
        <ele>69.2</ele>
        <time>2018-02-19T18:46:23Z</time>
      </trkpt>
      <trkpt lat="62.630642675145" lon="17.970260008246">
        <ele>68.8</ele>
        <time>2018-02-19T18:46:24Z</time>
      </trkpt>
      <trkpt lat="62.630678968772" lon="17.970239388772">
        <ele>69</ele>
        <time>2018-02-19T18:46:25Z</time>
      </trkpt>
      <trkpt lat="62.630716435865" lon="17.970218350203">
        <ele>68.4</ele>
        <time>2018-02-19T18:46:26Z</time>
      </trkpt>
      <trkpt lat="62.630749125275" lon="17.970199993842">
        <ele>68.2</ele>
        <time>2018-02-19T18:46:27Z</time>
      </trkpt>
      <trkpt lat="62.630785251264" lon="17.970184654965">
        <ele>68.2</ele>
        <time>2018-02-19T18:46:28Z</time>
      </trkpt>
      <trkpt lat="62.630816264294" lon="17.970170238097">
        <ele>68</ele>
        <time>2018-02-19T18:46:29Z</time>
      </trkpt>
      <trkpt lat="62.630873177395" lon="17.97011885705">
        <ele>67.4</ele>
        <time>2018-02-19T18:46:31Z</time>
      </trkpt>
      <trkpt lat="62.630888097177" lon="17.970100165413">
        <ele>67.6</ele>
        <time>2018-02-19T18:46:32Z</time>
      </trkpt>
      <trkpt lat="62.630899664199" lon="17.970084407441">
        <ele>67.4</ele>
        <time>2018-02-19T18:46:33Z</time>
      </trkpt>
      <trkpt lat="62.630908129918" lon="17.970072002229">
        <ele>67.2</ele>
        <time>2018-02-19T18:46:34Z</time>
      </trkpt>
      <trkpt lat="62.63091550599" lon="17.970059429379">
        <ele>67.4</ele>
        <time>2018-02-19T18:46:35Z</time>
      </trkpt>
      <trkpt lat="62.630919613121" lon="17.970041827389">
        <ele>67.6</ele>
        <time>2018-02-19T18:46:36Z</time>
      </trkpt>
      <trkpt lat="62.63091550599" lon="17.970041408294">
        <ele>67.6</ele>
        <time>2018-02-19T18:46:37Z</time>
      </trkpt>
      <trkpt lat="62.630917433827" lon="17.970050712203">
        <ele>67.8</ele>
        <time>2018-02-19T18:46:38Z</time>
      </trkpt>
      <trkpt lat="62.630981974457" lon="17.970624872353">
        <ele>67.4</ele>
        <time>2018-02-19T18:49:18Z</time>
      </trkpt>
      <trkpt lat="62.630985830131" lon="17.970668542052">
        <ele>67.6</ele>
        <time>2018-02-19T18:49:19Z</time>
      </trkpt>
      <trkpt lat="62.630993876755" lon="17.970728975551">
        <ele>67.8</ele>
        <time>2018-02-19T18:49:20Z</time>
      </trkpt>
      <trkpt lat="62.63099932499" lon="17.97078102715">
        <ele>68</ele>
        <time>2018-02-19T18:49:21Z</time>
      </trkpt>
      <trkpt lat="62.631007958347" lon="17.970822014641">
        <ele>68.2</ele>
        <time>2018-02-19T18:49:22Z</time>
      </trkpt>
      <trkpt lat="62.631016172609" lon="17.970873647145">
        <ele>68.2</ele>
        <time>2018-02-19T18:49:23Z</time>
      </trkpt>
      <trkpt lat="62.63102279431" lon="17.970922597441">
        <ele>68.4</ele>
        <time>2018-02-19T18:49:24Z</time>
      </trkpt>
      <trkpt lat="62.631029918925" lon="17.970971463918">
        <ele>68.6</ele>
        <time>2018-02-19T18:49:25Z</time>
      </trkpt>
      <trkpt lat="62.631036289169" lon="17.971022258232">
        <ele>68.4</ele>
        <time>2018-02-19T18:49:26Z</time>
      </trkpt>
      <trkpt lat="62.631044251974" lon="17.971065676474">
        <ele>68.6</ele>
        <time>2018-02-19T18:49:27Z</time>
      </trkpt>
      <trkpt lat="62.63105296915" lon="17.971113201847">
        <ele>68.8</ele>
        <time>2018-02-19T18:49:28Z</time>
      </trkpt>
      <trkpt lat="62.631057495376" lon="17.971153854062">
        <ele>68.8</ele>
        <time>2018-02-19T18:49:29Z</time>
      </trkpt>
      <trkpt lat="62.631064368534" lon="17.971204396919">
        <ele>68.6</ele>
        <time>2018-02-19T18:49:30Z</time>
      </trkpt>
      <trkpt lat="62.631071660787" lon="17.971248904808">
        <ele>68.6</ele>
        <time>2018-02-19T18:49:31Z</time>
      </trkpt>
      <trkpt lat="62.631079036859" lon="17.971293412697">
        <ele>68.6</ele>
        <time>2018-02-19T18:49:32Z</time>
      </trkpt>
      <trkpt lat="62.631089514234" lon="17.971335322197">
        <ele>68.8</ele>
        <time>2018-02-19T18:49:33Z</time>
      </trkpt>
      <trkpt lat="62.63109739322" lon="17.971381255009">
        <ele>68.8</ele>
        <time>2018-02-19T18:49:34Z</time>
      </trkpt>
      <trkpt lat="62.631106026577" lon="17.971422745414">
        <ele>68.8</ele>
        <time>2018-02-19T18:49:35Z</time>
      </trkpt>
      <trkpt lat="62.631112899735" lon="17.971476892488">
        <ele>68.8</ele>
        <time>2018-02-19T18:49:36Z</time>
      </trkpt>
      <trkpt lat="62.631118850884" lon="17.971524250223">
        <ele>69</ele>
        <time>2018-02-19T18:49:37Z</time>
      </trkpt>
      <trkpt lat="62.631126981327" lon="17.971566746456">
        <ele>69.2</ele>
        <time>2018-02-19T18:49:38Z</time>
      </trkpt>
      <trkpt lat="62.631134357399" lon="17.971613266001">
        <ele>69.4</ele>
        <time>2018-02-19T18:49:39Z</time>
      </trkpt>
      <trkpt lat="62.631141565833" lon="17.971660959012">
        <ele>69.4</ele>
        <time>2018-02-19T18:49:40Z</time>
      </trkpt>
      <trkpt lat="62.631150869742" lon="17.971700605399">
        <ele>69.8</ele>
        <time>2018-02-19T18:49:41Z</time>
      </trkpt>
      <trkpt lat="62.63116025747" lon="17.971746286754">
        <ele>69.8</ele>
        <time>2018-02-19T18:49:42Z</time>
      </trkpt>
      <trkpt lat="62.631168304094" lon="17.971786687512">
        <ele>69.6</ele>
        <time>2018-02-19T18:49:43Z</time>
      </trkpt>
      <trkpt lat="62.631180206392" lon="17.971824322243">
        <ele>69.8</ele>
        <time>2018-02-19T18:49:44Z</time>
      </trkpt>
      <trkpt lat="62.631191773414" lon="17.971871260883">
        <ele>69.8</ele>
        <time>2018-02-19T18:49:45Z</time>
      </trkpt>
      <trkpt lat="62.631203759531" lon="17.971906548682">
        <ele>69.8</ele>
        <time>2018-02-19T18:49:46Z</time>
      </trkpt>
      <trkpt lat="62.63121473982" lon="17.971946614164">
        <ele>70</ele>
        <time>2018-02-19T18:49:47Z</time>
      </trkpt>
      <trkpt lat="62.631227228851" lon="17.971994055718">
        <ele>70</ele>
        <time>2018-02-19T18:49:48Z</time>
      </trkpt>
      <trkpt lat="62.631236868036" lon="17.972032528639">
        <ele>70</ele>
        <time>2018-02-19T18:49:49Z</time>
      </trkpt>
      <trkpt lat="62.631246004307" lon="17.972077539442">
        <ele>70.2</ele>
        <time>2018-02-19T18:49:50Z</time>
      </trkpt>
      <trkpt lat="62.631256062587" lon="17.972120119494">
        <ele>70.2</ele>
        <time>2018-02-19T18:49:51Z</time>
      </trkpt>
      <trkpt lat="62.631267629609" lon="17.972156329302">
        <ele>70.4</ele>
        <time>2018-02-19T18:49:52Z</time>
      </trkpt>
      <trkpt lat="62.631279448088" lon="17.972195975689">
        <ele>70.6</ele>
        <time>2018-02-19T18:49:53Z</time>
      </trkpt>
      <trkpt lat="62.631291350386" lon="17.97223612499">
        <ele>70.4</ele>
        <time>2018-02-19T18:49:54Z</time>
      </trkpt>
      <trkpt lat="62.631302582132" lon="17.972277112481">
        <ele>70.6</ele>
        <time>2018-02-19T18:49:55Z</time>
      </trkpt>
      <trkpt lat="62.631315406439" lon="17.972318854343">
        <ele>70.8</ele>
        <time>2018-02-19T18:49:56Z</time>
      </trkpt>
      <trkpt lat="62.63132789547" lon="17.972354393599">
        <ele>70.6</ele>
        <time>2018-02-19T18:49:57Z</time>
      </trkpt>
      <trkpt lat="62.631340300682" lon="17.972392279787">
        <ele>70.8</ele>
        <time>2018-02-19T18:49:58Z</time>
      </trkpt>
      <trkpt lat="62.631352789713" lon="17.972428741052">
        <ele>71</ele>
        <time>2018-02-19T18:49:59Z</time>
      </trkpt>
      <trkpt lat="62.631365194925" lon="17.972466794878">
        <ele>71.2</ele>
        <time>2018-02-19T18:50:00Z</time>
      </trkpt>
      <trkpt lat="62.631378941241" lon="17.972501495944">
        <ele>71.2</ele>
        <time>2018-02-19T18:50:01Z</time>
      </trkpt>
      <trkpt lat="62.63139159791" lon="17.972540136503">
        <ele>71.4</ele>
        <time>2018-02-19T18:50:02Z</time>
      </trkpt>
      <trkpt lat="62.631404254579" lon="17.972573831741">
        <ele>71.4</ele>
        <time>2018-02-19T18:50:03Z</time>
      </trkpt>
      <trkpt lat="62.631416659791" lon="17.972610209187">
        <ele>71.4</ele>
        <time>2018-02-19T18:50:04Z</time>
      </trkpt>
      <trkpt lat="62.631430406107" lon="17.972647508642">
        <ele>71.6</ele>
        <time>2018-02-19T18:50:05Z</time>
      </trkpt>
      <trkpt lat="62.631444990613" lon="17.972683802269">
        <ele>71.6</ele>
        <time>2018-02-19T18:50:06Z</time>
      </trkpt>
      <trkpt lat="62.631459323662" lon="17.972723783932">
        <ele>71.8</ele>
        <time>2018-02-19T18:50:07Z</time>
      </trkpt>
      <trkpt lat="62.631473153797" lon="17.972760748111">
        <ele>71.8</ele>
        <time>2018-02-19T18:50:08Z</time>
      </trkpt>
      <trkpt lat="62.631486061923" lon="17.972793772797">
        <ele>72</ele>
        <time>2018-02-19T18:50:09Z</time>
      </trkpt>
      <trkpt lat="62.631501652257" lon="17.972832580994">
        <ele>72</ele>
        <time>2018-02-19T18:50:10Z</time>
      </trkpt>
      <trkpt lat="62.631514895659" lon="17.972862420558">
        <ele>72.2</ele>
        <time>2018-02-19T18:50:11Z</time>
      </trkpt>
      <trkpt lat="62.631529647803" lon="17.972897373081">
        <ele>72.2</ele>
        <time>2018-02-19T18:50:12Z</time>
      </trkpt>
      <trkpt lat="62.631542807386" lon="17.972934923993">
        <ele>72.4</ele>
        <time>2018-02-19T18:50:13Z</time>
      </trkpt>
      <trkpt lat="62.631554122951" lon="17.972968116317">
        <ele>72.6</ele>
        <time>2018-02-19T18:50:14Z</time>
      </trkpt>
      <trkpt lat="62.631568623638" lon="17.973010696369">
        <ele>72.8</ele>
        <time>2018-02-19T18:50:15Z</time>
      </trkpt>
      <trkpt lat="62.631583459601" lon="17.973046403263">
        <ele>72.8</ele>
        <time>2018-02-19T18:50:16Z</time>
      </trkpt>
      <trkpt lat="62.631596200089" lon="17.973079595587">
        <ele>73.2</ele>
        <time>2018-02-19T18:50:17Z</time>
      </trkpt>
      <trkpt lat="62.631613466803" lon="17.973117481775">
        <ele>73.2</ele>
        <time>2018-02-19T18:50:18Z</time>
      </trkpt>
      <trkpt lat="62.631629727689" lon="17.9731489139">
        <ele>73.4</ele>
        <time>2018-02-19T18:50:19Z</time>
      </trkpt>
      <trkpt lat="62.631647329679" lon="17.973181351853">
        <ele>73.6</ele>
        <time>2018-02-19T18:50:20Z</time>
      </trkpt>
      <trkpt lat="62.631667949153" lon="17.973216388195">
        <ele>73.6</ele>
        <time>2018-02-19T18:50:21Z</time>
      </trkpt>
      <trkpt lat="62.631685383505" lon="17.97324279118">
        <ele>73.8</ele>
        <time>2018-02-19T18:50:22Z</time>
      </trkpt>
      <trkpt lat="62.631702231124" lon="17.973266176681">
        <ele>74</ele>
        <time>2018-02-19T18:50:23Z</time>
      </trkpt>
      <trkpt lat="62.631719497838" lon="17.973290735648">
        <ele>74</ele>
        <time>2018-02-19T18:50:24Z</time>
      </trkpt>
      <trkpt lat="62.631742464244" lon="17.973327196913">
        <ele>73.8</ele>
        <time>2018-02-19T18:50:25Z</time>
      </trkpt>
      <trkpt lat="62.631761407338" lon="17.973355192459">
        <ele>74</ele>
        <time>2018-02-19T18:50:26Z</time>
      </trkpt>
      <trkpt lat="62.631781607717" lon="17.973389306792">
        <ele>74</ele>
        <time>2018-02-19T18:50:27Z</time>
      </trkpt>
      <trkpt lat="62.631800802268" lon="17.973412692293">
        <ele>74</ele>
        <time>2018-02-19T18:50:28Z</time>
      </trkpt>
      <trkpt lat="62.631819745362" lon="17.973430713378">
        <ele>74</ele>
        <time>2018-02-19T18:50:29Z</time>
      </trkpt>
      <trkpt lat="62.631844723424" lon="17.973454517974">
        <ele>74.2</ele>
        <time>2018-02-19T18:50:30Z</time>
      </trkpt>
      <trkpt lat="62.631866348726" lon="17.973472203783">
        <ele>74.2</ele>
        <time>2018-02-19T18:50:31Z</time>
      </trkpt>
      <trkpt lat="62.631888225485" lon="17.973493661447">
        <ele>74.4</ele>
        <time>2018-02-19T18:50:32Z</time>
      </trkpt>
      <trkpt lat="62.631910018425" lon="17.973518639509">
        <ele>74.2</ele>
        <time>2018-02-19T18:50:33Z</time>
      </trkpt>
      <trkpt lat="62.631928626243" lon="17.973541019182">
        <ele>74.4</ele>
        <time>2018-02-19T18:50:34Z</time>
      </trkpt>
      <trkpt lat="62.63194731788" lon="17.973568344176">
        <ele>74.4</ele>
        <time>2018-02-19T18:50:35Z</time>
      </trkpt>
      <trkpt lat="62.631969446096" lon="17.973598938111">
        <ele>74.4</ele>
        <time>2018-02-19T18:50:36Z</time>
      </trkpt>
      <trkpt lat="62.631988892104" lon="17.973623245621">
        <ele>74.4</ele>
        <time>2018-02-19T18:50:37Z</time>
      </trkpt>
      <trkpt lat="62.632009176302" lon="17.973645876751">
        <ele>74.6</ele>
        <time>2018-02-19T18:50:38Z</time>
      </trkpt>
      <trkpt lat="62.632030382509" lon="17.973669513709">
        <ele>74.4</ele>
        <time>2018-02-19T18:50:39Z</time>
      </trkpt>
      <trkpt lat="62.632053181277" lon="17.973695162323">
        <ele>74.4</ele>
        <time>2018-02-19T18:50:40Z</time>
      </trkpt>
      <trkpt lat="62.632074052208" lon="17.973718380186">
        <ele>74.4</ele>
        <time>2018-02-19T18:50:41Z</time>
      </trkpt>
      <trkpt lat="62.632097605347" lon="17.973746375732">
        <ele>74.4</ele>
        <time>2018-02-19T18:50:42Z</time>
      </trkpt>
      <trkpt lat="62.632118392459" lon="17.97377252726">
        <ele>74.4</ele>
        <time>2018-02-19T18:50:43Z</time>
      </trkpt>
      <trkpt lat="62.632137754648" lon="17.973794571657">
        <ele>74.4</ele>
        <time>2018-02-19T18:50:44Z</time>
      </trkpt>
      <trkpt lat="62.632161307787" lon="17.973819130624">
        <ele>74.2</ele>
        <time>2018-02-19T18:50:45Z</time>
      </trkpt>
      <trkpt lat="62.6321803347" lon="17.973842683763">
        <ele>74.2</ele>
        <time>2018-02-19T18:50:46Z</time>
      </trkpt>
      <trkpt lat="62.632200032165" lon="17.973861123943">
        <ele>74.2</ele>
        <time>2018-02-19T18:50:47Z</time>
      </trkpt>
      <trkpt lat="62.632221573648" lon="17.973889538584">
        <ele>74.2</ele>
        <time>2018-02-19T18:50:48Z</time>
      </trkpt>
      <trkpt lat="62.632238588905" lon="17.973912421171">
        <ele>74.4</ele>
        <time>2018-02-19T18:50:49Z</time>
      </trkpt>
      <trkpt lat="62.632258370189" lon="17.973939662346">
        <ele>74.4</ele>
        <time>2018-02-19T18:50:50Z</time>
      </trkpt>
      <trkpt lat="62.63227924112" lon="17.973967993168">
        <ele>74.4</ele>
        <time>2018-02-19T18:50:51Z</time>
      </trkpt>
      <trkpt lat="62.632299273861" lon="17.973988193547">
        <ele>74.6</ele>
        <time>2018-02-19T18:50:52Z</time>
      </trkpt>
      <trkpt lat="62.632318216955" lon="17.974004370614">
        <ele>74.6</ele>
        <time>2018-02-19T18:50:53Z</time>
      </trkpt>
      <trkpt lat="62.632341770094" lon="17.974023062251">
        <ele>74.6</ele>
        <time>2018-02-19T18:50:54Z</time>
      </trkpt>
      <trkpt lat="62.632362976301" lon="17.974045944838">
        <ele>74.6</ele>
        <time>2018-02-19T18:50:55Z</time>
      </trkpt>
      <trkpt lat="62.632383679594" lon="17.974064636475">
        <ele>74.6</ele>
        <time>2018-02-19T18:50:56Z</time>
      </trkpt>
      <trkpt lat="62.632405891629" lon="17.974084082483">
        <ele>74.8</ele>
        <time>2018-02-19T18:50:57Z</time>
      </trkpt>
      <trkpt lat="62.632428019845" lon="17.974101684473">
        <ele>74.8</ele>
        <time>2018-02-19T18:50:58Z</time>
      </trkpt>
      <trkpt lat="62.632445621835" lon="17.974119621739">
        <ele>74.8</ele>
        <time>2018-02-19T18:50:59Z</time>
      </trkpt>
      <trkpt lat="62.632469007336" lon="17.974148623113">
        <ele>74.8</ele>
        <time>2018-02-19T18:51:00Z</time>
      </trkpt>
      <trkpt lat="62.632486022593" lon="17.97417821122">
        <ele>74.8</ele>
        <time>2018-02-19T18:51:01Z</time>
      </trkpt>
      <trkpt lat="62.63250471423" lon="17.974211990277">
        <ele>74.8</ele>
        <time>2018-02-19T18:51:02Z</time>
      </trkpt>
      <trkpt lat="62.632526423351" lon="17.974230598095">
        <ele>74.8</ele>
        <time>2018-02-19T18:51:03Z</time>
      </trkpt>
      <trkpt lat="62.632545450264" lon="17.974248535361">
        <ele>74.8</ele>
        <time>2018-02-19T18:51:04Z</time>
      </trkpt>
      <trkpt lat="62.632567746118" lon="17.974275692717">
        <ele>74.8</ele>
        <time>2018-02-19T18:51:05Z</time>
      </trkpt>
      <trkpt lat="62.632591466895" lon="17.974303688263">
        <ele>74.8</ele>
        <time>2018-02-19T18:51:06Z</time>
      </trkpt>
      <trkpt lat="62.632608398333" lon="17.974331851447">
        <ele>75</ele>
        <time>2018-02-19T18:51:07Z</time>
      </trkpt>
      <trkpt lat="62.632630275092" lon="17.974359427898">
        <ele>75</ele>
        <time>2018-02-19T18:51:08Z</time>
      </trkpt>
      <trkpt lat="62.632651146023" lon="17.974383903046">
        <ele>75</ele>
        <time>2018-02-19T18:51:09Z</time>
      </trkpt>
      <trkpt lat="62.632673777153" lon="17.974405276891">
        <ele>74.8</ele>
        <time>2018-02-19T18:51:10Z</time>
      </trkpt>
      <trkpt lat="62.632693977532" lon="17.974428997668">
        <ele>74.8</ele>
        <time>2018-02-19T18:51:11Z</time>
      </trkpt>
      <trkpt lat="62.632717363033" lon="17.974445677649">
        <ele>75</ele>
        <time>2018-02-19T18:51:12Z</time>
      </trkpt>
      <trkpt lat="62.632740497077" lon="17.974456406481">
        <ele>74.8</ele>
        <time>2018-02-19T18:51:13Z</time>
      </trkpt>
      <trkpt lat="62.632762541474" lon="17.974463614915">
        <ele>74.8</ele>
        <time>2018-02-19T18:51:14Z</time>
      </trkpt>
      <trkpt lat="62.632785088785" lon="17.974462273811">
        <ele>74.8</ele>
        <time>2018-02-19T18:51:15Z</time>
      </trkpt>
      <trkpt lat="62.632806546449" lon="17.974452383169">
        <ele>74.8</ele>
        <time>2018-02-19T18:51:16Z</time>
      </trkpt>
      <trkpt lat="62.63282490281" lon="17.974432601885">
        <ele>74.8</ele>
        <time>2018-02-19T18:51:17Z</time>
      </trkpt>
      <trkpt lat="62.632841834248" lon="17.974405444529">
        <ele>75</ele>
        <time>2018-02-19T18:51:18Z</time>
      </trkpt>
      <trkpt lat="62.632853485089" lon="17.974366887789">
        <ele>74.8</ele>
        <time>2018-02-19T18:51:19Z</time>
      </trkpt>
      <trkpt lat="62.63286513593" lon="17.974323134271">
        <ele>75</ele>
        <time>2018-02-19T18:51:20Z</time>
      </trkpt>
      <trkpt lat="62.632875361848" lon="17.974284828988">
        <ele>75</ele>
        <time>2018-02-19T18:51:21Z</time>
      </trkpt>
      <trkpt lat="62.63288525249" lon="17.974244344411">
        <ele>74.8</ele>
        <time>2018-02-19T18:51:22Z</time>
      </trkpt>
      <trkpt lat="62.632895981322" lon="17.974201764359">
        <ele>74.8</ele>
        <time>2018-02-19T18:51:23Z</time>
      </trkpt>
      <trkpt lat="62.632905955783" lon="17.974158429936">
        <ele>74.8</ele>
        <time>2018-02-19T18:51:24Z</time>
      </trkpt>
      <trkpt lat="62.632919283004" lon="17.974111742753">
        <ele>74.8</ele>
        <time>2018-02-19T18:51:25Z</time>
      </trkpt>
      <trkpt lat="62.632930598569" lon="17.97406924652">
        <ele>74.8</ele>
        <time>2018-02-19T18:51:26Z</time>
      </trkpt>
      <trkpt lat="62.632940070116" lon="17.974030522142">
        <ele>74.8</ele>
        <time>2018-02-19T18:51:27Z</time>
      </trkpt>
      <trkpt lat="62.632952391509" lon="17.973989702289">
        <ele>74.8</ele>
        <time>2018-02-19T18:51:28Z</time>
      </trkpt>
      <trkpt lat="62.632962701246" lon="17.973952821929">
        <ele>74.8</ele>
        <time>2018-02-19T18:51:29Z</time>
      </trkpt>
      <trkpt lat="62.63297326244" lon="17.973906972936">
        <ele>74.6</ele>
        <time>2018-02-19T18:51:30Z</time>
      </trkpt>
      <trkpt lat="62.632984578005" lon="17.97386472816">
        <ele>74.6</ele>
        <time>2018-02-19T18:51:31Z</time>
      </trkpt>
      <trkpt lat="62.632996228846" lon="17.973824243583">
        <ele>74.6</ele>
        <time>2018-02-19T18:51:32Z</time>
      </trkpt>
      <trkpt lat="62.633007460592" lon="17.973784597196">
        <ele>74.6</ele>
        <time>2018-02-19T18:51:33Z</time>
      </trkpt>
      <trkpt lat="62.63302103927" lon="17.973745956637">
        <ele>74.6</ele>
        <time>2018-02-19T18:51:34Z</time>
      </trkpt>
      <trkpt lat="62.633034534129" lon="17.973705639698">
        <ele>74.6</ele>
        <time>2018-02-19T18:51:35Z</time>
      </trkpt>
      <trkpt lat="62.633048867178" lon="17.973660461257">
        <ele>74.8</ele>
        <time>2018-02-19T18:51:36Z</time>
      </trkpt>
      <trkpt lat="62.633062362037" lon="17.973616288644">
        <ele>74.6</ele>
        <time>2018-02-19T18:51:37Z</time>
      </trkpt>
      <trkpt lat="62.63307384524" lon="17.973572702764">
        <ele>74.6</ele>
        <time>2018-02-19T18:51:38Z</time>
      </trkpt>
      <trkpt lat="62.63308641809" lon="17.973534565119">
        <ele>74.4</ele>
        <time>2018-02-19T18:51:39Z</time>
      </trkpt>
      <trkpt lat="62.633101589329" lon="17.973487794117">
        <ele>74.2</ele>
        <time>2018-02-19T18:51:40Z</time>
      </trkpt>
      <trkpt lat="62.633113575446" lon="17.973448650644">
        <ele>74</ele>
        <time>2018-02-19T18:51:41Z</time>
      </trkpt>
      <trkpt lat="62.633126567391" lon="17.973405819135">
        <ele>74</ele>
        <time>2018-02-19T18:51:42Z</time>
      </trkpt>
      <trkpt lat="62.633137631499" lon="17.973363322902">
        <ele>74</ele>
        <time>2018-02-19T18:51:43Z</time>
      </trkpt>
      <trkpt lat="62.633146935408" lon="17.973323425058">
        <ele>74</ele>
        <time>2018-02-19T18:51:44Z</time>
      </trkpt>
      <trkpt lat="62.633157580421" lon="17.973276486418">
        <ele>73.8</ele>
        <time>2018-02-19T18:51:45Z</time>
      </trkpt>
      <trkpt lat="62.633167554882" lon="17.973228206674">
        <ele>73.8</ele>
        <time>2018-02-19T18:51:46Z</time>
      </trkpt>
      <trkpt lat="62.633174595678" lon="17.973185961898">
        <ele>73.8</ele>
        <time>2018-02-19T18:51:47Z</time>
      </trkpt>
      <trkpt lat="62.633184821596" lon="17.973139274715">
        <ele>73.8</ele>
        <time>2018-02-19T18:51:48Z</time>
      </trkpt>
      <trkpt lat="62.633193874048" lon="17.973099544509">
        <ele>73.8</ele>
        <time>2018-02-19T18:51:49Z</time>
      </trkpt>
      <trkpt lat="62.633203261776" lon="17.97305587481">
        <ele>73.6</ele>
        <time>2018-02-19T18:51:50Z</time>
      </trkpt>
      <trkpt lat="62.633214325884" lon="17.973006589238">
        <ele>73.6</ele>
        <time>2018-02-19T18:51:51Z</time>
      </trkpt>
      <trkpt lat="62.633224887078" lon="17.972958393313">
        <ele>73.6</ele>
        <time>2018-02-19T18:51:52Z</time>
      </trkpt>
      <trkpt lat="62.633234274806" lon="17.972916399994">
        <ele>73.4</ele>
        <time>2018-02-19T18:51:53Z</time>
      </trkpt>
      <trkpt lat="62.633244333086" lon="17.972864096938">
        <ele>73.2</ele>
        <time>2018-02-19T18:51:54Z</time>
      </trkpt>
      <trkpt lat="62.633254559004" lon="17.972812129158">
        <ele>73.2</ele>
        <time>2018-02-19T18:51:55Z</time>
      </trkpt>
      <trkpt lat="62.633263611456" lon="17.972767285993">
        <ele>73.2</ele>
        <time>2018-02-19T18:51:56Z</time>
      </trkpt>
      <trkpt lat="62.633275094659" lon="17.972718419516">
        <ele>73.2</ele>
        <time>2018-02-19T18:51:57Z</time>
      </trkpt>
      <trkpt lat="62.633285488215" lon="17.972670558867">
        <ele>73</ele>
        <time>2018-02-19T18:51:58Z</time>
      </trkpt>
      <trkpt lat="62.633290517355" lon="17.972633594688">
        <ele>73</ele>
        <time>2018-02-19T18:51:59Z</time>
      </trkpt>
      <trkpt lat="62.633297222875" lon="17.972588416247">
        <ele>73</ele>
        <time>2018-02-19T18:52:00Z</time>
      </trkpt>
      <trkpt lat="62.633304012214" lon="17.97254206434">
        <ele>72.8</ele>
        <time>2018-02-19T18:52:01Z</time>
      </trkpt>
      <trkpt lat="62.633310382458" lon="17.972496382985">
        <ele>72.8</ele>
        <time>2018-02-19T18:52:02Z</time>
      </trkpt>
      <trkpt lat="62.633318429082" lon="17.972452629467">
        <ele>72.6</ele>
        <time>2018-02-19T18:52:03Z</time>
      </trkpt>
      <trkpt lat="62.633326056611" lon="17.972409546501">
        <ele>72.6</ele>
        <time>2018-02-19T18:52:04Z</time>
      </trkpt>
      <trkpt lat="62.633333348864" lon="17.97236352987">
        <ele>72.6</ele>
        <time>2018-02-19T18:52:05Z</time>
      </trkpt>
      <trkpt lat="62.633341311669" lon="17.972313322289">
        <ele>72.6</ele>
        <time>2018-02-19T18:52:06Z</time>
      </trkpt>
      <trkpt lat="62.633349274474" lon="17.972261605966">
        <ele>72.4</ele>
        <time>2018-02-19T18:52:07Z</time>
      </trkpt>
      <trkpt lat="62.633357069641" lon="17.97221349386">
        <ele>72.4</ele>
        <time>2018-02-19T18:52:08Z</time>
      </trkpt>
      <trkpt lat="62.633364194256" lon="17.97216571703">
        <ele>72.4</ele>
        <time>2018-02-19T18:52:09Z</time>
      </trkpt>
      <trkpt lat="62.633373749622" lon="17.972110564128">
        <ele>72.2</ele>
        <time>2018-02-19T18:52:10Z</time>
      </trkpt>
      <trkpt lat="62.633379030219" lon="17.972063625488">
        <ele>72</ele>
        <time>2018-02-19T18:52:11Z</time>
      </trkpt>
      <trkpt lat="62.633385735739" lon="17.972009646052">
        <ele>72</ele>
        <time>2018-02-19T18:52:12Z</time>
      </trkpt>
      <trkpt lat="62.633391854526" lon="17.971957091539">
        <ele>71.8</ele>
        <time>2018-02-19T18:52:13Z</time>
      </trkpt>
      <trkpt lat="62.633395961657" lon="17.971913002745">
        <ele>71.6</ele>
        <time>2018-02-19T18:52:14Z</time>
      </trkpt>
      <trkpt lat="62.633402248082" lon="17.971859610042">
        <ele>71.6</ele>
        <time>2018-02-19T18:52:15Z</time>
      </trkpt>
      <trkpt lat="62.633407863955" lon="17.971805965882">
        <ele>71.6</ele>
        <time>2018-02-19T18:52:16Z</time>
      </trkpt>
      <trkpt lat="62.633411300534" lon="17.971759530156">
        <ele>71.6</ele>
        <time>2018-02-19T18:52:17Z</time>
      </trkpt>
      <trkpt lat="62.63341331219" lon="17.971705718358">
        <ele>71.4</ele>
        <time>2018-02-19T18:52:18Z</time>
      </trkpt>
      <trkpt lat="62.633417167864" lon="17.971653834397">
        <ele>71.2</ele>
        <time>2018-02-19T18:52:19Z</time>
      </trkpt>
      <trkpt lat="62.633421107357" lon="17.971601112246">
        <ele>71.2</ele>
        <time>2018-02-19T18:52:20Z</time>
      </trkpt>
      <trkpt lat="62.633423538108" lon="17.971548557733">
        <ele>71.2</ele>
        <time>2018-02-19T18:52:21Z</time>
      </trkpt>
      <trkpt lat="62.633427812877" lon="17.971491896089">
        <ele>71</ele>
        <time>2018-02-19T18:52:22Z</time>
      </trkpt>
      <trkpt lat="62.633429992171" lon="17.971439928309">
        <ele>71</ele>
        <time>2018-02-19T18:52:23Z</time>
      </trkpt>
      <trkpt lat="62.633432255284" lon="17.971384859226">
        <ele>71</ele>
        <time>2018-02-19T18:52:24Z</time>
      </trkpt>
      <trkpt lat="62.633432925836" lon="17.97132836522">
        <ele>70.8</ele>
        <time>2018-02-19T18:52:25Z</time>
      </trkpt>
      <trkpt lat="62.633433177293" lon="17.971278828191">
        <ele>70.8</ele>
        <time>2018-02-19T18:52:26Z</time>
      </trkpt>
      <trkpt lat="62.633432422922" lon="17.971226189859">
        <ele>70.8</ele>
        <time>2018-02-19T18:52:27Z</time>
      </trkpt>
      <trkpt lat="62.633434183121" lon="17.971169695853">
        <ele>70.6</ele>
        <time>2018-02-19T18:52:28Z</time>
      </trkpt>
      <trkpt lat="62.633434350759" lon="17.971123679222">
        <ele>70.6</ele>
        <time>2018-02-19T18:52:29Z</time>
      </trkpt>
      <trkpt lat="62.633431333275" lon="17.971065257379">
        <ele>70.4</ele>
        <time>2018-02-19T18:52:30Z</time>
      </trkpt>
      <trkpt lat="62.633431333275" lon="17.971007422269">
        <ele>70.4</ele>
        <time>2018-02-19T18:52:31Z</time>
      </trkpt>
      <trkpt lat="62.633429908352" lon="17.970955454489">
        <ele>70.2</ele>
        <time>2018-02-19T18:52:32Z</time>
      </trkpt>
      <trkpt lat="62.633426471773" lon="17.970901475053">
        <ele>70.2</ele>
        <time>2018-02-19T18:52:33Z</time>
      </trkpt>
      <trkpt lat="62.633424041022" lon="17.970848585264">
        <ele>70</ele>
        <time>2018-02-19T18:52:34Z</time>
      </trkpt>
      <trkpt lat="62.633421358814" lon="17.970798126226">
        <ele>70</ele>
        <time>2018-02-19T18:52:35Z</time>
      </trkpt>
      <trkpt lat="62.633418592787" lon="17.970740626392">
        <ele>70</ele>
        <time>2018-02-19T18:52:36Z</time>
      </trkpt>
      <trkpt lat="62.633417754597" lon="17.970680360531">
        <ele>69.8</ele>
        <time>2018-02-19T18:52:37Z</time>
      </trkpt>
      <trkpt lat="62.633412222543" lon="17.970623363611">
        <ele>69.8</ele>
        <time>2018-02-19T18:52:38Z</time>
      </trkpt>
      <trkpt lat="62.633408450688" lon="17.970572904573">
        <ele>69.8</ele>
        <time>2018-02-19T18:52:39Z</time>
      </trkpt>
      <trkpt lat="62.633404175919" lon="17.970510124142">
        <ele>69.4</ele>
        <time>2018-02-19T18:52:40Z</time>
      </trkpt>
      <trkpt lat="62.633402080444" lon="17.970464358968">
        <ele>69.2</ele>
        <time>2018-02-19T18:52:41Z</time>
      </trkpt>
      <trkpt lat="62.633399230598" lon="17.970410714808">
        <ele>69.2</ele>
        <time>2018-02-19T18:52:42Z</time>
      </trkpt>
      <trkpt lat="62.633396632209" lon="17.970351706232">
        <ele>69.2</ele>
        <time>2018-02-19T18:52:43Z</time>
      </trkpt>
      <trkpt lat="62.633394620553" lon="17.970300576642">
        <ele>69</ele>
        <time>2018-02-19T18:52:44Z</time>
      </trkpt>
      <trkpt lat="62.633393027992" lon="17.970245004645">
        <ele>69</ele>
        <time>2018-02-19T18:52:45Z</time>
      </trkpt>
      <trkpt lat="62.633390178146" lon="17.970185325517">
        <ele>69</ele>
        <time>2018-02-19T18:52:46Z</time>
      </trkpt>
      <trkpt lat="62.633387412119" lon="17.970134363565">
        <ele>68.8</ele>
        <time>2018-02-19T18:52:47Z</time>
      </trkpt>
      <trkpt lat="62.633383221169" lon="17.970074013885">
        <ele>68.8</ele>
        <time>2018-02-19T18:52:48Z</time>
      </trkpt>
      <trkpt lat="62.633383221169" lon="17.970019699173">
        <ele>68.6</ele>
        <time>2018-02-19T18:52:49Z</time>
      </trkpt>
      <trkpt lat="62.633379281676" lon="17.969961696425">
        <ele>68.6</ele>
        <time>2018-02-19T18:52:50Z</time>
      </trkpt>
      <trkpt lat="62.633375677459" lon="17.96991014774">
        <ele>68.2</ele>
        <time>2018-02-19T18:52:51Z</time>
      </trkpt>
      <trkpt lat="62.633374336355" lon="17.969852396449">
        <ele>68.2</ele>
        <time>2018-02-19T18:52:52Z</time>
      </trkpt>
      <trkpt lat="62.633372659975" lon="17.969797578823">
        <ele>67.8</ele>
        <time>2018-02-19T18:52:53Z</time>
      </trkpt>
      <trkpt lat="62.633369893948" lon="17.969743599387">
        <ele>67.8</ele>
        <time>2018-02-19T18:52:54Z</time>
      </trkpt>
      <trkpt lat="62.633371151233" lon="17.969678555843">
        <ele>67.6</ele>
        <time>2018-02-19T18:52:55Z</time>
      </trkpt>
      <trkpt lat="62.633372073242" lon="17.969620469276">
        <ele>67.4</ele>
        <time>2018-02-19T18:52:56Z</time>
      </trkpt>
      <trkpt lat="62.633374420174" lon="17.969562634166">
        <ele>67.4</ele>
        <time>2018-02-19T18:52:57Z</time>
      </trkpt>
      <trkpt lat="62.633376348011" lon="17.969505888703">
        <ele>67.4</ele>
        <time>2018-02-19T18:52:58Z</time>
      </trkpt>
      <trkpt lat="62.633377521477" lon="17.969452496">
        <ele>67.2</ele>
        <time>2018-02-19T18:52:59Z</time>
      </trkpt>
      <trkpt lat="62.633379030219" lon="17.969387871551">
        <ele>67.2</ele>
        <time>2018-02-19T18:53:00Z</time>
      </trkpt>
      <trkpt lat="62.633383640264" lon="17.969328695337">
        <ele>67</ele>
        <time>2018-02-19T18:53:01Z</time>
      </trkpt>
      <trkpt lat="62.633387831214" lon="17.969271949874">
        <ele>67</ele>
        <time>2018-02-19T18:53:02Z</time>
      </trkpt>
      <trkpt lat="62.633390261965" lon="17.969217048429">
        <ele>66.8</ele>
        <time>2018-02-19T18:53:03Z</time>
      </trkpt>
      <trkpt lat="62.633396045476" lon="17.969161224975">
        <ele>66.8</ele>
        <time>2018-02-19T18:53:04Z</time>
      </trkpt>
      <trkpt lat="62.633400487883" lon="17.969104479512">
        <ele>66.8</ele>
        <time>2018-02-19T18:53:05Z</time>
      </trkpt>
      <trkpt lat="62.633406439032" lon="17.969018145942">
        <ele>66.6</ele>
        <time>2018-02-19T18:53:06Z</time>
      </trkpt>
      <trkpt lat="62.633412725457" lon="17.968955197873">
        <ele>66.4</ele>
        <time>2018-02-19T18:53:07Z</time>
      </trkpt>
      <trkpt lat="62.633417838416" lon="17.968903230093">
        <ele>66.4</ele>
        <time>2018-02-19T18:53:08Z</time>
      </trkpt>
      <trkpt lat="62.633425549764" lon="17.968842880413">
        <ele>66.2</ele>
        <time>2018-02-19T18:53:09Z</time>
      </trkpt>
      <trkpt lat="62.633432171465" lon="17.968791750823">
        <ele>66</ele>
        <time>2018-02-19T18:53:10Z</time>
      </trkpt>
      <trkpt lat="62.63343845789" lon="17.968735256817">
        <ele>65.6</ele>
        <time>2018-02-19T18:53:11Z</time>
      </trkpt>
      <trkpt lat="62.633445414867" lon="17.968678930449">
        <ele>65.4</ele>
        <time>2018-02-19T18:53:12Z</time>
      </trkpt>
      <trkpt lat="62.633451785111" lon="17.968626543574">
        <ele>65</ele>
        <time>2018-02-19T18:53:13Z</time>
      </trkpt>
      <trkpt lat="62.633458406812" lon="17.968570971577">
        <ele>64.8</ele>
        <time>2018-02-19T18:53:14Z</time>
      </trkpt>
      <trkpt lat="62.633464944694" lon="17.968515148123">
        <ele>64.6</ele>
        <time>2018-02-19T18:53:15Z</time>
      </trkpt>
      <trkpt lat="62.633470560567" lon="17.968465275818">
        <ele>64.4</ele>
        <time>2018-02-19T18:53:16Z</time>
      </trkpt>
      <trkpt lat="62.633475757345" lon="17.968410122916">
        <ele>64.2</ele>
        <time>2018-02-19T18:53:17Z</time>
      </trkpt>
      <trkpt lat="62.633481708494" lon="17.968358406593">
        <ele>64</ele>
        <time>2018-02-19T18:53:18Z</time>
      </trkpt>
      <trkpt lat="62.633488833109" lon="17.96830249932">
        <ele>63.8</ele>
        <time>2018-02-19T18:53:19Z</time>
      </trkpt>
      <trkpt lat="62.633495119534" lon="17.968250196264">
        <ele>63.6</ele>
        <time>2018-02-19T18:53:20Z</time>
      </trkpt>
      <trkpt lat="62.633502914701" lon="17.968197222656">
        <ele>63.4</ele>
        <time>2018-02-19T18:53:21Z</time>
      </trkpt>
      <trkpt lat="62.633510290773" lon="17.968145338695">
        <ele>63.2</ele>
        <time>2018-02-19T18:53:22Z</time>
      </trkpt>
      <trkpt lat="62.633517499207" lon="17.968091023983">
        <ele>63</ele>
        <time>2018-02-19T18:53:23Z</time>
      </trkpt>
      <trkpt lat="62.63352730603" lon="17.968027908276">
        <ele>63</ele>
        <time>2018-02-19T18:53:24Z</time>
      </trkpt>
      <trkpt lat="62.633534514464" lon="17.967974599392">
        <ele>62.8</ele>
        <time>2018-02-19T18:53:25Z</time>
      </trkpt>
      <trkpt lat="62.633541052346" lon="17.967920368499">
        <ele>62.6</ele>
        <time>2018-02-19T18:53:26Z</time>
      </trkpt>
      <trkpt lat="62.633548512237" lon="17.967862784846">
        <ele>62.6</ele>
        <time>2018-02-19T18:53:27Z</time>
      </trkpt>
      <trkpt lat="62.633556726499" lon="17.967805536469">
        <ele>62.4</ele>
        <time>2018-02-19T18:53:28Z</time>
      </trkpt>
      <trkpt lat="62.633562929105" lon="17.967755412707">
        <ele>62</ele>
        <time>2018-02-19T18:53:29Z</time>
      </trkpt>
      <trkpt lat="62.633571394824" lon="17.967699337796">
        <ele>61.6</ele>
        <time>2018-02-19T18:53:30Z</time>
      </trkpt>
      <trkpt lat="62.633578770896" lon="17.967645023084">
        <ele>61.4</ele>
        <time>2018-02-19T18:53:31Z</time>
      </trkpt>
      <trkpt lat="62.633586398425" lon="17.967590121639">
        <ele>61</ele>
        <time>2018-02-19T18:53:32Z</time>
      </trkpt>
      <trkpt lat="62.633594277411" lon="17.967535136375">
        <ele>60.8</ele>
        <time>2018-02-19T18:53:33Z</time>
      </trkpt>
      <trkpt lat="62.633603078406" lon="17.96747604398">
        <ele>60.6</ele>
        <time>2018-02-19T18:53:34Z</time>
      </trkpt>
      <trkpt lat="62.633607604632" lon="17.967418711784">
        <ele>60.4</ele>
        <time>2018-02-19T18:53:35Z</time>
      </trkpt>
      <trkpt lat="62.63361447779" lon="17.967362469235">
        <ele>60</ele>
        <time>2018-02-19T18:53:36Z</time>
      </trkpt>
      <trkpt lat="62.633620931853" lon="17.96730924417">
        <ele>59.8</ele>
        <time>2018-02-19T18:53:37Z</time>
      </trkpt>
      <trkpt lat="62.633627385916" lon="17.967256857295">
        <ele>59.6</ele>
        <time>2018-02-19T18:53:38Z</time>
      </trkpt>
      <trkpt lat="62.63363375616" lon="17.967199944194">
        <ele>59.4</ele>
        <time>2018-02-19T18:53:39Z</time>
      </trkpt>
      <trkpt lat="62.633642557155" lon="17.96714831169">
        <ele>59.4</ele>
        <time>2018-02-19T18:53:40Z</time>
      </trkpt>
      <trkpt lat="62.633646496648" lon="17.967101875964">
        <ele>59</ele>
        <time>2018-02-19T18:53:41Z</time>
      </trkpt>
      <trkpt lat="62.633656722566" lon="17.96704102337">
        <ele>58.8</ele>
        <time>2018-02-19T18:53:42Z</time>
      </trkpt>
      <trkpt lat="62.633663344267" lon="17.9669882174">
        <ele>58.8</ele>
        <time>2018-02-19T18:53:43Z</time>
      </trkpt>
      <trkpt lat="62.633670720339" lon="17.96693289686">
        <ele>58.6</ele>
        <time>2018-02-19T18:53:44Z</time>
      </trkpt>
      <trkpt lat="62.633679437515" lon="17.966880342347">
        <ele>58.4</ele>
        <time>2018-02-19T18:53:45Z</time>
      </trkpt>
      <trkpt lat="62.633688657605" lon="17.966828290748">
        <ele>58.2</ele>
        <time>2018-02-19T18:53:46Z</time>
      </trkpt>
      <trkpt lat="62.633694273478" lon="17.966772551113">
        <ele>58</ele>
        <time>2018-02-19T18:53:47Z</time>
      </trkpt>
      <trkpt lat="62.633701733369" lon="17.966720415695">
        <ele>57.6</ele>
        <time>2018-02-19T18:53:48Z</time>
      </trkpt>
      <trkpt lat="62.633709947631" lon="17.966665598069">
        <ele>57.4</ele>
        <time>2018-02-19T18:53:49Z</time>
      </trkpt>
      <trkpt lat="62.633717239884" lon="17.966611702452">
        <ele>57</ele>
        <time>2018-02-19T18:53:50Z</time>
      </trkpt>
      <trkpt lat="62.63372428068" lon="17.966556381912">
        <ele>56.8</ele>
        <time>2018-02-19T18:53:51Z</time>
      </trkpt>
      <trkpt lat="62.633731321476" lon="17.966502570114">
        <ele>56.6</ele>
        <time>2018-02-19T18:53:52Z</time>
      </trkpt>
      <trkpt lat="62.633736937349" lon="17.966452194895">
        <ele>56.4</ele>
        <time>2018-02-19T18:53:53Z</time>
      </trkpt>
      <trkpt lat="62.633744732516" lon="17.966396036165">
        <ele>56.2</ele>
        <time>2018-02-19T18:53:54Z</time>
      </trkpt>
      <trkpt lat="62.63375194095" lon="17.966344319842">
        <ele>56.2</ele>
        <time>2018-02-19T18:53:55Z</time>
      </trkpt>
      <trkpt lat="62.633758143556" lon="17.966290591863">
        <ele>56</ele>
        <time>2018-02-19T18:53:56Z</time>
      </trkpt>
      <trkpt lat="62.633764094705" lon="17.966234852228">
        <ele>55.8</ele>
        <time>2018-02-19T18:53:57Z</time>
      </trkpt>
      <trkpt lat="62.633769710578" lon="17.966182046258">
        <ele>55.6</ele>
        <time>2018-02-19T18:53:58Z</time>
      </trkpt>
      <trkpt lat="62.633774655899" lon="17.96612655808">
        <ele>55.4</ele>
        <time>2018-02-19T18:53:59Z</time>
      </trkpt>
      <trkpt lat="62.633779936496" lon="17.966071321359">
        <ele>55.2</ele>
        <time>2018-02-19T18:54:00Z</time>
      </trkpt>
      <trkpt lat="62.633784127446" lon="17.96601843157">
        <ele>55</ele>
        <time>2018-02-19T18:54:01Z</time>
      </trkpt>
      <trkpt lat="62.633787061111" lon="17.965965122686">
        <ele>54.8</ele>
        <time>2018-02-19T18:54:02Z</time>
      </trkpt>
      <trkpt lat="62.633790078595" lon="17.965913741639">
        <ele>54.6</ele>
        <time>2018-02-19T18:54:03Z</time>
      </trkpt>
      <trkpt lat="62.633792425527" lon="17.965861522402">
        <ele>54.6</ele>
        <time>2018-02-19T18:54:04Z</time>
      </trkpt>
      <trkpt lat="62.633794772459" lon="17.965805196034">
        <ele>54.4</ele>
        <time>2018-02-19T18:54:05Z</time>
      </trkpt>
      <trkpt lat="62.633795359192" lon="17.965750462227">
        <ele>54.2</ele>
        <time>2018-02-19T18:54:06Z</time>
      </trkpt>
      <trkpt lat="62.63379552683" lon="17.965698662085">
        <ele>54</ele>
        <time>2018-02-19T18:54:07Z</time>
      </trkpt>
      <trkpt lat="62.633797957581" lon="17.965650130884">
        <ele>53.8</ele>
        <time>2018-02-19T18:54:08Z</time>
      </trkpt>
      <trkpt lat="62.633802567626" lon="17.965597995466">
        <ele>53.4</ele>
        <time>2018-02-19T18:54:09Z</time>
      </trkpt>
      <trkpt lat="62.633806507119" lon="17.965551978835">
        <ele>53.2</ele>
        <time>2018-02-19T18:54:10Z</time>
      </trkpt>
      <trkpt lat="62.633811284802" lon="17.965499005227">
        <ele>53</ele>
        <time>2018-02-19T18:54:11Z</time>
      </trkpt>
      <trkpt lat="62.633815978666" lon="17.96544930056">
        <ele>52.6</ele>
        <time>2018-02-19T18:54:12Z</time>
      </trkpt>
      <trkpt lat="62.633819079969" lon="17.965401691368">
        <ele>52.4</ele>
        <time>2018-02-19T18:54:13Z</time>
      </trkpt>
      <trkpt lat="62.633821259263" lon="17.965346454647">
        <ele>52.2</ele>
        <time>2018-02-19T18:54:14Z</time>
      </trkpt>
      <trkpt lat="62.633822851824" lon="17.965292894306">
        <ele>52</ele>
        <time>2018-02-19T18:54:15Z</time>
      </trkpt>
      <trkpt lat="62.633824695842" lon="17.965247883503">
        <ele>51.8</ele>
        <time>2018-02-19T18:54:16Z</time>
      </trkpt>
      <trkpt lat="62.633827964783" lon="17.96519281442">
        <ele>51.8</ele>
        <time>2018-02-19T18:54:17Z</time>
      </trkpt>
      <trkpt lat="62.633829641163" lon="17.965138415889">
        <ele>51.4</ele>
        <time>2018-02-19T18:54:18Z</time>
      </trkpt>
      <trkpt lat="62.633828635335" lon="17.965081670426">
        <ele>51.2</ele>
        <time>2018-02-19T18:54:19Z</time>
      </trkpt>
      <trkpt lat="62.633827713326" lon="17.965028277723">
        <ele>51</ele>
        <time>2018-02-19T18:54:20Z</time>
      </trkpt>
      <trkpt lat="62.633832910104" lon="17.96497739959">
        <ele>50.8</ele>
        <time>2018-02-19T18:54:21Z</time>
      </trkpt>
      <trkpt lat="62.633847746067" lon="17.964927862561">
        <ele>50.6</ele>
        <time>2018-02-19T18:54:22Z</time>
      </trkpt>
      <trkpt lat="62.633866940618" lon="17.964874050763">
        <ele>50.6</ele>
        <time>2018-02-19T18:54:23Z</time>
      </trkpt>
      <trkpt lat="62.633890074662" lon="17.964827028304">
        <ele>50.6</ele>
        <time>2018-02-19T18:54:24Z</time>
      </trkpt>
      <trkpt lat="62.633913124887" lon="17.964790650858">
        <ele>50.4</ele>
        <time>2018-02-19T18:54:25Z</time>
      </trkpt>
      <trkpt lat="62.63393718094" lon="17.964759051095">
        <ele>50.2</ele>
        <time>2018-02-19T18:54:26Z</time>
      </trkpt>
      <trkpt lat="62.633962075183" lon="17.96473600087">
        <ele>50</ele>
        <time>2018-02-19T18:54:27Z</time>
      </trkpt>
      <trkpt lat="62.633986550331" lon="17.964717225414">
        <ele>50</ele>
        <time>2018-02-19T18:54:28Z</time>
      </trkpt>
      <trkpt lat="62.634011863669" lon="17.964717979785">
        <ele>49.6</ele>
        <time>2018-02-19T18:54:29Z</time>
      </trkpt>
      <trkpt lat="62.634038350473" lon="17.964717644509">
        <ele>49.4</ele>
        <time>2018-02-19T18:54:30Z</time>
      </trkpt>
      <trkpt lat="62.634063160897" lon="17.964718817975">
        <ele>49.4</ele>
        <time>2018-02-19T18:54:31Z</time>
      </trkpt>
      <trkpt lat="62.634092162271" lon="17.964726613142">
        <ele>49.2</ele>
        <time>2018-02-19T18:54:32Z</time>
      </trkpt>
      <trkpt lat="62.634117643247" lon="17.96473432449">
        <ele>49</ele>
        <time>2018-02-19T18:54:33Z</time>
      </trkpt>
      <trkpt lat="62.634142034576" lon="17.964737425793">
        <ele>49</ele>
        <time>2018-02-19T18:54:34Z</time>
      </trkpt>
      <trkpt lat="62.634171203588" lon="17.964740946191">
        <ele>49</ele>
        <time>2018-02-19T18:54:35Z</time>
      </trkpt>
      <trkpt lat="62.634196516926" lon="17.964741784381">
        <ele>48.8</ele>
        <time>2018-02-19T18:54:36Z</time>
      </trkpt>
      <trkpt lat="62.634222584635" lon="17.964740108001">
        <ele>48.8</ele>
        <time>2018-02-19T18:54:37Z</time>
      </trkpt>
      <trkpt lat="62.634248652344" lon="17.964739856544">
        <ele>49</ele>
        <time>2018-02-19T18:54:38Z</time>
      </trkpt>
      <trkpt lat="62.634276144976" lon="17.964738766897">
        <ele>48.8</ele>
        <time>2018-02-19T18:54:39Z</time>
      </trkpt>
      <trkpt lat="62.63430011721" lon="17.964734240671">
        <ele>49</ele>
        <time>2018-02-19T18:54:40Z</time>
      </trkpt>
      <trkpt lat="62.634327861299" lon="17.964729965902">
        <ele>49</ele>
        <time>2018-02-19T18:54:41Z</time>
      </trkpt>
      <trkpt lat="62.634353929008" lon="17.964727954246">
        <ele>48.8</ele>
        <time>2018-02-19T18:54:42Z</time>
      </trkpt>
      <trkpt lat="62.634379577622" lon="17.964728708617">
        <ele>48.8</ele>
        <time>2018-02-19T18:54:43Z</time>
      </trkpt>
      <trkpt lat="62.634408830453" lon="17.964731558463">
        <ele>48.6</ele>
        <time>2018-02-19T18:54:44Z</time>
      </trkpt>
      <trkpt lat="62.634435317257" lon="17.964730049721">
        <ele>48.6</ele>
        <time>2018-02-19T18:54:45Z</time>
      </trkpt>
      <trkpt lat="62.634460798233" lon="17.964727451332">
        <ele>48.6</ele>
        <time>2018-02-19T18:54:46Z</time>
      </trkpt>
      <trkpt lat="62.634489464331" lon="17.964729462988">
        <ele>48.6</ele>
        <time>2018-02-19T18:54:47Z</time>
      </trkpt>
      <trkpt lat="62.634513688022" lon="17.964728289522">
        <ele>48.6</ele>
        <time>2018-02-19T18:54:48Z</time>
      </trkpt>
      <trkpt lat="62.634541348292" lon="17.964725272038">
        <ele>48.6</ele>
        <time>2018-02-19T18:54:49Z</time>
      </trkpt>
      <trkpt lat="62.634569427657" lon="17.964725355857">
        <ele>48.6</ele>
        <time>2018-02-19T18:54:50Z</time>
      </trkpt>
      <trkpt lat="62.634594405719" lon="17.964725439676">
        <ele>48.6</ele>
        <time>2018-02-19T18:54:51Z</time>
      </trkpt>
      <trkpt lat="62.634618126496" lon="17.96472594259">
        <ele>48.6</ele>
        <time>2018-02-19T18:54:52Z</time>
      </trkpt>
      <trkpt lat="62.634644529481" lon="17.96472678078">
        <ele>48.2</ele>
        <time>2018-02-19T18:54:53Z</time>
      </trkpt>
      <trkpt lat="62.634671686837" lon="17.964725691133">
        <ele>48.2</ele>
        <time>2018-02-19T18:54:54Z</time>
      </trkpt>
      <trkpt lat="62.63469741927" lon="17.96472426621">
        <ele>48.2</ele>
        <time>2018-02-19T18:54:55Z</time>
      </trkpt>
      <trkpt lat="62.634724157531" lon="17.96472594259">
        <ele>48</ele>
        <time>2018-02-19T18:54:56Z</time>
      </trkpt>
      <trkpt lat="62.634750392878" lon="17.964724769124">
        <ele>48</ele>
        <time>2018-02-19T18:54:57Z</time>
      </trkpt>
      <trkpt lat="62.634775622397" lon="17.964723344201">
        <ele>48</ele>
        <time>2018-02-19T18:54:58Z</time>
      </trkpt>
      <trkpt lat="62.63480135483" lon="17.964724601486">
        <ele>47.8</ele>
        <time>2018-02-19T18:54:59Z</time>
      </trkpt>
      <trkpt lat="62.634824907969" lon="17.96472258983">
        <ele>47.8</ele>
        <time>2018-02-19T18:55:00Z</time>
      </trkpt>
      <trkpt lat="62.634850137488" lon="17.964719823803">
        <ele>47.8</ele>
        <time>2018-02-19T18:55:01Z</time>
      </trkpt>
      <trkpt lat="62.63487763012" lon="17.964720159079">
        <ele>47.8</ele>
        <time>2018-02-19T18:55:02Z</time>
      </trkpt>
      <trkpt lat="62.634902608182" lon="17.964716806319">
        <ele>47.8</ele>
        <time>2018-02-19T18:55:03Z</time>
      </trkpt>
      <trkpt lat="62.634928005339" lon="17.964712028636">
        <ele>47.8</ele>
        <time>2018-02-19T18:55:04Z</time>
      </trkpt>
      <trkpt lat="62.634955078876" lon="17.964700713071">
        <ele>47.6</ele>
        <time>2018-02-19T18:55:05Z</time>
      </trkpt>
      <trkpt lat="62.634978967291" lon="17.96469241499">
        <ele>47.4</ele>
        <time>2018-02-19T18:55:06Z</time>
      </trkpt>
      <trkpt lat="62.635004280629" lon="17.964687804945">
        <ele>47.4</ele>
        <time>2018-02-19T18:55:07Z</time>
      </trkpt>
      <trkpt lat="62.635029593967" lon="17.964680931787">
        <ele>47.4</ele>
        <time>2018-02-19T18:55:08Z</time>
      </trkpt>
      <trkpt lat="62.635056583685" lon="17.964671795516">
        <ele>47.4</ele>
        <time>2018-02-19T18:55:09Z</time>
      </trkpt>
      <trkpt lat="62.635080388281" lon="17.964664838539">
        <ele>47.4</ele>
        <time>2018-02-19T18:55:10Z</time>
      </trkpt>
      <trkpt lat="62.635106372171" lon="17.964656037544">
        <ele>47.4</ele>
        <time>2018-02-19T18:55:11Z</time>
      </trkpt>
      <trkpt lat="62.635130679681" lon="17.964645811626">
        <ele>47.4</ele>
        <time>2018-02-19T18:55:12Z</time>
      </trkpt>
      <trkpt lat="62.635154400458" lon="17.964637429726">
        <ele>47.4</ele>
        <time>2018-02-19T18:55:13Z</time>
      </trkpt>
      <trkpt lat="62.635181222538" lon="17.96462787436">
        <ele>47.2</ele>
        <time>2018-02-19T18:55:14Z</time>
      </trkpt>
      <trkpt lat="62.635206954971" lon="17.964617313166">
        <ele>47</ele>
        <time>2018-02-19T18:55:15Z</time>
      </trkpt>
      <trkpt lat="62.635230424291" lon="17.964609601818">
        <ele>47.2</ele>
        <time>2018-02-19T18:55:16Z</time>
      </trkpt>
      <trkpt lat="62.635255234715" lon="17.964602393384">
        <ele>47</ele>
        <time>2018-02-19T18:55:17Z</time>
      </trkpt>
      <trkpt lat="62.635280128958" lon="17.96459267038">
        <ele>47</ele>
        <time>2018-02-19T18:55:18Z</time>
      </trkpt>
      <trkpt lat="62.635309046513" lon="17.964579007883">
        <ele>47.2</ele>
        <time>2018-02-19T18:55:19Z</time>
      </trkpt>
      <trkpt lat="62.635334946584" lon="17.964564758653">
        <ele>47.2</ele>
        <time>2018-02-19T18:55:20Z</time>
      </trkpt>
      <trkpt lat="62.635360846655" lon="17.964548665405">
        <ele>47</ele>
        <time>2018-02-19T18:55:21Z</time>
      </trkpt>
      <trkpt lat="62.635385908536" lon="17.964535002908">
        <ele>47</ele>
        <time>2018-02-19T18:55:22Z</time>
      </trkpt>
      <trkpt lat="62.635411221874" lon="17.964519580212">
        <ele>46.8</ele>
        <time>2018-02-19T18:55:23Z</time>
      </trkpt>
      <trkpt lat="62.635439468877" lon="17.964504073697">
        <ele>46.8</ele>
        <time>2018-02-19T18:55:24Z</time>
      </trkpt>
      <trkpt lat="62.635465452767" lon="17.964488986277">
        <ele>46.6</ele>
        <time>2018-02-19T18:55:25Z</time>
      </trkpt>
      <trkpt lat="62.63548867063" lon="17.964475156142">
        <ele>46.4</ele>
        <time>2018-02-19T18:55:26Z</time>
      </trkpt>
      <trkpt lat="62.635513900149" lon="17.964463002387">
        <ele>46.4</ele>
        <time>2018-02-19T18:55:27Z</time>
      </trkpt>
      <trkpt lat="62.635540806048" lon="17.964451770641">
        <ele>46.2</ele>
        <time>2018-02-19T18:55:28Z</time>
      </trkpt>
      <trkpt lat="62.635562682807" lon="17.964440622714">
        <ele>46.2</ele>
        <time>2018-02-19T18:55:29Z</time>
      </trkpt>
      <trkpt lat="62.635587409412" lon="17.964428720416">
        <ele>46.2</ele>
        <time>2018-02-19T18:55:30Z</time>
      </trkpt>
      <trkpt lat="62.63560936999" lon="17.964414052091">
        <ele>46.2</ele>
        <time>2018-02-19T18:55:31Z</time>
      </trkpt>
      <trkpt lat="62.635631498206" lon="17.96439904849">
        <ele>46</ele>
        <time>2018-02-19T18:55:32Z</time>
      </trkpt>
      <trkpt lat="62.635653877879" lon="17.964385721269">
        <ele>46.2</ele>
        <time>2018-02-19T18:55:33Z</time>
      </trkpt>
      <trkpt lat="62.635674245896" lon="17.964370214754">
        <ele>46</ele>
        <time>2018-02-19T18:55:34Z</time>
      </trkpt>
      <trkpt lat="62.635697966673" lon="17.964350852565">
        <ele>46</ele>
        <time>2018-02-19T18:55:35Z</time>
      </trkpt>
      <trkpt lat="62.635722190364" lon="17.964336603335">
        <ele>46</ele>
        <time>2018-02-19T18:55:36Z</time>
      </trkpt>
      <trkpt lat="62.635744905313" lon="17.964324281942">
        <ele>46</ele>
        <time>2018-02-19T18:55:37Z</time>
      </trkpt>
      <trkpt lat="62.635766614434" lon="17.964311373816">
        <ele>46</ele>
        <time>2018-02-19T18:55:38Z</time>
      </trkpt>
      <trkpt lat="62.635791508677" lon="17.964294107102">
        <ele>46.2</ele>
        <time>2018-02-19T18:55:39Z</time>
      </trkpt>
      <trkpt lat="62.635812128151" lon="17.964280276967">
        <ele>46</ele>
        <time>2018-02-19T18:55:40Z</time>
      </trkpt>
      <trkpt lat="62.635836184204" lon="17.964265105728">
        <ele>46</ele>
        <time>2018-02-19T18:55:41Z</time>
      </trkpt>
      <trkpt lat="62.635859066791" lon="17.964250521222">
        <ele>45.8</ele>
        <time>2018-02-19T18:55:42Z</time>
      </trkpt>
      <trkpt lat="62.63588010536" lon="17.964234092698">
        <ele>45.8</ele>
        <time>2018-02-19T18:55:43Z</time>
      </trkpt>
      <trkpt lat="62.635904831965" lon="17.964218250907">
        <ele>45.8</ele>
        <time>2018-02-19T18:55:44Z</time>
      </trkpt>
      <trkpt lat="62.635927630733" lon="17.964202995849">
        <ele>45.6</ele>
        <time>2018-02-19T18:55:45Z</time>
      </trkpt>
      <trkpt lat="62.635947747293" lon="17.964185058583">
        <ele>45.8</ele>
        <time>2018-02-19T18:55:46Z</time>
      </trkpt>
      <trkpt lat="62.635971551889" lon="17.964164020014">
        <ele>45.6</ele>
        <time>2018-02-19T18:55:47Z</time>
      </trkpt>
      <trkpt lat="62.635995105028" lon="17.964144741644">
        <ele>45.6</ele>
        <time>2018-02-19T18:55:48Z</time>
      </trkpt>
      <trkpt lat="62.636016395054" lon="17.964122948704">
        <ele>45.6</ele>
        <time>2018-02-19T18:55:49Z</time>
      </trkpt>
      <trkpt lat="62.636039193822" lon="17.964098892651">
        <ele>45.4</ele>
        <time>2018-02-19T18:55:50Z</time>
      </trkpt>
      <trkpt lat="62.636060148572" lon="17.964075004236">
        <ele>45.2</ele>
        <time>2018-02-19T18:55:51Z</time>
      </trkpt>
      <trkpt lat="62.636079678399" lon="17.964051870192">
        <ele>45.2</ele>
        <time>2018-02-19T18:55:52Z</time>
      </trkpt>
      <trkpt lat="62.63610054933" lon="17.964027143587">
        <ele>45.2</ele>
        <time>2018-02-19T18:55:53Z</time>
      </trkpt>
      <trkpt lat="62.636125611211" lon="17.96400509919">
        <ele>45.2</ele>
        <time>2018-02-19T18:55:54Z</time>
      </trkpt>
      <trkpt lat="62.636147907065" lon="17.963983390069">
        <ele>45.2</ele>
        <time>2018-02-19T18:55:55Z</time>
      </trkpt>
      <trkpt lat="62.636170370557" lon="17.963959585473">
        <ele>45.2</ele>
        <time>2018-02-19T18:55:56Z</time>
      </trkpt>
      <trkpt lat="62.636189565108" lon="17.963936032334">
        <ele>45.2</ele>
        <time>2018-02-19T18:55:57Z</time>
      </trkpt>
      <trkpt lat="62.63620699946" lon="17.963912982109">
        <ele>45.2</ele>
        <time>2018-02-19T18:55:58Z</time>
      </trkpt>
      <trkpt lat="62.636231893703" lon="17.963881382346">
        <ele>45</ele>
        <time>2018-02-19T18:55:59Z</time>
      </trkpt>
      <trkpt lat="62.636250836797" lon="17.963854979361">
        <ele>45</ele>
        <time>2018-02-19T18:56:00Z</time>
      </trkpt>
      <trkpt lat="62.636271707728" lon="17.963828576376">
        <ele>45</ele>
        <time>2018-02-19T18:56:01Z</time>
      </trkpt>
      <trkpt lat="62.636293081573" lon="17.96380141902">
        <ele>44.8</ele>
        <time>2018-02-19T18:56:02Z</time>
      </trkpt>
      <trkpt lat="62.636312359943" lon="17.963776357139">
        <ele>44.8</ele>
        <time>2018-02-19T18:56:03Z</time>
      </trkpt>
      <trkpt lat="62.636332057408" lon="17.963753390733">
        <ele>44.8</ele>
        <time>2018-02-19T18:56:04Z</time>
      </trkpt>
      <trkpt lat="62.636354437081" lon="17.963725898101">
        <ele>44.6</ele>
        <time>2018-02-19T18:56:05Z</time>
      </trkpt>
      <trkpt lat="62.636374134546" lon="17.963697064365">
        <ele>44.6</ele>
        <time>2018-02-19T18:56:06Z</time>
      </trkpt>
      <trkpt lat="62.636393999649" lon="17.963672002484">
        <ele>44.8</ele>
        <time>2018-02-19T18:56:07Z</time>
      </trkpt>
      <trkpt lat="62.636413278019" lon="17.963652807933">
        <ele>44.6</ele>
        <time>2018-02-19T18:56:08Z</time>
      </trkpt>
      <trkpt lat="62.636437585529" lon="17.963633026649">
        <ele>44.6</ele>
        <time>2018-02-19T18:56:09Z</time>
      </trkpt>
      <trkpt lat="62.636461473944" lon="17.963618861238">
        <ele>44.6</ele>
        <time>2018-02-19T18:56:10Z</time>
      </trkpt>
      <trkpt lat="62.636486871101" lon="17.963641157092">
        <ele>44.6</ele>
        <time>2018-02-19T18:56:11Z</time>
      </trkpt>
      <trkpt lat="62.636514279914" lon="17.963643336386">
        <ele>44.4</ele>
        <time>2018-02-19T18:56:12Z</time>
      </trkpt>
      <trkpt lat="62.636539425614" lon="17.963645348042">
        <ele>44.6</ele>
        <time>2018-02-19T18:56:13Z</time>
      </trkpt>
      <trkpt lat="62.63656825935" lon="17.963648197888">
        <ele>44.4</ele>
        <time>2018-02-19T18:56:14Z</time>
      </trkpt>
      <trkpt lat="62.636592399222" lon="17.963662363299">
        <ele>44.4</ele>
        <time>2018-02-19T18:56:15Z</time>
      </trkpt>
      <trkpt lat="62.636615533266" lon="17.963684323877">
        <ele>44.4</ele>
        <time>2018-02-19T18:56:16Z</time>
      </trkpt>
      <trkpt lat="62.636638080577" lon="17.963716175097">
        <ele>44</ele>
        <time>2018-02-19T18:56:17Z</time>
      </trkpt>
      <trkpt lat="62.636655766386" lon="17.96375112762">
        <ele>44</ele>
        <time>2018-02-19T18:56:18Z</time>
      </trkpt>
      <trkpt lat="62.636675212394" lon="17.963790690188">
        <ele>44</ele>
        <time>2018-02-19T18:56:19Z</time>
      </trkpt>
      <trkpt lat="62.636692060013" lon="17.963829666023">
        <ele>43.8</ele>
        <time>2018-02-19T18:56:20Z</time>
      </trkpt>
      <trkpt lat="62.636707315071" lon="17.963873670998">
        <ele>43.8</ele>
        <time>2018-02-19T18:56:21Z</time>
      </trkpt>
      <trkpt lat="62.636719636464" lon="17.963921783104">
        <ele>43.8</ele>
        <time>2018-02-19T18:56:22Z</time>
      </trkpt>
      <trkpt lat="62.636731538762" lon="17.963962519138">
        <ele>43.8</ele>
        <time>2018-02-19T18:56:23Z</time>
      </trkpt>
      <trkpt lat="62.636744111612" lon="17.964004596276">
        <ele>43.8</ele>
        <time>2018-02-19T18:56:24Z</time>
      </trkpt>
      <trkpt lat="62.63676271943" lon="17.964045499948">
        <ele>44</ele>
        <time>2018-02-19T18:56:25Z</time>
      </trkpt>
      <trkpt lat="62.636777303936" lon="17.964086319801">
        <ele>44.2</ele>
        <time>2018-02-19T18:56:26Z</time>
      </trkpt>
      <trkpt lat="62.636791050252" lon="17.964126888197">
        <ele>44.2</ele>
        <time>2018-02-19T18:56:27Z</time>
      </trkpt>
      <trkpt lat="62.636806472948" lon="17.964165864032">
        <ele>44.4</ele>
        <time>2018-02-19T18:56:28Z</time>
      </trkpt>
      <trkpt lat="62.636816615047" lon="17.964199810727">
        <ele>44.4</ele>
        <time>2018-02-19T18:56:29Z</time>
      </trkpt>
      <trkpt lat="62.636831199553" lon="17.96424063058">
        <ele>44.4</ele>
        <time>2018-02-19T18:56:30Z</time>
      </trkpt>
      <trkpt lat="62.636848633905" lon="17.964276253655">
        <ele>44.4</ele>
        <time>2018-02-19T18:56:31Z</time>
      </trkpt>
      <trkpt lat="62.636869085741" lon="17.964311792911">
        <ele>44.2</ele>
        <time>2018-02-19T18:56:32Z</time>
      </trkpt>
      <trkpt lat="62.636887693559" lon="17.964342135389">
        <ele>44.2</ele>
        <time>2018-02-19T18:56:33Z</time>
      </trkpt>
      <trkpt lat="62.636905798463" lon="17.964374489523">
        <ele>44.2</ele>
        <time>2018-02-19T18:56:34Z</time>
      </trkpt>
      <trkpt lat="62.636928429593" lon="17.964408352399">
        <ele>44.2</ele>
        <time>2018-02-19T18:56:35Z</time>
      </trkpt>
      <trkpt lat="62.636949132886" lon="17.964440371257">
        <ele>44.2</ele>
        <time>2018-02-19T18:56:36Z</time>
      </trkpt>
      <trkpt lat="62.636971009645" lon="17.964470127002">
        <ele>44</ele>
        <time>2018-02-19T18:56:37Z</time>
      </trkpt>
      <trkpt lat="62.636991712938" lon="17.964501056213">
        <ele>44</ele>
        <time>2018-02-19T18:56:38Z</time>
      </trkpt>
      <trkpt lat="62.637012416231" lon="17.96453734984">
        <ele>43.8</ele>
        <time>2018-02-19T18:56:39Z</time>
      </trkpt>
      <trkpt lat="62.637029934402" lon="17.964568781965">
        <ele>43.8</ele>
        <time>2018-02-19T18:56:40Z</time>
      </trkpt>
      <trkpt lat="62.637049128953" lon="17.964606416696">
        <ele>43.8</ele>
        <time>2018-02-19T18:56:41Z</time>
      </trkpt>
      <trkpt lat="62.63706530602" lon="17.964641872133">
        <ele>43.8</ele>
        <time>2018-02-19T18:56:42Z</time>
      </trkpt>
      <trkpt lat="62.637081063992" lon="17.964676657018">
        <ele>43.8</ele>
        <time>2018-02-19T18:56:43Z</time>
      </trkpt>
      <trkpt lat="62.637100761457" lon="17.964698114682">
        <ele>43.6</ele>
        <time>2018-02-19T18:56:44Z</time>
      </trkpt>
      <trkpt lat="62.637119620732" lon="17.964700545433">
        <ele>43.6</ele>
        <time>2018-02-19T18:56:45Z</time>
      </trkpt>
      <trkpt lat="62.637134456695" lon="17.964684284547">
        <ele>43.6</ele>
        <time>2018-02-19T18:56:46Z</time>
      </trkpt>
      <trkpt lat="62.637152142504" lon="17.964654109707">
        <ele>43.6</ele>
        <time>2018-02-19T18:56:47Z</time>
      </trkpt>
      <trkpt lat="62.637169744494" lon="17.964623012858">
        <ele>43.8</ele>
        <time>2018-02-19T18:56:48Z</time>
      </trkpt>
      <trkpt lat="62.637184077543" lon="17.964596274597">
        <ele>43.8</ele>
        <time>2018-02-19T18:56:49Z</time>
      </trkpt>
      <trkpt lat="62.637202852999" lon="17.964567943775">
        <ele>43.8</ele>
        <time>2018-02-19T18:56:50Z</time>
      </trkpt>
      <trkpt lat="62.637220706446" lon="17.964538607125">
        <ele>43.8</ele>
        <time>2018-02-19T18:56:51Z</time>
      </trkpt>
      <trkpt lat="62.637236883513" lon="17.964511282131">
        <ele>43.6</ele>
        <time>2018-02-19T18:56:52Z</time>
      </trkpt>
      <trkpt lat="62.637255658969" lon="17.964482532214">
        <ele>43.6</ele>
        <time>2018-02-19T18:56:53Z</time>
      </trkpt>
      <trkpt lat="62.637275188796" lon="17.964454285211">
        <ele>43.4</ele>
        <time>2018-02-19T18:56:54Z</time>
      </trkpt>
      <trkpt lat="62.637294383347" lon="17.964427882226">
        <ele>43.4</ele>
        <time>2018-02-19T18:56:55Z</time>
      </trkpt>
      <trkpt lat="62.637313745536" lon="17.964402065974">
        <ele>43.4</ele>
        <time>2018-02-19T18:56:56Z</time>
      </trkpt>
      <trkpt lat="62.637331682802" lon="17.964377758464">
        <ele>43.2</ele>
        <time>2018-02-19T18:56:57Z</time>
      </trkpt>
      <trkpt lat="62.637349871525" lon="17.964354289144">
        <ele>43.2</ele>
        <time>2018-02-19T18:56:58Z</time>
      </trkpt>
      <trkpt lat="62.637360516538" lon="17.964339034086">
        <ele>43</ele>
        <time>2018-02-19T18:56:59Z</time>
      </trkpt>
      <trkpt lat="62.637373676121" lon="17.964325790684">
        <ele>42.8</ele>
        <time>2018-02-19T18:57:00Z</time>
      </trkpt>
      <trkpt lat="62.637386248971" lon="17.96431690587">
        <ele>42.4</ele>
        <time>2018-02-19T18:57:01Z</time>
      </trkpt>
    </trkseg>
  </trk>
</gpx>